<?xml version="1.0" encoding="UTF-8" standalone="no" ?>
<gpx xmlns="http://www.topografix.com/GPX/1/1" xmlns:xsi="http://www.w3.org/2001/XMLSchema-instance" xsi:schemaLocation="http://www.topografix.com/GPX/1/1 http://www.topografix.com/GPX/1/1/gpx.xsd" version="1.1" creator="VisuGPX - https://www.visugpx.com">
  <metadata>
    <name>Le Grand Mont d'Arêches</name>
    <desc><![CDATA[Un des plus beau panorama du Beaufortain sur les Alpes. Retour par les lacs Tempête (superbe).]]></desc>
  </metadata>
  <trk>
    <name><![CDATA[1 Grand Mont d Areches]]></name>
    <trkseg>
      <trkpt lat="45.651" lon="6.58088">
        <ele>1563</ele>
        <time>2011-09-06T09:27:50Z</time>
      </trkpt>
      <trkpt lat="45.65095" lon="6.58088">
        <ele>1562</ele>
        <time>2011-09-06T09:28:00Z</time>
      </trkpt>
      <trkpt lat="45.65094" lon="6.5809">
        <ele>1562</ele>
        <time>2011-09-06T09:28:07Z</time>
      </trkpt>
      <trkpt lat="45.65094" lon="6.58095">
        <ele>1562</ele>
        <time>2011-09-06T09:28:24Z</time>
      </trkpt>
      <trkpt lat="45.65094" lon="6.58097">
        <ele>1561</ele>
        <time>2011-09-06T09:28:31Z</time>
      </trkpt>
      <trkpt lat="45.65096" lon="6.58121">
        <ele>1560</ele>
        <time>2011-09-06T09:28:44Z</time>
      </trkpt>
      <trkpt lat="45.65102" lon="6.58149">
        <ele>1559</ele>
        <time>2011-09-06T09:28:58Z</time>
      </trkpt>
      <trkpt lat="45.65109" lon="6.58178">
        <ele>1558</ele>
        <time>2011-09-06T09:29:13Z</time>
      </trkpt>
      <trkpt lat="45.65113" lon="6.58211">
        <ele>1557</ele>
        <time>2011-09-06T09:29:29Z</time>
      </trkpt>
      <trkpt lat="45.65118" lon="6.58238">
        <ele>1555</ele>
        <time>2011-09-06T09:29:43Z</time>
      </trkpt>
      <trkpt lat="45.65113" lon="6.58258">
        <ele>1555</ele>
        <time>2011-09-06T09:29:55Z</time>
      </trkpt>
      <trkpt lat="45.65111" lon="6.58257">
        <ele>1554</ele>
        <time>2011-09-06T09:29:59Z</time>
      </trkpt>
      <trkpt lat="45.65107" lon="6.58239">
        <ele>1554</ele>
        <time>2011-09-06T09:30:11Z</time>
      </trkpt>
      <trkpt lat="45.65106" lon="6.58233">
        <ele>1553</ele>
        <time>2011-09-06T09:30:18Z</time>
      </trkpt>
      <trkpt lat="45.65103" lon="6.58214">
        <ele>1553</ele>
        <time>2011-09-06T09:30:28Z</time>
      </trkpt>
      <trkpt lat="45.65098" lon="6.58189">
        <ele>1552</ele>
        <time>2011-09-06T09:30:41Z</time>
      </trkpt>
      <trkpt lat="45.65093" lon="6.58166">
        <ele>1551</ele>
        <time>2011-09-06T09:30:53Z</time>
      </trkpt>
      <trkpt lat="45.65092" lon="6.58161">
        <ele>1551</ele>
        <time>2011-09-06T09:31:01Z</time>
      </trkpt>
      <trkpt lat="45.65089" lon="6.58153">
        <ele>1551</ele>
        <time>2011-09-06T09:31:39Z</time>
      </trkpt>
      <trkpt lat="45.65078" lon="6.58125">
        <ele>1549</ele>
        <time>2011-09-06T09:31:54Z</time>
      </trkpt>
      <trkpt lat="45.65071" lon="6.58104">
        <ele>1547</ele>
        <time>2011-09-06T09:32:05Z</time>
      </trkpt>
      <trkpt lat="45.65065" lon="6.58086">
        <ele>1546</ele>
        <time>2011-09-06T09:32:15Z</time>
      </trkpt>
      <trkpt lat="45.65065" lon="6.58062">
        <ele>1544</ele>
        <time>2011-09-06T09:32:27Z</time>
      </trkpt>
      <trkpt lat="45.65065" lon="6.58052">
        <ele>1544</ele>
        <time>2011-09-06T09:32:32Z</time>
      </trkpt>
      <trkpt lat="45.65054" lon="6.5804">
        <ele>1544</ele>
        <time>2011-09-06T09:32:43Z</time>
      </trkpt>
      <trkpt lat="45.65041" lon="6.58023">
        <ele>1544</ele>
        <time>2011-09-06T09:32:56Z</time>
      </trkpt>
      <trkpt lat="45.6503" lon="6.58003">
        <ele>1544</ele>
        <time>2011-09-06T09:33:09Z</time>
      </trkpt>
      <trkpt lat="45.65022" lon="6.57982">
        <ele>1544</ele>
        <time>2011-09-06T09:33:22Z</time>
      </trkpt>
      <trkpt lat="45.65016" lon="6.57956">
        <ele>1545</ele>
        <time>2011-09-06T09:33:36Z</time>
      </trkpt>
      <trkpt lat="45.65014" lon="6.57934">
        <ele>1545</ele>
        <time>2011-09-06T09:33:48Z</time>
      </trkpt>
      <trkpt lat="45.65015" lon="6.57909">
        <ele>1545</ele>
        <time>2011-09-06T09:34:01Z</time>
      </trkpt>
      <trkpt lat="45.65018" lon="6.57884">
        <ele>1545</ele>
        <time>2011-09-06T09:34:14Z</time>
      </trkpt>
      <trkpt lat="45.65023" lon="6.57866">
        <ele>1545</ele>
        <time>2011-09-06T09:34:25Z</time>
      </trkpt>
      <trkpt lat="45.65029" lon="6.5785">
        <ele>1545</ele>
        <time>2011-09-06T09:34:35Z</time>
      </trkpt>
      <trkpt lat="45.65038" lon="6.57832">
        <ele>1546</ele>
        <time>2011-09-06T09:34:47Z</time>
      </trkpt>
      <trkpt lat="45.65047" lon="6.57819">
        <ele>1545</ele>
        <time>2011-09-06T09:34:57Z</time>
      </trkpt>
      <trkpt lat="45.65058" lon="6.57808">
        <ele>1546</ele>
        <time>2011-09-06T09:35:08Z</time>
      </trkpt>
      <trkpt lat="45.65058" lon="6.57802">
        <ele>1546</ele>
        <time>2011-09-06T09:35:13Z</time>
      </trkpt>
      <trkpt lat="45.65045" lon="6.57794">
        <ele>1547</ele>
        <time>2011-09-06T09:35:23Z</time>
      </trkpt>
      <trkpt lat="45.65035" lon="6.57793">
        <ele>1547</ele>
        <time>2011-09-06T09:35:30Z</time>
      </trkpt>
      <trkpt lat="45.65018" lon="6.57798">
        <ele>1548</ele>
        <time>2011-09-06T09:35:42Z</time>
      </trkpt>
      <trkpt lat="45.65013" lon="6.57795">
        <ele>1549</ele>
        <time>2011-09-06T09:35:48Z</time>
      </trkpt>
      <trkpt lat="45.65001" lon="6.57795">
        <ele>1549</ele>
        <time>2011-09-06T09:35:58Z</time>
      </trkpt>
      <trkpt lat="45.6499" lon="6.57794">
        <ele>1549</ele>
        <time>2011-09-06T09:36:06Z</time>
      </trkpt>
      <trkpt lat="45.64977" lon="6.57797">
        <ele>1549</ele>
        <time>2011-09-06T09:36:15Z</time>
      </trkpt>
      <trkpt lat="45.64961" lon="6.57795">
        <ele>1549</ele>
        <time>2011-09-06T09:36:28Z</time>
      </trkpt>
      <trkpt lat="45.6495" lon="6.5779">
        <ele>1550</ele>
        <time>2011-09-06T09:36:38Z</time>
      </trkpt>
      <trkpt lat="45.64948" lon="6.57788">
        <ele>1550</ele>
        <time>2011-09-06T09:36:40Z</time>
      </trkpt>
      <trkpt lat="45.64937" lon="6.57784">
        <ele>1550</ele>
        <time>2011-09-06T09:36:49Z</time>
      </trkpt>
      <trkpt lat="45.64925" lon="6.57775">
        <ele>1550</ele>
        <time>2011-09-06T09:36:59Z</time>
      </trkpt>
      <trkpt lat="45.6491" lon="6.57777">
        <ele>1551</ele>
        <time>2011-09-06T09:37:10Z</time>
      </trkpt>
      <trkpt lat="45.64896" lon="6.57782">
        <ele>1551</ele>
        <time>2011-09-06T09:37:19Z</time>
      </trkpt>
      <trkpt lat="45.64878" lon="6.57788">
        <ele>1552</ele>
        <time>2011-09-06T09:37:31Z</time>
      </trkpt>
      <trkpt lat="45.64869" lon="6.57779">
        <ele>1554</ele>
        <time>2011-09-06T09:37:41Z</time>
      </trkpt>
      <trkpt lat="45.6486" lon="6.57771">
        <ele>1554</ele>
        <time>2011-09-06T09:37:50Z</time>
      </trkpt>
      <trkpt lat="45.64848" lon="6.57764">
        <ele>1555</ele>
        <time>2011-09-06T09:38:00Z</time>
      </trkpt>
      <trkpt lat="45.64838" lon="6.57761">
        <ele>1557</ele>
        <time>2011-09-06T09:38:09Z</time>
      </trkpt>
      <trkpt lat="45.64826" lon="6.57761">
        <ele>1557</ele>
        <time>2011-09-06T09:38:18Z</time>
      </trkpt>
      <trkpt lat="45.64815" lon="6.57761">
        <ele>1558</ele>
        <time>2011-09-06T09:38:26Z</time>
      </trkpt>
      <trkpt lat="45.64804" lon="6.57762">
        <ele>1558</ele>
        <time>2011-09-06T09:38:36Z</time>
      </trkpt>
      <trkpt lat="45.64795" lon="6.57761">
        <ele>1558</ele>
        <time>2011-09-06T09:38:42Z</time>
      </trkpt>
      <trkpt lat="45.64783" lon="6.57761">
        <ele>1558</ele>
        <time>2011-09-06T09:38:52Z</time>
      </trkpt>
      <trkpt lat="45.6477" lon="6.57757">
        <ele>1559</ele>
        <time>2011-09-06T09:39:03Z</time>
      </trkpt>
      <trkpt lat="45.64756" lon="6.57748">
        <ele>1559</ele>
        <time>2011-09-06T09:39:15Z</time>
      </trkpt>
      <trkpt lat="45.6474" lon="6.57755">
        <ele>1558</ele>
        <time>2011-09-06T09:39:24Z</time>
      </trkpt>
      <trkpt lat="45.64731" lon="6.57749">
        <ele>1558</ele>
        <time>2011-09-06T09:39:33Z</time>
      </trkpt>
      <trkpt lat="45.6472" lon="6.57747">
        <ele>1557</ele>
        <time>2011-09-06T09:39:42Z</time>
      </trkpt>
      <trkpt lat="45.64714" lon="6.57748">
        <ele>1558</ele>
        <time>2011-09-06T09:39:47Z</time>
      </trkpt>
      <trkpt lat="45.64706" lon="6.57748">
        <ele>1557</ele>
        <time>2011-09-06T09:39:53Z</time>
      </trkpt>
      <trkpt lat="45.64702" lon="6.57746">
        <ele>1557</ele>
        <time>2011-09-06T09:39:56Z</time>
      </trkpt>
      <trkpt lat="45.64697" lon="6.57741">
        <ele>1557</ele>
        <time>2011-09-06T09:39:59Z</time>
      </trkpt>
      <trkpt lat="45.6468" lon="6.57746">
        <ele>1557</ele>
        <time>2011-09-06T09:40:11Z</time>
      </trkpt>
      <trkpt lat="45.6467" lon="6.57749">
        <ele>1557</ele>
        <time>2011-09-06T09:40:19Z</time>
      </trkpt>
      <trkpt lat="45.64654" lon="6.57746">
        <ele>1557</ele>
        <time>2011-09-06T09:40:31Z</time>
      </trkpt>
      <trkpt lat="45.64643" lon="6.57744">
        <ele>1557</ele>
        <time>2011-09-06T09:40:41Z</time>
      </trkpt>
      <trkpt lat="45.6463" lon="6.5774">
        <ele>1557</ele>
        <time>2011-09-06T09:40:51Z</time>
      </trkpt>
      <trkpt lat="45.64617" lon="6.5774">
        <ele>1557</ele>
        <time>2011-09-06T09:41:01Z</time>
      </trkpt>
      <trkpt lat="45.64602" lon="6.5774">
        <ele>1557</ele>
        <time>2011-09-06T09:41:10Z</time>
      </trkpt>
      <trkpt lat="45.6459" lon="6.57738">
        <ele>1557</ele>
        <time>2011-09-06T09:41:19Z</time>
      </trkpt>
      <trkpt lat="45.64577" lon="6.57736">
        <ele>1557</ele>
        <time>2011-09-06T09:41:30Z</time>
      </trkpt>
      <trkpt lat="45.64563" lon="6.57743">
        <ele>1557</ele>
        <time>2011-09-06T09:41:39Z</time>
      </trkpt>
      <trkpt lat="45.64547" lon="6.57745">
        <ele>1557</ele>
        <time>2011-09-06T09:41:49Z</time>
      </trkpt>
      <trkpt lat="45.6454" lon="6.57729">
        <ele>1557</ele>
        <time>2011-09-06T09:41:58Z</time>
      </trkpt>
      <trkpt lat="45.64529" lon="6.57725">
        <ele>1557</ele>
        <time>2011-09-06T09:42:08Z</time>
      </trkpt>
      <trkpt lat="45.64521" lon="6.57722">
        <ele>1557</ele>
        <time>2011-09-06T09:42:14Z</time>
      </trkpt>
      <trkpt lat="45.64511" lon="6.57719">
        <ele>1557</ele>
        <time>2011-09-06T09:42:23Z</time>
      </trkpt>
      <trkpt lat="45.64499" lon="6.57717">
        <ele>1558</ele>
        <time>2011-09-06T09:42:32Z</time>
      </trkpt>
      <trkpt lat="45.64486" lon="6.57717">
        <ele>1557</ele>
        <time>2011-09-06T09:42:41Z</time>
      </trkpt>
      <trkpt lat="45.64475" lon="6.57716">
        <ele>1558</ele>
        <time>2011-09-06T09:42:50Z</time>
      </trkpt>
      <trkpt lat="45.64468" lon="6.57714">
        <ele>1558</ele>
        <time>2011-09-06T09:42:55Z</time>
      </trkpt>
      <trkpt lat="45.64456" lon="6.57715">
        <ele>1559</ele>
        <time>2011-09-06T09:43:04Z</time>
      </trkpt>
      <trkpt lat="45.64451" lon="6.57716">
        <ele>1559</ele>
        <time>2011-09-06T09:43:08Z</time>
      </trkpt>
      <trkpt lat="45.64444" lon="6.57714">
        <ele>1560</ele>
        <time>2011-09-06T09:43:15Z</time>
      </trkpt>
      <trkpt lat="45.64438" lon="6.57713">
        <ele>1560</ele>
        <time>2011-09-06T09:43:21Z</time>
      </trkpt>
      <trkpt lat="45.64429" lon="6.57713">
        <ele>1560</ele>
        <time>2011-09-06T09:43:26Z</time>
      </trkpt>
      <trkpt lat="45.64422" lon="6.57709">
        <ele>1561</ele>
        <time>2011-09-06T09:43:32Z</time>
      </trkpt>
      <trkpt lat="45.64417" lon="6.5771">
        <ele>1561</ele>
        <time>2011-09-06T09:43:36Z</time>
      </trkpt>
      <trkpt lat="45.64409" lon="6.57708">
        <ele>1561</ele>
        <time>2011-09-06T09:43:42Z</time>
      </trkpt>
      <trkpt lat="45.64397" lon="6.57701">
        <ele>1561</ele>
        <time>2011-09-06T09:43:52Z</time>
      </trkpt>
      <trkpt lat="45.64387" lon="6.57701">
        <ele>1562</ele>
        <time>2011-09-06T09:43:59Z</time>
      </trkpt>
      <trkpt lat="45.64381" lon="6.57704">
        <ele>1562</ele>
        <time>2011-09-06T09:44:04Z</time>
      </trkpt>
      <trkpt lat="45.6437" lon="6.57705">
        <ele>1563</ele>
        <time>2011-09-06T09:44:13Z</time>
      </trkpt>
      <trkpt lat="45.64361" lon="6.57702">
        <ele>1563</ele>
        <time>2011-09-06T09:44:19Z</time>
      </trkpt>
      <trkpt lat="45.6435" lon="6.57694">
        <ele>1563</ele>
        <time>2011-09-06T09:44:27Z</time>
      </trkpt>
      <trkpt lat="45.64341" lon="6.57684">
        <ele>1563</ele>
        <time>2011-09-06T09:44:35Z</time>
      </trkpt>
      <trkpt lat="45.6434" lon="6.57684">
        <ele>1563</ele>
        <time>2011-09-06T09:44:36Z</time>
      </trkpt>
      <trkpt lat="45.64328" lon="6.57679">
        <ele>1563</ele>
        <time>2011-09-06T09:44:45Z</time>
      </trkpt>
      <trkpt lat="45.64324" lon="6.57675">
        <ele>1563</ele>
        <time>2011-09-06T09:44:51Z</time>
      </trkpt>
      <trkpt lat="45.64317" lon="6.5767">
        <ele>1563</ele>
        <time>2011-09-06T09:44:58Z</time>
      </trkpt>
      <trkpt lat="45.64302" lon="6.57663">
        <ele>1563</ele>
        <time>2011-09-06T09:45:07Z</time>
      </trkpt>
      <trkpt lat="45.6429" lon="6.5766">
        <ele>1563</ele>
        <time>2011-09-06T09:45:16Z</time>
      </trkpt>
      <trkpt lat="45.64276" lon="6.57661">
        <ele>1562</ele>
        <time>2011-09-06T09:45:28Z</time>
      </trkpt>
      <trkpt lat="45.64262" lon="6.57651">
        <ele>1562</ele>
        <time>2011-09-06T09:45:40Z</time>
      </trkpt>
      <trkpt lat="45.64245" lon="6.5764">
        <ele>1562</ele>
        <time>2011-09-06T09:45:53Z</time>
      </trkpt>
      <trkpt lat="45.64232" lon="6.5763">
        <ele>1562</ele>
        <time>2011-09-06T09:46:05Z</time>
      </trkpt>
      <trkpt lat="45.6422" lon="6.57614">
        <ele>1563</ele>
        <time>2011-09-06T09:46:18Z</time>
      </trkpt>
      <trkpt lat="45.64209" lon="6.57599">
        <ele>1564</ele>
        <time>2011-09-06T09:46:31Z</time>
      </trkpt>
      <trkpt lat="45.64196" lon="6.57592">
        <ele>1564</ele>
        <time>2011-09-06T09:46:42Z</time>
      </trkpt>
      <trkpt lat="45.64181" lon="6.57585">
        <ele>1568</ele>
        <time>2011-09-06T09:52:14Z</time>
      </trkpt>
      <trkpt lat="45.64188" lon="6.57584">
        <ele>1569</ele>
        <time>2011-09-06T09:52:23Z</time>
      </trkpt>
      <trkpt lat="45.64188" lon="6.57576">
        <ele>1571</ele>
        <time>2011-09-06T09:52:31Z</time>
      </trkpt>
      <trkpt lat="45.64191" lon="6.57571">
        <ele>1573</ele>
        <time>2011-09-06T09:52:39Z</time>
      </trkpt>
      <trkpt lat="45.64192" lon="6.57566">
        <ele>1575</ele>
        <time>2011-09-06T09:52:44Z</time>
      </trkpt>
      <trkpt lat="45.64187" lon="6.57558">
        <ele>1576</ele>
        <time>2011-09-06T09:52:52Z</time>
      </trkpt>
      <trkpt lat="45.6418" lon="6.57548">
        <ele>1578</ele>
        <time>2011-09-06T09:53:02Z</time>
      </trkpt>
      <trkpt lat="45.64185" lon="6.57546">
        <ele>1579</ele>
        <time>2011-09-06T09:53:08Z</time>
      </trkpt>
      <trkpt lat="45.64195" lon="6.57544">
        <ele>1580</ele>
        <time>2011-09-06T09:53:19Z</time>
      </trkpt>
      <trkpt lat="45.64193" lon="6.57538">
        <ele>1582</ele>
        <time>2011-09-06T09:53:26Z</time>
      </trkpt>
      <trkpt lat="45.64191" lon="6.57526">
        <ele>1583</ele>
        <time>2011-09-06T09:53:38Z</time>
      </trkpt>
      <trkpt lat="45.64198" lon="6.57525">
        <ele>1584</ele>
        <time>2011-09-06T09:53:47Z</time>
      </trkpt>
      <trkpt lat="45.64208" lon="6.57526">
        <ele>1586</ele>
        <time>2011-09-06T09:53:59Z</time>
      </trkpt>
      <trkpt lat="45.64205" lon="6.5752">
        <ele>1587</ele>
        <time>2011-09-06T09:54:06Z</time>
      </trkpt>
      <trkpt lat="45.64196" lon="6.57509">
        <ele>1589</ele>
        <time>2011-09-06T09:54:18Z</time>
      </trkpt>
      <trkpt lat="45.64192" lon="6.575">
        <ele>1590</ele>
        <time>2011-09-06T09:54:26Z</time>
      </trkpt>
      <trkpt lat="45.64193" lon="6.57485">
        <ele>1592</ele>
        <time>2011-09-06T09:54:36Z</time>
      </trkpt>
      <trkpt lat="45.64189" lon="6.57475">
        <ele>1593</ele>
        <time>2011-09-06T09:54:45Z</time>
      </trkpt>
      <trkpt lat="45.64182" lon="6.57469">
        <ele>1594</ele>
        <time>2011-09-06T09:54:52Z</time>
      </trkpt>
      <trkpt lat="45.64173" lon="6.57464">
        <ele>1594</ele>
        <time>2011-09-06T09:55:01Z</time>
      </trkpt>
      <trkpt lat="45.64169" lon="6.5746">
        <ele>1594</ele>
        <time>2011-09-06T09:55:06Z</time>
      </trkpt>
      <trkpt lat="45.64165" lon="6.57458">
        <ele>1594</ele>
        <time>2011-09-06T09:55:10Z</time>
      </trkpt>
      <trkpt lat="45.64155" lon="6.57447">
        <ele>1596</ele>
        <time>2011-09-06T09:55:22Z</time>
      </trkpt>
      <trkpt lat="45.64149" lon="6.57434">
        <ele>1596</ele>
        <time>2011-09-06T09:55:33Z</time>
      </trkpt>
      <trkpt lat="45.64145" lon="6.57423">
        <ele>1597</ele>
        <time>2011-09-06T09:55:43Z</time>
      </trkpt>
      <trkpt lat="45.64144" lon="6.57417">
        <ele>1599</ele>
        <time>2011-09-06T09:55:48Z</time>
      </trkpt>
      <trkpt lat="45.64138" lon="6.57407">
        <ele>1601</ele>
        <time>2011-09-06T09:55:58Z</time>
      </trkpt>
      <trkpt lat="45.64132" lon="6.57398">
        <ele>1602</ele>
        <time>2011-09-06T09:56:08Z</time>
      </trkpt>
      <trkpt lat="45.64129" lon="6.57391">
        <ele>1603</ele>
        <time>2011-09-06T09:56:17Z</time>
      </trkpt>
      <trkpt lat="45.64124" lon="6.57384">
        <ele>1605</ele>
        <time>2011-09-06T09:56:27Z</time>
      </trkpt>
      <trkpt lat="45.6412" lon="6.57375">
        <ele>1607</ele>
        <time>2011-09-06T09:56:37Z</time>
      </trkpt>
      <trkpt lat="45.64118" lon="6.57373">
        <ele>1607</ele>
        <time>2011-09-06T09:56:40Z</time>
      </trkpt>
      <trkpt lat="45.64115" lon="6.57368">
        <ele>1609</ele>
        <time>2011-09-06T09:56:48Z</time>
      </trkpt>
      <trkpt lat="45.64117" lon="6.57357">
        <ele>1611</ele>
        <time>2011-09-06T09:56:58Z</time>
      </trkpt>
      <trkpt lat="45.64116" lon="6.57346">
        <ele>1613</ele>
        <time>2011-09-06T09:57:08Z</time>
      </trkpt>
      <trkpt lat="45.64115" lon="6.57336">
        <ele>1614</ele>
        <time>2011-09-06T09:57:19Z</time>
      </trkpt>
      <trkpt lat="45.6412" lon="6.57328">
        <ele>1616</ele>
        <time>2011-09-06T09:57:29Z</time>
      </trkpt>
      <trkpt lat="45.64119" lon="6.5732">
        <ele>1617</ele>
        <time>2011-09-06T09:57:38Z</time>
      </trkpt>
      <trkpt lat="45.6412" lon="6.57311">
        <ele>1620</ele>
        <time>2011-09-06T09:57:49Z</time>
      </trkpt>
      <trkpt lat="45.64119" lon="6.57303">
        <ele>1622</ele>
        <time>2011-09-06T09:57:56Z</time>
      </trkpt>
      <trkpt lat="45.64116" lon="6.57292">
        <ele>1623</ele>
        <time>2011-09-06T09:58:06Z</time>
      </trkpt>
      <trkpt lat="45.64115" lon="6.57286">
        <ele>1624</ele>
        <time>2011-09-06T09:58:12Z</time>
      </trkpt>
      <trkpt lat="45.64116" lon="6.57278">
        <ele>1626</ele>
        <time>2011-09-06T09:58:20Z</time>
      </trkpt>
      <trkpt lat="45.64116" lon="6.57272">
        <ele>1627</ele>
        <time>2011-09-06T09:58:27Z</time>
      </trkpt>
      <trkpt lat="45.64119" lon="6.57265">
        <ele>1628</ele>
        <time>2011-09-06T09:58:36Z</time>
      </trkpt>
      <trkpt lat="45.64119" lon="6.57257">
        <ele>1630</ele>
        <time>2011-09-06T09:58:45Z</time>
      </trkpt>
      <trkpt lat="45.64118" lon="6.57252">
        <ele>1630</ele>
        <time>2011-09-06T09:58:53Z</time>
      </trkpt>
      <trkpt lat="45.64118" lon="6.57245">
        <ele>1631</ele>
        <time>2011-09-06T09:59:03Z</time>
      </trkpt>
      <trkpt lat="45.64118" lon="6.57236">
        <ele>1633</ele>
        <time>2011-09-06T09:59:12Z</time>
      </trkpt>
      <trkpt lat="45.64118" lon="6.5723">
        <ele>1634</ele>
        <time>2011-09-06T09:59:19Z</time>
      </trkpt>
      <trkpt lat="45.64122" lon="6.5722">
        <ele>1635</ele>
        <time>2011-09-06T09:59:27Z</time>
      </trkpt>
      <trkpt lat="45.6412" lon="6.57213">
        <ele>1637</ele>
        <time>2011-09-06T09:59:36Z</time>
      </trkpt>
      <trkpt lat="45.64115" lon="6.57205">
        <ele>1638</ele>
        <time>2011-09-06T09:59:47Z</time>
      </trkpt>
      <trkpt lat="45.6412" lon="6.57201">
        <ele>1641</ele>
        <time>2011-09-06T09:59:58Z</time>
      </trkpt>
      <trkpt lat="45.6412" lon="6.57194">
        <ele>1643</ele>
        <time>2011-09-06T10:00:07Z</time>
      </trkpt>
      <trkpt lat="45.64118" lon="6.57183">
        <ele>1645</ele>
        <time>2011-09-06T10:00:18Z</time>
      </trkpt>
      <trkpt lat="45.64118" lon="6.57181">
        <ele>1646</ele>
        <time>2011-09-06T10:00:25Z</time>
      </trkpt>
      <trkpt lat="45.64119" lon="6.57184">
        <ele>1651</ele>
        <time>2011-09-06T10:00:51Z</time>
      </trkpt>
      <trkpt lat="45.64126" lon="6.57174">
        <ele>1652</ele>
        <time>2011-09-06T10:00:58Z</time>
      </trkpt>
      <trkpt lat="45.64129" lon="6.57174">
        <ele>1653</ele>
        <time>2011-09-06T10:01:04Z</time>
      </trkpt>
      <trkpt lat="45.6413" lon="6.57174">
        <ele>1653</ele>
        <time>2011-09-06T10:01:10Z</time>
      </trkpt>
      <trkpt lat="45.64132" lon="6.57177">
        <ele>1654</ele>
        <time>2011-09-06T10:01:18Z</time>
      </trkpt>
      <trkpt lat="45.64133" lon="6.57175">
        <ele>1656</ele>
        <time>2011-09-06T10:01:26Z</time>
      </trkpt>
      <trkpt lat="45.64134" lon="6.57172">
        <ele>1657</ele>
        <time>2011-09-06T10:01:34Z</time>
      </trkpt>
      <trkpt lat="45.64132" lon="6.57165">
        <ele>1658</ele>
        <time>2011-09-06T10:01:41Z</time>
      </trkpt>
      <trkpt lat="45.64136" lon="6.57162">
        <ele>1659</ele>
        <time>2011-09-06T10:01:49Z</time>
      </trkpt>
      <trkpt lat="45.64142" lon="6.57161">
        <ele>1661</ele>
        <time>2011-09-06T10:01:56Z</time>
      </trkpt>
      <trkpt lat="45.64148" lon="6.5716">
        <ele>1663</ele>
        <time>2011-09-06T10:02:05Z</time>
      </trkpt>
      <trkpt lat="45.64154" lon="6.57157">
        <ele>1664</ele>
        <time>2011-09-06T10:02:13Z</time>
      </trkpt>
      <trkpt lat="45.64153" lon="6.57146">
        <ele>1666</ele>
        <time>2011-09-06T10:02:23Z</time>
      </trkpt>
      <trkpt lat="45.64152" lon="6.57138">
        <ele>1668</ele>
        <time>2011-09-06T10:02:33Z</time>
      </trkpt>
      <trkpt lat="45.64156" lon="6.57137">
        <ele>1670</ele>
        <time>2011-09-06T10:02:43Z</time>
      </trkpt>
      <trkpt lat="45.6416" lon="6.57141">
        <ele>1670</ele>
        <time>2011-09-06T10:02:52Z</time>
      </trkpt>
      <trkpt lat="45.64162" lon="6.57136">
        <ele>1672</ele>
        <time>2011-09-06T10:03:01Z</time>
      </trkpt>
      <trkpt lat="45.64157" lon="6.57127">
        <ele>1674</ele>
        <time>2011-09-06T10:03:11Z</time>
      </trkpt>
      <trkpt lat="45.64154" lon="6.57119">
        <ele>1675</ele>
        <time>2011-09-06T10:03:19Z</time>
      </trkpt>
      <trkpt lat="45.6415" lon="6.57119">
        <ele>1676</ele>
        <time>2011-09-06T10:03:26Z</time>
      </trkpt>
      <trkpt lat="45.64157" lon="6.57119">
        <ele>1678</ele>
        <time>2011-09-06T10:03:39Z</time>
      </trkpt>
      <trkpt lat="45.64164" lon="6.5712">
        <ele>1679</ele>
        <time>2011-09-06T10:03:49Z</time>
      </trkpt>
      <trkpt lat="45.64172" lon="6.57118">
        <ele>1681</ele>
        <time>2011-09-06T10:03:59Z</time>
      </trkpt>
      <trkpt lat="45.64176" lon="6.57119">
        <ele>1681</ele>
        <time>2011-09-06T10:04:04Z</time>
      </trkpt>
      <trkpt lat="45.64178" lon="6.57121">
        <ele>1681</ele>
        <time>2011-09-06T10:04:07Z</time>
      </trkpt>
      <trkpt lat="45.64183" lon="6.57126">
        <ele>1681</ele>
        <time>2011-09-06T10:04:16Z</time>
      </trkpt>
      <trkpt lat="45.6419" lon="6.57126">
        <ele>1682</ele>
        <time>2011-09-06T10:04:23Z</time>
      </trkpt>
      <trkpt lat="45.64194" lon="6.57129">
        <ele>1682</ele>
        <time>2011-09-06T10:04:32Z</time>
      </trkpt>
      <trkpt lat="45.64199" lon="6.57129">
        <ele>1684</ele>
        <time>2011-09-06T10:04:39Z</time>
      </trkpt>
      <trkpt lat="45.64204" lon="6.57128">
        <ele>1686</ele>
        <time>2011-09-06T10:04:50Z</time>
      </trkpt>
      <trkpt lat="45.64213" lon="6.57137">
        <ele>1689</ele>
        <time>2011-09-06T10:05:09Z</time>
      </trkpt>
      <trkpt lat="45.64216" lon="6.57141">
        <ele>1690</ele>
        <time>2011-09-06T10:05:15Z</time>
      </trkpt>
      <trkpt lat="45.64221" lon="6.57141">
        <ele>1692</ele>
        <time>2011-09-06T10:05:28Z</time>
      </trkpt>
      <trkpt lat="45.64228" lon="6.57144">
        <ele>1692</ele>
        <time>2011-09-06T10:05:36Z</time>
      </trkpt>
      <trkpt lat="45.64233" lon="6.57149">
        <ele>1693</ele>
        <time>2011-09-06T10:05:42Z</time>
      </trkpt>
      <trkpt lat="45.64237" lon="6.57153">
        <ele>1693</ele>
        <time>2011-09-06T10:05:50Z</time>
      </trkpt>
      <trkpt lat="45.64239" lon="6.57156">
        <ele>1694</ele>
        <time>2011-09-06T10:05:58Z</time>
      </trkpt>
      <trkpt lat="45.64249" lon="6.57161">
        <ele>1694</ele>
        <time>2011-09-06T10:06:09Z</time>
      </trkpt>
      <trkpt lat="45.64254" lon="6.57171">
        <ele>1696</ele>
        <time>2011-09-06T10:06:19Z</time>
      </trkpt>
      <trkpt lat="45.64257" lon="6.57177">
        <ele>1698</ele>
        <time>2011-09-06T10:06:25Z</time>
      </trkpt>
      <trkpt lat="45.64266" lon="6.5718">
        <ele>1699</ele>
        <time>2011-09-06T10:06:39Z</time>
      </trkpt>
      <trkpt lat="45.64272" lon="6.57185">
        <ele>1700</ele>
        <time>2011-09-06T10:06:48Z</time>
      </trkpt>
      <trkpt lat="45.64278" lon="6.57185">
        <ele>1702</ele>
        <time>2011-09-06T10:07:00Z</time>
      </trkpt>
      <trkpt lat="45.64288" lon="6.57189">
        <ele>1703</ele>
        <time>2011-09-06T10:07:12Z</time>
      </trkpt>
      <trkpt lat="45.64296" lon="6.57189">
        <ele>1704</ele>
        <time>2011-09-06T10:07:19Z</time>
      </trkpt>
      <trkpt lat="45.64305" lon="6.57197">
        <ele>1705</ele>
        <time>2011-09-06T10:07:29Z</time>
      </trkpt>
      <trkpt lat="45.64308" lon="6.57197">
        <ele>1708</ele>
        <time>2011-09-06T10:07:45Z</time>
      </trkpt>
      <trkpt lat="45.64313" lon="6.57198">
        <ele>1708</ele>
        <time>2011-09-06T10:07:52Z</time>
      </trkpt>
      <trkpt lat="45.64314" lon="6.572">
        <ele>1708</ele>
        <time>2011-09-06T10:07:54Z</time>
      </trkpt>
      <trkpt lat="45.64319" lon="6.57211">
        <ele>1708</ele>
        <time>2011-09-06T10:08:03Z</time>
      </trkpt>
      <trkpt lat="45.64326" lon="6.57222">
        <ele>1708</ele>
        <time>2011-09-06T10:08:14Z</time>
      </trkpt>
      <trkpt lat="45.64328" lon="6.57226">
        <ele>1708</ele>
        <time>2011-09-06T10:08:19Z</time>
      </trkpt>
      <trkpt lat="45.64333" lon="6.5723">
        <ele>1709</ele>
        <time>2011-09-06T10:08:25Z</time>
      </trkpt>
      <trkpt lat="45.64338" lon="6.57231">
        <ele>1709</ele>
        <time>2011-09-06T10:08:32Z</time>
      </trkpt>
      <trkpt lat="45.64342" lon="6.57235">
        <ele>1711</ele>
        <time>2011-09-06T10:08:38Z</time>
      </trkpt>
      <trkpt lat="45.64345" lon="6.5724">
        <ele>1712</ele>
        <time>2011-09-06T10:08:48Z</time>
      </trkpt>
      <trkpt lat="45.64352" lon="6.57245">
        <ele>1714</ele>
        <time>2011-09-06T10:09:02Z</time>
      </trkpt>
      <trkpt lat="45.64359" lon="6.57244">
        <ele>1715</ele>
        <time>2011-09-06T10:09:09Z</time>
      </trkpt>
      <trkpt lat="45.64362" lon="6.57251">
        <ele>1717</ele>
        <time>2011-09-06T10:09:17Z</time>
      </trkpt>
      <trkpt lat="45.64367" lon="6.5726">
        <ele>1717</ele>
        <time>2011-09-06T10:09:27Z</time>
      </trkpt>
      <trkpt lat="45.64383" lon="6.57275">
        <ele>1720</ele>
        <time>2011-09-06T10:09:53Z</time>
      </trkpt>
      <trkpt lat="45.64394" lon="6.57272">
        <ele>1722</ele>
        <time>2011-09-06T10:10:04Z</time>
      </trkpt>
      <trkpt lat="45.64399" lon="6.57281">
        <ele>1721</ele>
        <time>2011-09-06T10:10:13Z</time>
      </trkpt>
      <trkpt lat="45.64404" lon="6.57288">
        <ele>1721</ele>
        <time>2011-09-06T10:10:20Z</time>
      </trkpt>
      <trkpt lat="45.64407" lon="6.57299">
        <ele>1721</ele>
        <time>2011-09-06T10:10:27Z</time>
      </trkpt>
      <trkpt lat="45.64411" lon="6.57308">
        <ele>1722</ele>
        <time>2011-09-06T10:10:35Z</time>
      </trkpt>
      <trkpt lat="45.64416" lon="6.57308">
        <ele>1722</ele>
        <time>2011-09-06T10:10:41Z</time>
      </trkpt>
      <trkpt lat="45.64421" lon="6.57307">
        <ele>1723</ele>
        <time>2011-09-06T10:10:52Z</time>
      </trkpt>
      <trkpt lat="45.64428" lon="6.57309">
        <ele>1724</ele>
        <time>2011-09-06T10:11:02Z</time>
      </trkpt>
      <trkpt lat="45.64436" lon="6.57316">
        <ele>1725</ele>
        <time>2011-09-06T10:11:11Z</time>
      </trkpt>
      <trkpt lat="45.64448" lon="6.57317">
        <ele>1727</ele>
        <time>2011-09-06T10:11:23Z</time>
      </trkpt>
      <trkpt lat="45.64452" lon="6.57324">
        <ele>1727</ele>
        <time>2011-09-06T10:11:35Z</time>
      </trkpt>
      <trkpt lat="45.64462" lon="6.57327">
        <ele>1730</ele>
        <time>2011-09-06T10:11:48Z</time>
      </trkpt>
      <trkpt lat="45.64467" lon="6.57337">
        <ele>1729</ele>
        <time>2011-09-06T10:11:56Z</time>
      </trkpt>
      <trkpt lat="45.64477" lon="6.5735">
        <ele>1727</ele>
        <time>2011-09-06T10:12:16Z</time>
      </trkpt>
      <trkpt lat="45.64488" lon="6.57352">
        <ele>1728</ele>
        <time>2011-09-06T10:12:29Z</time>
      </trkpt>
      <trkpt lat="45.64496" lon="6.57355">
        <ele>1728</ele>
        <time>2011-09-06T10:12:38Z</time>
      </trkpt>
      <trkpt lat="45.64498" lon="6.57362">
        <ele>1729</ele>
        <time>2011-09-06T10:12:44Z</time>
      </trkpt>
      <trkpt lat="45.64507" lon="6.57368">
        <ele>1731</ele>
        <time>2011-09-06T10:12:54Z</time>
      </trkpt>
      <trkpt lat="45.64512" lon="6.57366">
        <ele>1732</ele>
        <time>2011-09-06T10:13:08Z</time>
      </trkpt>
      <trkpt lat="45.64512" lon="6.57364">
        <ele>1735</ele>
        <time>2011-09-06T10:13:24Z</time>
      </trkpt>
      <trkpt lat="45.64516" lon="6.5734">
        <ele>1738</ele>
        <time>2011-09-06T10:13:38Z</time>
      </trkpt>
      <trkpt lat="45.64511" lon="6.57328">
        <ele>1739</ele>
        <time>2011-09-06T10:13:53Z</time>
      </trkpt>
      <trkpt lat="45.64519" lon="6.57341">
        <ele>1742</ele>
        <time>2011-09-06T10:14:14Z</time>
      </trkpt>
      <trkpt lat="45.64528" lon="6.57363">
        <ele>1744</ele>
        <time>2011-09-06T10:14:34Z</time>
      </trkpt>
      <trkpt lat="45.64549" lon="6.57363">
        <ele>1747</ele>
        <time>2011-09-06T10:14:57Z</time>
      </trkpt>
      <trkpt lat="45.64558" lon="6.57362">
        <ele>1750</ele>
        <time>2011-09-06T10:15:14Z</time>
      </trkpt>
      <trkpt lat="45.64558" lon="6.57348">
        <ele>1751</ele>
        <time>2011-09-06T10:15:26Z</time>
      </trkpt>
      <trkpt lat="45.6456" lon="6.57344">
        <ele>1756</ele>
        <time>2011-09-06T10:15:40Z</time>
      </trkpt>
      <trkpt lat="45.64582" lon="6.57342">
        <ele>1757</ele>
        <time>2011-09-06T10:16:02Z</time>
      </trkpt>
      <trkpt lat="45.64589" lon="6.57337">
        <ele>1761</ele>
        <time>2011-09-06T10:16:18Z</time>
      </trkpt>
      <trkpt lat="45.64592" lon="6.5735">
        <ele>1762</ele>
        <time>2011-09-06T10:16:28Z</time>
      </trkpt>
      <trkpt lat="45.64598" lon="6.57353">
        <ele>1764</ele>
        <time>2011-09-06T10:16:36Z</time>
      </trkpt>
      <trkpt lat="45.64608" lon="6.57355">
        <ele>1764</ele>
        <time>2011-09-06T10:16:45Z</time>
      </trkpt>
      <trkpt lat="45.64618" lon="6.57351">
        <ele>1765</ele>
        <time>2011-09-06T10:16:54Z</time>
      </trkpt>
      <trkpt lat="45.64624" lon="6.57346">
        <ele>1767</ele>
        <time>2011-09-06T10:17:04Z</time>
      </trkpt>
      <trkpt lat="45.6462" lon="6.57335">
        <ele>1771</ele>
        <time>2011-09-06T10:17:28Z</time>
      </trkpt>
      <trkpt lat="45.64619" lon="6.57339">
        <ele>1777</ele>
        <time>2011-09-06T10:21:52Z</time>
      </trkpt>
      <trkpt lat="45.64637" lon="6.57328">
        <ele>1781</ele>
        <time>2011-09-06T10:22:13Z</time>
      </trkpt>
      <trkpt lat="45.64646" lon="6.57322">
        <ele>1785</ele>
        <time>2011-09-06T10:22:26Z</time>
      </trkpt>
      <trkpt lat="45.64652" lon="6.57321">
        <ele>1786</ele>
        <time>2011-09-06T10:22:36Z</time>
      </trkpt>
      <trkpt lat="45.64652" lon="6.57322">
        <ele>1787</ele>
        <time>2011-09-06T10:22:44Z</time>
      </trkpt>
      <trkpt lat="45.64655" lon="6.5732">
        <ele>1788</ele>
        <time>2011-09-06T10:22:52Z</time>
      </trkpt>
      <trkpt lat="45.64663" lon="6.57321">
        <ele>1790</ele>
        <time>2011-09-06T10:23:03Z</time>
      </trkpt>
      <trkpt lat="45.64667" lon="6.57324">
        <ele>1792</ele>
        <time>2011-09-06T10:23:11Z</time>
      </trkpt>
      <trkpt lat="45.64666" lon="6.57335">
        <ele>1793</ele>
        <time>2011-09-06T10:23:14Z</time>
      </trkpt>
      <trkpt lat="45.64669" lon="6.5736">
        <ele>1793</ele>
        <time>2011-09-06T10:23:24Z</time>
      </trkpt>
      <trkpt lat="45.64681" lon="6.57348">
        <ele>1794</ele>
        <time>2011-09-06T10:23:32Z</time>
      </trkpt>
      <trkpt lat="45.64694" lon="6.57346">
        <ele>1795</ele>
        <time>2011-09-06T10:23:43Z</time>
      </trkpt>
      <trkpt lat="45.64701" lon="6.57353">
        <ele>1797</ele>
        <time>2011-09-06T10:23:53Z</time>
      </trkpt>
      <trkpt lat="45.64706" lon="6.57356">
        <ele>1798</ele>
        <time>2011-09-06T10:23:58Z</time>
      </trkpt>
      <trkpt lat="45.64711" lon="6.5736">
        <ele>1798</ele>
        <time>2011-09-06T10:24:04Z</time>
      </trkpt>
      <trkpt lat="45.64716" lon="6.57362">
        <ele>1798</ele>
        <time>2011-09-06T10:24:12Z</time>
      </trkpt>
      <trkpt lat="45.64729" lon="6.57364">
        <ele>1801</ele>
        <time>2011-09-06T10:24:23Z</time>
      </trkpt>
      <trkpt lat="45.64737" lon="6.57354">
        <ele>1802</ele>
        <time>2011-09-06T10:24:33Z</time>
      </trkpt>
      <trkpt lat="45.64735" lon="6.57351">
        <ele>1803</ele>
        <time>2011-09-06T10:24:41Z</time>
      </trkpt>
      <trkpt lat="45.64747" lon="6.57341">
        <ele>1806</ele>
        <time>2011-09-06T10:25:05Z</time>
      </trkpt>
      <trkpt lat="45.64752" lon="6.57342">
        <ele>1808</ele>
        <time>2011-09-06T10:25:10Z</time>
      </trkpt>
      <trkpt lat="45.64752" lon="6.5734">
        <ele>1809</ele>
        <time>2011-09-06T10:25:20Z</time>
      </trkpt>
      <trkpt lat="45.64749" lon="6.57334">
        <ele>1812</ele>
        <time>2011-09-06T10:25:43Z</time>
      </trkpt>
      <trkpt lat="45.6476" lon="6.57334">
        <ele>1815</ele>
        <time>2011-09-06T10:26:04Z</time>
      </trkpt>
      <trkpt lat="45.64776" lon="6.57331">
        <ele>1818</ele>
        <time>2011-09-06T10:26:24Z</time>
      </trkpt>
      <trkpt lat="45.64785" lon="6.57337">
        <ele>1820</ele>
        <time>2011-09-06T10:26:41Z</time>
      </trkpt>
      <trkpt lat="45.64789" lon="6.57328">
        <ele>1823</ele>
        <time>2011-09-06T10:27:01Z</time>
      </trkpt>
      <trkpt lat="45.64797" lon="6.57338">
        <ele>1827</ele>
        <time>2011-09-06T10:27:22Z</time>
      </trkpt>
      <trkpt lat="45.64812" lon="6.57324">
        <ele>1830</ele>
        <time>2011-09-06T10:27:44Z</time>
      </trkpt>
      <trkpt lat="45.6482" lon="6.5732">
        <ele>1833</ele>
        <time>2011-09-06T10:28:00Z</time>
      </trkpt>
      <trkpt lat="45.64821" lon="6.57328">
        <ele>1835</ele>
        <time>2011-09-06T10:28:08Z</time>
      </trkpt>
      <trkpt lat="45.64825" lon="6.57334">
        <ele>1835</ele>
        <time>2011-09-06T10:28:13Z</time>
      </trkpt>
      <trkpt lat="45.6483" lon="6.57342">
        <ele>1837</ele>
        <time>2011-09-06T10:28:21Z</time>
      </trkpt>
      <trkpt lat="45.64835" lon="6.57342">
        <ele>1837</ele>
        <time>2011-09-06T10:28:27Z</time>
      </trkpt>
      <trkpt lat="45.64839" lon="6.57338">
        <ele>1839</ele>
        <time>2011-09-06T10:28:31Z</time>
      </trkpt>
      <trkpt lat="45.64843" lon="6.57337">
        <ele>1839</ele>
        <time>2011-09-06T10:28:38Z</time>
      </trkpt>
      <trkpt lat="45.64849" lon="6.5734">
        <ele>1840</ele>
        <time>2011-09-06T10:28:48Z</time>
      </trkpt>
      <trkpt lat="45.64852" lon="6.57346">
        <ele>1840</ele>
        <time>2011-09-06T10:28:57Z</time>
      </trkpt>
      <trkpt lat="45.64856" lon="6.57351">
        <ele>1843</ele>
        <time>2011-09-06T10:29:07Z</time>
      </trkpt>
      <trkpt lat="45.6486" lon="6.57351">
        <ele>1843</ele>
        <time>2011-09-06T10:29:12Z</time>
      </trkpt>
      <trkpt lat="45.64863" lon="6.57357">
        <ele>1845</ele>
        <time>2011-09-06T10:29:18Z</time>
      </trkpt>
      <trkpt lat="45.64866" lon="6.57358">
        <ele>1846</ele>
        <time>2011-09-06T10:29:24Z</time>
      </trkpt>
      <trkpt lat="45.6487" lon="6.57357">
        <ele>1847</ele>
        <time>2011-09-06T10:29:34Z</time>
      </trkpt>
      <trkpt lat="45.64872" lon="6.57353">
        <ele>1849</ele>
        <time>2011-09-06T10:29:42Z</time>
      </trkpt>
      <trkpt lat="45.6488" lon="6.57351">
        <ele>1851</ele>
        <time>2011-09-06T10:29:52Z</time>
      </trkpt>
      <trkpt lat="45.64886" lon="6.57349">
        <ele>1852</ele>
        <time>2011-09-06T10:30:01Z</time>
      </trkpt>
      <trkpt lat="45.64892" lon="6.57346">
        <ele>1853</ele>
        <time>2011-09-06T10:30:08Z</time>
      </trkpt>
      <trkpt lat="45.64892" lon="6.57336">
        <ele>1855</ele>
        <time>2011-09-06T10:30:17Z</time>
      </trkpt>
      <trkpt lat="45.6489" lon="6.57325">
        <ele>1857</ele>
        <time>2011-09-06T10:30:28Z</time>
      </trkpt>
      <trkpt lat="45.64892" lon="6.57319">
        <ele>1858</ele>
        <time>2011-09-06T10:30:36Z</time>
      </trkpt>
      <trkpt lat="45.64902" lon="6.57312">
        <ele>1860</ele>
        <time>2011-09-06T10:30:48Z</time>
      </trkpt>
      <trkpt lat="45.64909" lon="6.57307">
        <ele>1861</ele>
        <time>2011-09-06T10:30:58Z</time>
      </trkpt>
      <trkpt lat="45.64913" lon="6.57301">
        <ele>1863</ele>
        <time>2011-09-06T10:31:08Z</time>
      </trkpt>
      <trkpt lat="45.64913" lon="6.57298">
        <ele>1864</ele>
        <time>2011-09-06T10:31:15Z</time>
      </trkpt>
      <trkpt lat="45.64912" lon="6.57293">
        <ele>1865</ele>
        <time>2011-09-06T10:31:23Z</time>
      </trkpt>
      <trkpt lat="45.64909" lon="6.57288">
        <ele>1865</ele>
        <time>2011-09-06T10:31:29Z</time>
      </trkpt>
      <trkpt lat="45.64902" lon="6.5727">
        <ele>1866</ele>
        <time>2011-09-06T10:31:42Z</time>
      </trkpt>
      <trkpt lat="45.64899" lon="6.57255">
        <ele>1867</ele>
        <time>2011-09-06T10:31:52Z</time>
      </trkpt>
      <trkpt lat="45.64902" lon="6.57241">
        <ele>1867</ele>
        <time>2011-09-06T10:32:03Z</time>
      </trkpt>
      <trkpt lat="45.64907" lon="6.57232">
        <ele>1868</ele>
        <time>2011-09-06T10:32:14Z</time>
      </trkpt>
      <trkpt lat="45.64908" lon="6.57231">
        <ele>1868</ele>
        <time>2011-09-06T10:32:24Z</time>
      </trkpt>
      <trkpt lat="45.64909" lon="6.57226">
        <ele>1869</ele>
        <time>2011-09-06T10:38:35Z</time>
      </trkpt>
      <trkpt lat="45.64912" lon="6.57221">
        <ele>1869</ele>
        <time>2011-09-06T10:38:40Z</time>
      </trkpt>
      <trkpt lat="45.64921" lon="6.57206">
        <ele>1870</ele>
        <time>2011-09-06T10:38:54Z</time>
      </trkpt>
      <trkpt lat="45.64923" lon="6.57193">
        <ele>1871</ele>
        <time>2011-09-06T10:39:03Z</time>
      </trkpt>
      <trkpt lat="45.64919" lon="6.57183">
        <ele>1873</ele>
        <time>2011-09-06T10:39:13Z</time>
      </trkpt>
      <trkpt lat="45.64916" lon="6.57177">
        <ele>1875</ele>
        <time>2011-09-06T10:39:22Z</time>
      </trkpt>
      <trkpt lat="45.64911" lon="6.57168">
        <ele>1877</ele>
        <time>2011-09-06T10:39:33Z</time>
      </trkpt>
      <trkpt lat="45.64909" lon="6.57159">
        <ele>1880</ele>
        <time>2011-09-06T10:39:45Z</time>
      </trkpt>
      <trkpt lat="45.64915" lon="6.57152">
        <ele>1881</ele>
        <time>2011-09-06T10:39:55Z</time>
      </trkpt>
      <trkpt lat="45.64923" lon="6.57137">
        <ele>1883</ele>
        <time>2011-09-06T10:40:09Z</time>
      </trkpt>
      <trkpt lat="45.64921" lon="6.57124">
        <ele>1884</ele>
        <time>2011-09-06T10:40:19Z</time>
      </trkpt>
      <trkpt lat="45.6492" lon="6.57121">
        <ele>1884</ele>
        <time>2011-09-06T10:40:22Z</time>
      </trkpt>
      <trkpt lat="45.64916" lon="6.5711">
        <ele>1888</ele>
        <time>2011-09-06T10:40:32Z</time>
      </trkpt>
      <trkpt lat="45.64911" lon="6.57108">
        <ele>1890</ele>
        <time>2011-09-06T10:40:40Z</time>
      </trkpt>
      <trkpt lat="45.64903" lon="6.57105">
        <ele>1891</ele>
        <time>2011-09-06T10:40:51Z</time>
      </trkpt>
      <trkpt lat="45.64901" lon="6.57096">
        <ele>1892</ele>
        <time>2011-09-06T10:40:59Z</time>
      </trkpt>
      <trkpt lat="45.64908" lon="6.57087">
        <ele>1894</ele>
        <time>2011-09-06T10:41:09Z</time>
      </trkpt>
      <trkpt lat="45.64912" lon="6.57079">
        <ele>1895</ele>
        <time>2011-09-06T10:41:19Z</time>
      </trkpt>
      <trkpt lat="45.64916" lon="6.57073">
        <ele>1897</ele>
        <time>2011-09-06T10:41:29Z</time>
      </trkpt>
      <trkpt lat="45.64917" lon="6.5707">
        <ele>1898</ele>
        <time>2011-09-06T10:41:37Z</time>
      </trkpt>
      <trkpt lat="45.64912" lon="6.57068">
        <ele>1900</ele>
        <time>2011-09-06T10:41:45Z</time>
      </trkpt>
      <trkpt lat="45.64904" lon="6.57067">
        <ele>1904</ele>
        <time>2011-09-06T10:41:58Z</time>
      </trkpt>
      <trkpt lat="45.64899" lon="6.57058">
        <ele>1905</ele>
        <time>2011-09-06T10:42:09Z</time>
      </trkpt>
      <trkpt lat="45.64902" lon="6.57047">
        <ele>1907</ele>
        <time>2011-09-06T10:42:19Z</time>
      </trkpt>
      <trkpt lat="45.64895" lon="6.57035">
        <ele>1909</ele>
        <time>2011-09-06T10:42:32Z</time>
      </trkpt>
      <trkpt lat="45.64892" lon="6.57034">
        <ele>1910</ele>
        <time>2011-09-06T10:42:36Z</time>
      </trkpt>
      <trkpt lat="45.64882" lon="6.57034">
        <ele>1909</ele>
        <time>2011-09-06T10:42:46Z</time>
      </trkpt>
      <trkpt lat="45.64872" lon="6.57032">
        <ele>1910</ele>
        <time>2011-09-06T10:42:56Z</time>
      </trkpt>
      <trkpt lat="45.64862" lon="6.57028">
        <ele>1913</ele>
        <time>2011-09-06T10:43:06Z</time>
      </trkpt>
      <trkpt lat="45.64853" lon="6.57026">
        <ele>1914</ele>
        <time>2011-09-06T10:43:16Z</time>
      </trkpt>
      <trkpt lat="45.64844" lon="6.57026">
        <ele>1915</ele>
        <time>2011-09-06T10:43:27Z</time>
      </trkpt>
      <trkpt lat="45.64834" lon="6.57021">
        <ele>1917</ele>
        <time>2011-09-06T10:43:40Z</time>
      </trkpt>
      <trkpt lat="45.64835" lon="6.57014">
        <ele>1918</ele>
        <time>2011-09-06T10:43:48Z</time>
      </trkpt>
      <trkpt lat="45.64838" lon="6.57004">
        <ele>1920</ele>
        <time>2011-09-06T10:43:59Z</time>
      </trkpt>
      <trkpt lat="45.64841" lon="6.57">
        <ele>1920</ele>
        <time>2011-09-06T10:44:03Z</time>
      </trkpt>
      <trkpt lat="45.64848" lon="6.56994">
        <ele>1922</ele>
        <time>2011-09-06T10:44:14Z</time>
      </trkpt>
      <trkpt lat="45.64856" lon="6.56991">
        <ele>1922</ele>
        <time>2011-09-06T10:44:23Z</time>
      </trkpt>
      <trkpt lat="45.64864" lon="6.56989">
        <ele>1924</ele>
        <time>2011-09-06T10:44:33Z</time>
      </trkpt>
      <trkpt lat="45.64866" lon="6.56985">
        <ele>1925</ele>
        <time>2011-09-06T10:44:41Z</time>
      </trkpt>
      <trkpt lat="45.64862" lon="6.56981">
        <ele>1926</ele>
        <time>2011-09-06T10:44:50Z</time>
      </trkpt>
      <trkpt lat="45.64857" lon="6.56976">
        <ele>1928</ele>
        <time>2011-09-06T10:45:01Z</time>
      </trkpt>
      <trkpt lat="45.64849" lon="6.56971">
        <ele>1930</ele>
        <time>2011-09-06T10:45:12Z</time>
      </trkpt>
      <trkpt lat="45.64844" lon="6.56966">
        <ele>1931</ele>
        <time>2011-09-06T10:45:20Z</time>
      </trkpt>
      <trkpt lat="45.6484" lon="6.56963">
        <ele>1932</ele>
        <time>2011-09-06T10:45:30Z</time>
      </trkpt>
      <trkpt lat="45.64838" lon="6.56961">
        <ele>1932</ele>
        <time>2011-09-06T10:45:41Z</time>
      </trkpt>
      <trkpt lat="45.64836" lon="6.56958">
        <ele>1932</ele>
        <time>2011-09-06T10:45:49Z</time>
      </trkpt>
      <trkpt lat="45.64834" lon="6.56957">
        <ele>1932</ele>
        <time>2011-09-06T10:45:57Z</time>
      </trkpt>
      <trkpt lat="45.64832" lon="6.56956">
        <ele>1936</ele>
        <time>2011-09-06T10:46:02Z</time>
      </trkpt>
      <trkpt lat="45.6483" lon="6.56956">
        <ele>1933</ele>
        <time>2011-09-06T10:46:05Z</time>
      </trkpt>
      <trkpt lat="45.64827" lon="6.56954">
        <ele>1933</ele>
        <time>2011-09-06T10:46:13Z</time>
      </trkpt>
      <trkpt lat="45.64824" lon="6.56949">
        <ele>1935</ele>
        <time>2011-09-06T10:46:57Z</time>
      </trkpt>
      <trkpt lat="45.64818" lon="6.56942">
        <ele>1936</ele>
        <time>2011-09-06T10:47:07Z</time>
      </trkpt>
      <trkpt lat="45.64817" lon="6.56937">
        <ele>1936</ele>
        <time>2011-09-06T10:47:33Z</time>
      </trkpt>
      <trkpt lat="45.64812" lon="6.56924">
        <ele>1937</ele>
        <time>2011-09-06T10:47:44Z</time>
      </trkpt>
      <trkpt lat="45.64806" lon="6.56909">
        <ele>1938</ele>
        <time>2011-09-06T10:47:56Z</time>
      </trkpt>
      <trkpt lat="45.64802" lon="6.56897">
        <ele>1938</ele>
        <time>2011-09-06T10:48:05Z</time>
      </trkpt>
      <trkpt lat="45.64795" lon="6.56885">
        <ele>1937</ele>
        <time>2011-09-06T10:48:15Z</time>
      </trkpt>
      <trkpt lat="45.64792" lon="6.56868">
        <ele>1939</ele>
        <time>2011-09-06T10:48:25Z</time>
      </trkpt>
      <trkpt lat="45.64788" lon="6.56854">
        <ele>1940</ele>
        <time>2011-09-06T10:48:36Z</time>
      </trkpt>
      <trkpt lat="45.64784" lon="6.56847">
        <ele>1940</ele>
        <time>2011-09-06T10:48:43Z</time>
      </trkpt>
      <trkpt lat="45.64779" lon="6.5684">
        <ele>1941</ele>
        <time>2011-09-06T10:48:52Z</time>
      </trkpt>
      <trkpt lat="45.64771" lon="6.56833">
        <ele>1942</ele>
        <time>2011-09-06T10:49:02Z</time>
      </trkpt>
      <trkpt lat="45.64763" lon="6.56826">
        <ele>1942</ele>
        <time>2011-09-06T10:49:13Z</time>
      </trkpt>
      <trkpt lat="45.64758" lon="6.56816">
        <ele>1943</ele>
        <time>2011-09-06T10:49:24Z</time>
      </trkpt>
      <trkpt lat="45.6476" lon="6.56806">
        <ele>1944</ele>
        <time>2011-09-06T10:49:36Z</time>
      </trkpt>
      <trkpt lat="45.64761" lon="6.56802">
        <ele>1944</ele>
        <time>2011-09-06T10:49:45Z</time>
      </trkpt>
      <trkpt lat="45.64762" lon="6.56798">
        <ele>1945</ele>
        <time>2011-09-06T10:49:54Z</time>
      </trkpt>
      <trkpt lat="45.64762" lon="6.56794">
        <ele>1946</ele>
        <time>2011-09-06T10:50:04Z</time>
      </trkpt>
      <trkpt lat="45.64763" lon="6.56792">
        <ele>1946</ele>
        <time>2011-09-06T10:50:13Z</time>
      </trkpt>
      <trkpt lat="45.64759" lon="6.56794">
        <ele>1946</ele>
        <time>2011-09-06T10:50:22Z</time>
      </trkpt>
      <trkpt lat="45.64759" lon="6.5679">
        <ele>1947</ele>
        <time>2011-09-06T10:50:28Z</time>
      </trkpt>
      <trkpt lat="45.64759" lon="6.56783">
        <ele>1947</ele>
        <time>2011-09-06T10:50:37Z</time>
      </trkpt>
      <trkpt lat="45.64757" lon="6.56776">
        <ele>1949</ele>
        <time>2011-09-06T10:50:44Z</time>
      </trkpt>
      <trkpt lat="45.64751" lon="6.56773">
        <ele>1952</ele>
        <time>2011-09-06T10:50:55Z</time>
      </trkpt>
      <trkpt lat="45.64742" lon="6.56774">
        <ele>1953</ele>
        <time>2011-09-06T10:51:06Z</time>
      </trkpt>
      <trkpt lat="45.64738" lon="6.5677">
        <ele>1954</ele>
        <time>2011-09-06T10:51:16Z</time>
      </trkpt>
      <trkpt lat="45.64736" lon="6.56759">
        <ele>1956</ele>
        <time>2011-09-06T10:51:26Z</time>
      </trkpt>
      <trkpt lat="45.64733" lon="6.56751">
        <ele>1956</ele>
        <time>2011-09-06T10:51:34Z</time>
      </trkpt>
      <trkpt lat="45.64726" lon="6.56742">
        <ele>1958</ele>
        <time>2011-09-06T10:51:46Z</time>
      </trkpt>
      <trkpt lat="45.64722" lon="6.56738">
        <ele>1959</ele>
        <time>2011-09-06T10:51:55Z</time>
      </trkpt>
      <trkpt lat="45.64717" lon="6.56726">
        <ele>1960</ele>
        <time>2011-09-06T10:52:06Z</time>
      </trkpt>
      <trkpt lat="45.64716" lon="6.56717">
        <ele>1961</ele>
        <time>2011-09-06T10:52:16Z</time>
      </trkpt>
      <trkpt lat="45.64714" lon="6.5671">
        <ele>1959</ele>
        <time>2011-09-06T10:52:24Z</time>
      </trkpt>
      <trkpt lat="45.64715" lon="6.56696">
        <ele>1959</ele>
        <time>2011-09-06T10:52:34Z</time>
      </trkpt>
      <trkpt lat="45.64718" lon="6.56689">
        <ele>1960</ele>
        <time>2011-09-06T10:52:42Z</time>
      </trkpt>
      <trkpt lat="45.6472" lon="6.56683">
        <ele>1960</ele>
        <time>2011-09-06T10:52:49Z</time>
      </trkpt>
      <trkpt lat="45.6472" lon="6.56676">
        <ele>1961</ele>
        <time>2011-09-06T10:52:58Z</time>
      </trkpt>
      <trkpt lat="45.64716" lon="6.56666">
        <ele>1962</ele>
        <time>2011-09-06T10:53:09Z</time>
      </trkpt>
      <trkpt lat="45.64714" lon="6.56652">
        <ele>1963</ele>
        <time>2011-09-06T10:53:20Z</time>
      </trkpt>
      <trkpt lat="45.64715" lon="6.56639">
        <ele>1965</ele>
        <time>2011-09-06T10:53:31Z</time>
      </trkpt>
      <trkpt lat="45.64717" lon="6.56628">
        <ele>1967</ele>
        <time>2011-09-06T10:53:41Z</time>
      </trkpt>
      <trkpt lat="45.64713" lon="6.56618">
        <ele>1967</ele>
        <time>2011-09-06T10:53:51Z</time>
      </trkpt>
      <trkpt lat="45.6471" lon="6.56607">
        <ele>1969</ele>
        <time>2011-09-06T10:54:02Z</time>
      </trkpt>
      <trkpt lat="45.64708" lon="6.56595">
        <ele>1971</ele>
        <time>2011-09-06T10:54:13Z</time>
      </trkpt>
      <trkpt lat="45.64706" lon="6.56578">
        <ele>1971</ele>
        <time>2011-09-06T10:54:25Z</time>
      </trkpt>
      <trkpt lat="45.64706" lon="6.56568">
        <ele>1972</ele>
        <time>2011-09-06T10:54:34Z</time>
      </trkpt>
      <trkpt lat="45.64701" lon="6.5656">
        <ele>1975</ele>
        <time>2011-09-06T10:54:43Z</time>
      </trkpt>
      <trkpt lat="45.64697" lon="6.56551">
        <ele>1976</ele>
        <time>2011-09-06T10:54:52Z</time>
      </trkpt>
      <trkpt lat="45.64691" lon="6.56547">
        <ele>1976</ele>
        <time>2011-09-06T10:55:02Z</time>
      </trkpt>
      <trkpt lat="45.64683" lon="6.56539">
        <ele>1979</ele>
        <time>2011-09-06T10:55:14Z</time>
      </trkpt>
      <trkpt lat="45.6468" lon="6.56533">
        <ele>1981</ele>
        <time>2011-09-06T10:55:24Z</time>
      </trkpt>
      <trkpt lat="45.64676" lon="6.56527">
        <ele>1983</ele>
        <time>2011-09-06T10:55:34Z</time>
      </trkpt>
      <trkpt lat="45.64671" lon="6.56539">
        <ele>1984</ele>
        <time>2011-09-06T10:55:45Z</time>
      </trkpt>
      <trkpt lat="45.64663" lon="6.56546">
        <ele>1984</ele>
        <time>2011-09-06T10:55:56Z</time>
      </trkpt>
      <trkpt lat="45.64661" lon="6.56536">
        <ele>1985</ele>
        <time>2011-09-06T10:56:04Z</time>
      </trkpt>
      <trkpt lat="45.64659" lon="6.5653">
        <ele>1986</ele>
        <time>2011-09-06T10:56:09Z</time>
      </trkpt>
      <trkpt lat="45.64656" lon="6.56525">
        <ele>1988</ele>
        <time>2011-09-06T10:56:13Z</time>
      </trkpt>
      <trkpt lat="45.64645" lon="6.56519">
        <ele>1989</ele>
        <time>2011-09-06T10:56:26Z</time>
      </trkpt>
      <trkpt lat="45.64632" lon="6.56511">
        <ele>1990</ele>
        <time>2011-09-06T10:56:39Z</time>
      </trkpt>
      <trkpt lat="45.6463" lon="6.56505">
        <ele>1989</ele>
        <time>2011-09-06T10:56:44Z</time>
      </trkpt>
      <trkpt lat="45.64633" lon="6.56492">
        <ele>1991</ele>
        <time>2011-09-06T10:56:55Z</time>
      </trkpt>
      <trkpt lat="45.64632" lon="6.5648">
        <ele>1992</ele>
        <time>2011-09-06T10:57:04Z</time>
      </trkpt>
      <trkpt lat="45.64629" lon="6.56468">
        <ele>1993</ele>
        <time>2011-09-06T10:57:13Z</time>
      </trkpt>
      <trkpt lat="45.64626" lon="6.5646">
        <ele>1994</ele>
        <time>2011-09-06T10:57:20Z</time>
      </trkpt>
      <trkpt lat="45.64618" lon="6.56448">
        <ele>1995</ele>
        <time>2011-09-06T10:57:31Z</time>
      </trkpt>
      <trkpt lat="45.64614" lon="6.56438">
        <ele>1997</ele>
        <time>2011-09-06T10:57:41Z</time>
      </trkpt>
      <trkpt lat="45.64611" lon="6.5643">
        <ele>1999</ele>
        <time>2011-09-06T10:57:51Z</time>
      </trkpt>
      <trkpt lat="45.64609" lon="6.56427">
        <ele>2000</ele>
        <time>2011-09-06T10:57:58Z</time>
      </trkpt>
      <trkpt lat="45.64608" lon="6.56423">
        <ele>2002</ele>
        <time>2011-09-06T10:58:06Z</time>
      </trkpt>
      <trkpt lat="45.64605" lon="6.5642">
        <ele>2003</ele>
        <time>2011-09-06T10:58:16Z</time>
      </trkpt>
      <trkpt lat="45.64602" lon="6.56415">
        <ele>2004</ele>
        <time>2011-09-06T10:58:24Z</time>
      </trkpt>
      <trkpt lat="45.64598" lon="6.56407">
        <ele>2006</ele>
        <time>2011-09-06T10:58:34Z</time>
      </trkpt>
      <trkpt lat="45.64593" lon="6.56398">
        <ele>2008</ele>
        <time>2011-09-06T10:58:45Z</time>
      </trkpt>
      <trkpt lat="45.64591" lon="6.56391">
        <ele>2012</ele>
        <time>2011-09-06T10:58:53Z</time>
      </trkpt>
      <trkpt lat="45.64588" lon="6.56383">
        <ele>2013</ele>
        <time>2011-09-06T10:59:02Z</time>
      </trkpt>
      <trkpt lat="45.64583" lon="6.56376">
        <ele>2013</ele>
        <time>2011-09-06T10:59:11Z</time>
      </trkpt>
      <trkpt lat="45.64579" lon="6.56363">
        <ele>2015</ele>
        <time>2011-09-06T10:59:22Z</time>
      </trkpt>
      <trkpt lat="45.64578" lon="6.5636">
        <ele>2017</ele>
        <time>2011-09-06T10:59:25Z</time>
      </trkpt>
      <trkpt lat="45.64576" lon="6.56349">
        <ele>2017</ele>
        <time>2011-09-06T10:59:35Z</time>
      </trkpt>
      <trkpt lat="45.64574" lon="6.5634">
        <ele>2019</ele>
        <time>2011-09-06T10:59:44Z</time>
      </trkpt>
      <trkpt lat="45.6457" lon="6.56328">
        <ele>2020</ele>
        <time>2011-09-06T10:59:55Z</time>
      </trkpt>
      <trkpt lat="45.64567" lon="6.5632">
        <ele>2021</ele>
        <time>2011-09-06T11:00:04Z</time>
      </trkpt>
      <trkpt lat="45.64563" lon="6.56308">
        <ele>2023</ele>
        <time>2011-09-06T11:00:14Z</time>
      </trkpt>
      <trkpt lat="45.64556" lon="6.563">
        <ele>2025</ele>
        <time>2011-09-06T11:00:26Z</time>
      </trkpt>
      <trkpt lat="45.64554" lon="6.5629">
        <ele>2026</ele>
        <time>2011-09-06T11:00:35Z</time>
      </trkpt>
      <trkpt lat="45.64549" lon="6.56282">
        <ele>2028</ele>
        <time>2011-09-06T11:00:45Z</time>
      </trkpt>
      <trkpt lat="45.64544" lon="6.56272">
        <ele>2029</ele>
        <time>2011-09-06T11:00:55Z</time>
      </trkpt>
      <trkpt lat="45.6454" lon="6.56267">
        <ele>2029</ele>
        <time>2011-09-06T11:02:53Z</time>
      </trkpt>
      <trkpt lat="45.64534" lon="6.56259">
        <ele>2031</ele>
        <time>2011-09-06T11:03:02Z</time>
      </trkpt>
      <trkpt lat="45.64531" lon="6.56254">
        <ele>2032</ele>
        <time>2011-09-06T11:03:07Z</time>
      </trkpt>
      <trkpt lat="45.64526" lon="6.56234">
        <ele>2034</ele>
        <time>2011-09-06T11:03:20Z</time>
      </trkpt>
      <trkpt lat="45.6452" lon="6.56222">
        <ele>2036</ele>
        <time>2011-09-06T11:03:32Z</time>
      </trkpt>
      <trkpt lat="45.64516" lon="6.56214">
        <ele>2038</ele>
        <time>2011-09-06T11:03:41Z</time>
      </trkpt>
      <trkpt lat="45.64511" lon="6.562">
        <ele>2040</ele>
        <time>2011-09-06T11:03:52Z</time>
      </trkpt>
      <trkpt lat="45.64508" lon="6.56188">
        <ele>2041</ele>
        <time>2011-09-06T11:04:03Z</time>
      </trkpt>
      <trkpt lat="45.64505" lon="6.56178">
        <ele>2043</ele>
        <time>2011-09-06T11:04:14Z</time>
      </trkpt>
      <trkpt lat="45.64503" lon="6.56168">
        <ele>2044</ele>
        <time>2011-09-06T11:04:23Z</time>
      </trkpt>
      <trkpt lat="45.64499" lon="6.56163">
        <ele>2047</ele>
        <time>2011-09-06T11:04:31Z</time>
      </trkpt>
      <trkpt lat="45.64498" lon="6.56162">
        <ele>2047</ele>
        <time>2011-09-06T11:04:32Z</time>
      </trkpt>
      <trkpt lat="45.64494" lon="6.56153">
        <ele>2048</ele>
        <time>2011-09-06T11:04:42Z</time>
      </trkpt>
      <trkpt lat="45.64488" lon="6.56147">
        <ele>2050</ele>
        <time>2011-09-06T11:04:52Z</time>
      </trkpt>
      <trkpt lat="45.64493" lon="6.56141">
        <ele>2051</ele>
        <time>2011-09-06T11:05:01Z</time>
      </trkpt>
      <trkpt lat="45.64492" lon="6.56136">
        <ele>2053</ele>
        <time>2011-09-06T11:05:10Z</time>
      </trkpt>
      <trkpt lat="45.64487" lon="6.56131">
        <ele>2054</ele>
        <time>2011-09-06T11:05:20Z</time>
      </trkpt>
      <trkpt lat="45.64483" lon="6.56124">
        <ele>2056</ele>
        <time>2011-09-06T11:05:30Z</time>
      </trkpt>
      <trkpt lat="45.6448" lon="6.56121">
        <ele>2058</ele>
        <time>2011-09-06T11:05:36Z</time>
      </trkpt>
      <trkpt lat="45.64477" lon="6.56116">
        <ele>2060</ele>
        <time>2011-09-06T11:05:45Z</time>
      </trkpt>
      <trkpt lat="45.64476" lon="6.56107">
        <ele>2062</ele>
        <time>2011-09-06T11:05:55Z</time>
      </trkpt>
      <trkpt lat="45.64472" lon="6.561">
        <ele>2063</ele>
        <time>2011-09-06T11:06:05Z</time>
      </trkpt>
      <trkpt lat="45.64469" lon="6.56095">
        <ele>2066</ele>
        <time>2011-09-06T11:06:14Z</time>
      </trkpt>
      <trkpt lat="45.64465" lon="6.56087">
        <ele>2066</ele>
        <time>2011-09-06T11:06:23Z</time>
      </trkpt>
      <trkpt lat="45.64463" lon="6.56081">
        <ele>2067</ele>
        <time>2011-09-06T11:06:31Z</time>
      </trkpt>
      <trkpt lat="45.64459" lon="6.5607">
        <ele>2069</ele>
        <time>2011-09-06T11:06:42Z</time>
      </trkpt>
      <trkpt lat="45.64455" lon="6.56062">
        <ele>2072</ele>
        <time>2011-09-06T11:06:53Z</time>
      </trkpt>
      <trkpt lat="45.64451" lon="6.56053">
        <ele>2073</ele>
        <time>2011-09-06T11:07:04Z</time>
      </trkpt>
      <trkpt lat="45.64448" lon="6.56046">
        <ele>2074</ele>
        <time>2011-09-06T11:07:13Z</time>
      </trkpt>
      <trkpt lat="45.64446" lon="6.56038">
        <ele>2076</ele>
        <time>2011-09-06T11:07:22Z</time>
      </trkpt>
      <trkpt lat="45.64445" lon="6.56032">
        <ele>2077</ele>
        <time>2011-09-06T11:07:30Z</time>
      </trkpt>
      <trkpt lat="45.64443" lon="6.56027">
        <ele>2079</ele>
        <time>2011-09-06T11:07:37Z</time>
      </trkpt>
      <trkpt lat="45.64442" lon="6.56022">
        <ele>2079</ele>
        <time>2011-09-06T11:07:44Z</time>
      </trkpt>
      <trkpt lat="45.64438" lon="6.56016">
        <ele>2081</ele>
        <time>2011-09-06T11:07:53Z</time>
      </trkpt>
      <trkpt lat="45.64434" lon="6.56006">
        <ele>2083</ele>
        <time>2011-09-06T11:08:04Z</time>
      </trkpt>
      <trkpt lat="45.64432" lon="6.56002">
        <ele>2084</ele>
        <time>2011-09-06T11:08:08Z</time>
      </trkpt>
      <trkpt lat="45.64427" lon="6.55994">
        <ele>2086</ele>
        <time>2011-09-06T11:08:19Z</time>
      </trkpt>
      <trkpt lat="45.64422" lon="6.55987">
        <ele>2087</ele>
        <time>2011-09-06T11:08:28Z</time>
      </trkpt>
      <trkpt lat="45.64417" lon="6.55981">
        <ele>2089</ele>
        <time>2011-09-06T11:08:39Z</time>
      </trkpt>
      <trkpt lat="45.64412" lon="6.55978">
        <ele>2091</ele>
        <time>2011-09-06T11:08:48Z</time>
      </trkpt>
      <trkpt lat="45.6441" lon="6.55971">
        <ele>2093</ele>
        <time>2011-09-06T11:09:00Z</time>
      </trkpt>
      <trkpt lat="45.64408" lon="6.55965">
        <ele>2094</ele>
        <time>2011-09-06T11:09:08Z</time>
      </trkpt>
      <trkpt lat="45.64407" lon="6.55961">
        <ele>2095</ele>
        <time>2011-09-06T11:09:16Z</time>
      </trkpt>
      <trkpt lat="45.64403" lon="6.5595">
        <ele>2095</ele>
        <time>2011-09-06T11:09:26Z</time>
      </trkpt>
      <trkpt lat="45.64398" lon="6.55943">
        <ele>2098</ele>
        <time>2011-09-06T11:09:39Z</time>
      </trkpt>
      <trkpt lat="45.64392" lon="6.55939">
        <ele>2100</ele>
        <time>2011-09-06T11:09:49Z</time>
      </trkpt>
      <trkpt lat="45.64387" lon="6.55938">
        <ele>2102</ele>
        <time>2011-09-06T11:09:59Z</time>
      </trkpt>
      <trkpt lat="45.64383" lon="6.55934">
        <ele>2104</ele>
        <time>2011-09-06T11:10:09Z</time>
      </trkpt>
      <trkpt lat="45.64381" lon="6.55929">
        <ele>2105</ele>
        <time>2011-09-06T11:10:19Z</time>
      </trkpt>
      <trkpt lat="45.64377" lon="6.55926">
        <ele>2108</ele>
        <time>2011-09-06T11:10:30Z</time>
      </trkpt>
      <trkpt lat="45.64371" lon="6.55924">
        <ele>2109</ele>
        <time>2011-09-06T11:11:20Z</time>
      </trkpt>
      <trkpt lat="45.6437" lon="6.55923">
        <ele>2109</ele>
        <time>2011-09-06T11:12:56Z</time>
      </trkpt>
      <trkpt lat="45.6437" lon="6.55918">
        <ele>2110</ele>
        <time>2011-09-06T11:14:41Z</time>
      </trkpt>
      <trkpt lat="45.64367" lon="6.55912">
        <ele>2110</ele>
        <time>2011-09-06T11:14:50Z</time>
      </trkpt>
      <trkpt lat="45.64359" lon="6.55904">
        <ele>2112</ele>
        <time>2011-09-06T11:15:03Z</time>
      </trkpt>
      <trkpt lat="45.64351" lon="6.55899">
        <ele>2114</ele>
        <time>2011-09-06T11:15:13Z</time>
      </trkpt>
      <trkpt lat="45.64341" lon="6.55895">
        <ele>2116</ele>
        <time>2011-09-06T11:15:25Z</time>
      </trkpt>
      <trkpt lat="45.64332" lon="6.55884">
        <ele>2116</ele>
        <time>2011-09-06T11:15:36Z</time>
      </trkpt>
      <trkpt lat="45.64327" lon="6.55876">
        <ele>2116</ele>
        <time>2011-09-06T11:15:45Z</time>
      </trkpt>
      <trkpt lat="45.6432" lon="6.55873">
        <ele>2119</ele>
        <time>2011-09-06T11:15:55Z</time>
      </trkpt>
      <trkpt lat="45.64316" lon="6.55864">
        <ele>2120</ele>
        <time>2011-09-06T11:16:05Z</time>
      </trkpt>
      <trkpt lat="45.64314" lon="6.55854">
        <ele>2121</ele>
        <time>2011-09-06T11:16:14Z</time>
      </trkpt>
      <trkpt lat="45.64309" lon="6.55843">
        <ele>2123</ele>
        <time>2011-09-06T11:16:25Z</time>
      </trkpt>
      <trkpt lat="45.64304" lon="6.55834">
        <ele>2124</ele>
        <time>2011-09-06T11:16:34Z</time>
      </trkpt>
      <trkpt lat="45.64297" lon="6.55824">
        <ele>2125</ele>
        <time>2011-09-06T11:16:46Z</time>
      </trkpt>
      <trkpt lat="45.64291" lon="6.55811">
        <ele>2125</ele>
        <time>2011-09-06T11:16:58Z</time>
      </trkpt>
      <trkpt lat="45.64289" lon="6.558">
        <ele>2127</ele>
        <time>2011-09-06T11:17:09Z</time>
      </trkpt>
      <trkpt lat="45.64287" lon="6.55789">
        <ele>2129</ele>
        <time>2011-09-06T11:17:21Z</time>
      </trkpt>
      <trkpt lat="45.64288" lon="6.55788">
        <ele>2130</ele>
        <time>2011-09-06T11:17:23Z</time>
      </trkpt>
      <trkpt lat="45.64286" lon="6.55778">
        <ele>2132</ele>
        <time>2011-09-06T11:17:34Z</time>
      </trkpt>
      <trkpt lat="45.64284" lon="6.55771">
        <ele>2133</ele>
        <time>2011-09-06T11:17:42Z</time>
      </trkpt>
      <trkpt lat="45.64283" lon="6.55764">
        <ele>2135</ele>
        <time>2011-09-06T11:17:51Z</time>
      </trkpt>
      <trkpt lat="45.64282" lon="6.55756">
        <ele>2135</ele>
        <time>2011-09-06T11:18:01Z</time>
      </trkpt>
      <trkpt lat="45.64281" lon="6.55749">
        <ele>2138</ele>
        <time>2011-09-06T11:18:10Z</time>
      </trkpt>
      <trkpt lat="45.64278" lon="6.55742">
        <ele>2139</ele>
        <time>2011-09-06T11:18:19Z</time>
      </trkpt>
      <trkpt lat="45.64277" lon="6.55736">
        <ele>2140</ele>
        <time>2011-09-06T11:18:28Z</time>
      </trkpt>
      <trkpt lat="45.64277" lon="6.5573">
        <ele>2142</ele>
        <time>2011-09-06T11:18:37Z</time>
      </trkpt>
      <trkpt lat="45.64276" lon="6.55724">
        <ele>2143</ele>
        <time>2011-09-06T11:18:46Z</time>
      </trkpt>
      <trkpt lat="45.64275" lon="6.55717">
        <ele>2144</ele>
        <time>2011-09-06T11:18:54Z</time>
      </trkpt>
      <trkpt lat="45.64274" lon="6.55712">
        <ele>2145</ele>
        <time>2011-09-06T11:19:03Z</time>
      </trkpt>
      <trkpt lat="45.64273" lon="6.55705">
        <ele>2147</ele>
        <time>2011-09-06T11:19:12Z</time>
      </trkpt>
      <trkpt lat="45.64271" lon="6.55696">
        <ele>2149</ele>
        <time>2011-09-06T11:19:22Z</time>
      </trkpt>
      <trkpt lat="45.64271" lon="6.55689">
        <ele>2151</ele>
        <time>2011-09-06T11:19:31Z</time>
      </trkpt>
      <trkpt lat="45.64269" lon="6.55682">
        <ele>2151</ele>
        <time>2011-09-06T11:19:38Z</time>
      </trkpt>
      <trkpt lat="45.64265" lon="6.5567">
        <ele>2152</ele>
        <time>2011-09-06T11:19:48Z</time>
      </trkpt>
      <trkpt lat="45.64263" lon="6.55667">
        <ele>2152</ele>
        <time>2011-09-06T11:19:51Z</time>
      </trkpt>
      <trkpt lat="45.64257" lon="6.55659">
        <ele>2153</ele>
        <time>2011-09-06T11:20:00Z</time>
      </trkpt>
      <trkpt lat="45.64255" lon="6.55648">
        <ele>2153</ele>
        <time>2011-09-06T11:20:10Z</time>
      </trkpt>
      <trkpt lat="45.64252" lon="6.5564">
        <ele>2153</ele>
        <time>2011-09-06T11:20:18Z</time>
      </trkpt>
      <trkpt lat="45.64246" lon="6.55626">
        <ele>2153</ele>
        <time>2011-09-06T11:20:29Z</time>
      </trkpt>
      <trkpt lat="45.6424" lon="6.55613">
        <ele>2155</ele>
        <time>2011-09-06T11:20:41Z</time>
      </trkpt>
      <trkpt lat="45.64233" lon="6.55601">
        <ele>2156</ele>
        <time>2011-09-06T11:20:53Z</time>
      </trkpt>
      <trkpt lat="45.64227" lon="6.55595">
        <ele>2158</ele>
        <time>2011-09-06T11:21:03Z</time>
      </trkpt>
      <trkpt lat="45.64221" lon="6.55584">
        <ele>2160</ele>
        <time>2011-09-06T11:21:16Z</time>
      </trkpt>
      <trkpt lat="45.64216" lon="6.55576">
        <ele>2161</ele>
        <time>2011-09-06T11:21:26Z</time>
      </trkpt>
      <trkpt lat="45.6421" lon="6.55567">
        <ele>2163</ele>
        <time>2011-09-06T11:21:38Z</time>
      </trkpt>
      <trkpt lat="45.64211" lon="6.55558">
        <ele>2165</ele>
        <time>2011-09-06T11:21:49Z</time>
      </trkpt>
      <trkpt lat="45.6421" lon="6.55551">
        <ele>2165</ele>
        <time>2011-09-06T11:22:00Z</time>
      </trkpt>
      <trkpt lat="45.6421" lon="6.55543">
        <ele>2168</ele>
        <time>2011-09-06T11:22:12Z</time>
      </trkpt>
      <trkpt lat="45.64209" lon="6.55536">
        <ele>2170</ele>
        <time>2011-09-06T11:22:22Z</time>
      </trkpt>
      <trkpt lat="45.64204" lon="6.5553">
        <ele>2172</ele>
        <time>2011-09-06T11:22:32Z</time>
      </trkpt>
      <trkpt lat="45.64201" lon="6.55522">
        <ele>2174</ele>
        <time>2011-09-06T11:22:43Z</time>
      </trkpt>
      <trkpt lat="45.64196" lon="6.55513">
        <ele>2175</ele>
        <time>2011-09-06T11:22:54Z</time>
      </trkpt>
      <trkpt lat="45.64194" lon="6.55508">
        <ele>2177</ele>
        <time>2011-09-06T11:23:03Z</time>
      </trkpt>
      <trkpt lat="45.64192" lon="6.55502">
        <ele>2179</ele>
        <time>2011-09-06T11:23:11Z</time>
      </trkpt>
      <trkpt lat="45.6419" lon="6.55497">
        <ele>2180</ele>
        <time>2011-09-06T11:23:20Z</time>
      </trkpt>
      <trkpt lat="45.6419" lon="6.55492">
        <ele>2181</ele>
        <time>2011-09-06T11:23:28Z</time>
      </trkpt>
      <trkpt lat="45.6419" lon="6.55488">
        <ele>2183</ele>
        <time>2011-09-06T11:23:36Z</time>
      </trkpt>
      <trkpt lat="45.64192" lon="6.55485">
        <ele>2184</ele>
        <time>2011-09-06T11:23:45Z</time>
      </trkpt>
      <trkpt lat="45.64191" lon="6.55482">
        <ele>2186</ele>
        <time>2011-09-06T11:23:53Z</time>
      </trkpt>
      <trkpt lat="45.6419" lon="6.55478">
        <ele>2187</ele>
        <time>2011-09-06T11:24:00Z</time>
      </trkpt>
      <trkpt lat="45.64188" lon="6.55471">
        <ele>2189</ele>
        <time>2011-09-06T11:24:10Z</time>
      </trkpt>
      <trkpt lat="45.64184" lon="6.55466">
        <ele>2191</ele>
        <time>2011-09-06T11:24:20Z</time>
      </trkpt>
      <trkpt lat="45.64181" lon="6.55459">
        <ele>2192</ele>
        <time>2011-09-06T11:24:30Z</time>
      </trkpt>
      <trkpt lat="45.64175" lon="6.55454">
        <ele>2194</ele>
        <time>2011-09-06T11:24:43Z</time>
      </trkpt>
      <trkpt lat="45.64173" lon="6.55449">
        <ele>2197</ele>
        <time>2011-09-06T11:24:52Z</time>
      </trkpt>
      <trkpt lat="45.6417" lon="6.55443">
        <ele>2198</ele>
        <time>2011-09-06T11:25:02Z</time>
      </trkpt>
      <trkpt lat="45.64167" lon="6.55438">
        <ele>2200</ele>
        <time>2011-09-06T11:25:12Z</time>
      </trkpt>
      <trkpt lat="45.64164" lon="6.55434">
        <ele>2200</ele>
        <time>2011-09-06T11:25:20Z</time>
      </trkpt>
      <trkpt lat="45.64163" lon="6.55428">
        <ele>2202</ele>
        <time>2011-09-06T11:25:30Z</time>
      </trkpt>
      <trkpt lat="45.64163" lon="6.55425">
        <ele>2203</ele>
        <time>2011-09-06T11:25:40Z</time>
      </trkpt>
      <trkpt lat="45.64165" lon="6.55421">
        <ele>2204</ele>
        <time>2011-09-06T11:25:47Z</time>
      </trkpt>
      <trkpt lat="45.64165" lon="6.55417">
        <ele>2205</ele>
        <time>2011-09-06T11:25:55Z</time>
      </trkpt>
      <trkpt lat="45.64164" lon="6.55415">
        <ele>2205</ele>
        <time>2011-09-06T11:26:03Z</time>
      </trkpt>
      <trkpt lat="45.64161" lon="6.55409">
        <ele>2207</ele>
        <time>2011-09-06T11:26:12Z</time>
      </trkpt>
      <trkpt lat="45.6416" lon="6.55404">
        <ele>2208</ele>
        <time>2011-09-06T11:26:22Z</time>
      </trkpt>
      <trkpt lat="45.64155" lon="6.55395">
        <ele>2210</ele>
        <time>2011-09-06T11:26:31Z</time>
      </trkpt>
      <trkpt lat="45.64152" lon="6.5539">
        <ele>2212</ele>
        <time>2011-09-06T11:26:40Z</time>
      </trkpt>
      <trkpt lat="45.64152" lon="6.55385">
        <ele>2214</ele>
        <time>2011-09-06T11:26:47Z</time>
      </trkpt>
      <trkpt lat="45.6415" lon="6.55379">
        <ele>2215</ele>
        <time>2011-09-06T11:26:55Z</time>
      </trkpt>
      <trkpt lat="45.64148" lon="6.55375">
        <ele>2216</ele>
        <time>2011-09-06T11:27:03Z</time>
      </trkpt>
      <trkpt lat="45.64146" lon="6.55371">
        <ele>2216</ele>
        <time>2011-09-06T11:27:11Z</time>
      </trkpt>
      <trkpt lat="45.64143" lon="6.55367">
        <ele>2217</ele>
        <time>2011-09-06T11:27:19Z</time>
      </trkpt>
      <trkpt lat="45.64143" lon="6.55363">
        <ele>2219</ele>
        <time>2011-09-06T11:27:26Z</time>
      </trkpt>
      <trkpt lat="45.64141" lon="6.55357">
        <ele>2219</ele>
        <time>2011-09-06T11:27:33Z</time>
      </trkpt>
      <trkpt lat="45.64137" lon="6.55349">
        <ele>2220</ele>
        <time>2011-09-06T11:27:43Z</time>
      </trkpt>
      <trkpt lat="45.64136" lon="6.55342">
        <ele>2223</ele>
        <time>2011-09-06T11:27:53Z</time>
      </trkpt>
      <trkpt lat="45.64135" lon="6.55336">
        <ele>2224</ele>
        <time>2011-09-06T11:28:02Z</time>
      </trkpt>
      <trkpt lat="45.64133" lon="6.55331">
        <ele>2225</ele>
        <time>2011-09-06T11:28:09Z</time>
      </trkpt>
      <trkpt lat="45.6413" lon="6.55327">
        <ele>2227</ele>
        <time>2011-09-06T11:28:15Z</time>
      </trkpt>
      <trkpt lat="45.64126" lon="6.55324">
        <ele>2228</ele>
        <time>2011-09-06T11:28:22Z</time>
      </trkpt>
      <trkpt lat="45.64123" lon="6.55321">
        <ele>2231</ele>
        <time>2011-09-06T11:28:31Z</time>
      </trkpt>
      <trkpt lat="45.64121" lon="6.55316">
        <ele>2232</ele>
        <time>2011-09-06T11:28:39Z</time>
      </trkpt>
      <trkpt lat="45.64119" lon="6.55311">
        <ele>2234</ele>
        <time>2011-09-06T11:28:48Z</time>
      </trkpt>
      <trkpt lat="45.64118" lon="6.55305">
        <ele>2235</ele>
        <time>2011-09-06T11:28:57Z</time>
      </trkpt>
      <trkpt lat="45.64119" lon="6.553">
        <ele>2237</ele>
        <time>2011-09-06T11:29:06Z</time>
      </trkpt>
      <trkpt lat="45.64118" lon="6.55293">
        <ele>2240</ele>
        <time>2011-09-06T11:29:15Z</time>
      </trkpt>
      <trkpt lat="45.64115" lon="6.55287">
        <ele>2240</ele>
        <time>2011-09-06T11:29:23Z</time>
      </trkpt>
      <trkpt lat="45.64113" lon="6.5528">
        <ele>2242</ele>
        <time>2011-09-06T11:29:33Z</time>
      </trkpt>
      <trkpt lat="45.64111" lon="6.55273">
        <ele>2243</ele>
        <time>2011-09-06T11:29:43Z</time>
      </trkpt>
      <trkpt lat="45.64111" lon="6.55269">
        <ele>2245</ele>
        <time>2011-09-06T11:29:50Z</time>
      </trkpt>
      <trkpt lat="45.64112" lon="6.55262">
        <ele>2247</ele>
        <time>2011-09-06T11:29:59Z</time>
      </trkpt>
      <trkpt lat="45.64105" lon="6.55254">
        <ele>2249</ele>
        <time>2011-09-06T11:30:11Z</time>
      </trkpt>
      <trkpt lat="45.64101" lon="6.55249">
        <ele>2251</ele>
        <time>2011-09-06T11:30:21Z</time>
      </trkpt>
      <trkpt lat="45.64096" lon="6.55247">
        <ele>2252</ele>
        <time>2011-09-06T11:30:27Z</time>
      </trkpt>
      <trkpt lat="45.64095" lon="6.55244">
        <ele>2253</ele>
        <time>2011-09-06T11:30:35Z</time>
      </trkpt>
      <trkpt lat="45.64087" lon="6.55241">
        <ele>2254</ele>
        <time>2011-09-06T11:30:43Z</time>
      </trkpt>
      <trkpt lat="45.64085" lon="6.55234">
        <ele>2256</ele>
        <time>2011-09-06T11:30:54Z</time>
      </trkpt>
      <trkpt lat="45.64084" lon="6.55226">
        <ele>2259</ele>
        <time>2011-09-06T11:31:04Z</time>
      </trkpt>
      <trkpt lat="45.64084" lon="6.55221">
        <ele>2262</ele>
        <time>2011-09-06T11:31:12Z</time>
      </trkpt>
      <trkpt lat="45.64082" lon="6.55215">
        <ele>2262</ele>
        <time>2011-09-06T11:31:20Z</time>
      </trkpt>
      <trkpt lat="45.64081" lon="6.55211">
        <ele>2264</ele>
        <time>2011-09-06T11:31:28Z</time>
      </trkpt>
      <trkpt lat="45.64081" lon="6.55207">
        <ele>2265</ele>
        <time>2011-09-06T11:31:35Z</time>
      </trkpt>
      <trkpt lat="45.64078" lon="6.552">
        <ele>2267</ele>
        <time>2011-09-06T11:31:45Z</time>
      </trkpt>
      <trkpt lat="45.6408" lon="6.55191">
        <ele>2269</ele>
        <time>2011-09-06T11:31:55Z</time>
      </trkpt>
      <trkpt lat="45.6408" lon="6.55186">
        <ele>2270</ele>
        <time>2011-09-06T11:32:03Z</time>
      </trkpt>
      <trkpt lat="45.64077" lon="6.55182">
        <ele>2273</ele>
        <time>2011-09-06T11:32:12Z</time>
      </trkpt>
      <trkpt lat="45.64077" lon="6.55177">
        <ele>2275</ele>
        <time>2011-09-06T11:32:21Z</time>
      </trkpt>
      <trkpt lat="45.64077" lon="6.5517">
        <ele>2276</ele>
        <time>2011-09-06T11:32:29Z</time>
      </trkpt>
      <trkpt lat="45.64072" lon="6.55163">
        <ele>2278</ele>
        <time>2011-09-06T11:32:39Z</time>
      </trkpt>
      <trkpt lat="45.64067" lon="6.55154">
        <ele>2281</ele>
        <time>2011-09-06T11:32:49Z</time>
      </trkpt>
      <trkpt lat="45.64065" lon="6.55144">
        <ele>2283</ele>
        <time>2011-09-06T11:32:59Z</time>
      </trkpt>
      <trkpt lat="45.6406" lon="6.55137">
        <ele>2286</ele>
        <time>2011-09-06T11:33:09Z</time>
      </trkpt>
      <trkpt lat="45.64055" lon="6.5513">
        <ele>2289</ele>
        <time>2011-09-06T11:33:18Z</time>
      </trkpt>
      <trkpt lat="45.64051" lon="6.55121">
        <ele>2291</ele>
        <time>2011-09-06T11:33:27Z</time>
      </trkpt>
      <trkpt lat="45.64046" lon="6.55111">
        <ele>2294</ele>
        <time>2011-09-06T11:33:37Z</time>
      </trkpt>
      <trkpt lat="45.64039" lon="6.55099">
        <ele>2296</ele>
        <time>2011-09-06T11:33:50Z</time>
      </trkpt>
      <trkpt lat="45.64032" lon="6.55088">
        <ele>2298</ele>
        <time>2011-09-06T11:34:01Z</time>
      </trkpt>
      <trkpt lat="45.64023" lon="6.55079">
        <ele>2300</ele>
        <time>2011-09-06T11:34:12Z</time>
      </trkpt>
      <trkpt lat="45.64013" lon="6.55074">
        <ele>2303</ele>
        <time>2011-09-06T11:34:22Z</time>
      </trkpt>
      <trkpt lat="45.64004" lon="6.55068">
        <ele>2304</ele>
        <time>2011-09-06T11:34:32Z</time>
      </trkpt>
      <trkpt lat="45.63992" lon="6.55061">
        <ele>2306</ele>
        <time>2011-09-06T11:34:45Z</time>
      </trkpt>
      <trkpt lat="45.6398" lon="6.55055">
        <ele>2309</ele>
        <time>2011-09-06T11:34:56Z</time>
      </trkpt>
      <trkpt lat="45.63968" lon="6.55052">
        <ele>2313</ele>
        <time>2011-09-06T11:35:09Z</time>
      </trkpt>
      <trkpt lat="45.63961" lon="6.55051">
        <ele>2313</ele>
        <time>2011-09-06T11:35:16Z</time>
      </trkpt>
      <trkpt lat="45.63951" lon="6.55059">
        <ele>2315</ele>
        <time>2011-09-06T11:35:27Z</time>
      </trkpt>
      <trkpt lat="45.63943" lon="6.5507">
        <ele>2316</ele>
        <time>2011-09-06T11:35:37Z</time>
      </trkpt>
      <trkpt lat="45.63935" lon="6.55074">
        <ele>2318</ele>
        <time>2011-09-06T11:35:48Z</time>
      </trkpt>
      <trkpt lat="45.63929" lon="6.55066">
        <ele>2320</ele>
        <time>2011-09-06T11:35:58Z</time>
      </trkpt>
      <trkpt lat="45.63927" lon="6.55058">
        <ele>2322</ele>
        <time>2011-09-06T11:36:06Z</time>
      </trkpt>
      <trkpt lat="45.63924" lon="6.55053">
        <ele>2324</ele>
        <time>2011-09-06T11:36:14Z</time>
      </trkpt>
      <trkpt lat="45.63921" lon="6.5505">
        <ele>2326</ele>
        <time>2011-09-06T11:36:20Z</time>
      </trkpt>
      <trkpt lat="45.63918" lon="6.5504">
        <ele>2328</ele>
        <time>2011-09-06T11:36:31Z</time>
      </trkpt>
      <trkpt lat="45.63913" lon="6.55039">
        <ele>2331</ele>
        <time>2011-09-06T11:36:41Z</time>
      </trkpt>
      <trkpt lat="45.63907" lon="6.55038">
        <ele>2334</ele>
        <time>2011-09-06T11:36:50Z</time>
      </trkpt>
      <trkpt lat="45.639" lon="6.55037">
        <ele>2336</ele>
        <time>2011-09-06T11:37:00Z</time>
      </trkpt>
      <trkpt lat="45.63889" lon="6.55037">
        <ele>2338</ele>
        <time>2011-09-06T11:37:12Z</time>
      </trkpt>
      <trkpt lat="45.63882" lon="6.55029">
        <ele>2340</ele>
        <time>2011-09-06T11:37:22Z</time>
      </trkpt>
      <trkpt lat="45.63874" lon="6.55026">
        <ele>2342</ele>
        <time>2011-09-06T11:37:32Z</time>
      </trkpt>
      <trkpt lat="45.63866" lon="6.55024">
        <ele>2343</ele>
        <time>2011-09-06T11:37:42Z</time>
      </trkpt>
      <trkpt lat="45.63863" lon="6.55024">
        <ele>2343</ele>
        <time>2011-09-06T11:37:52Z</time>
      </trkpt>
      <trkpt lat="45.63859" lon="6.55025">
        <ele>2347</ele>
        <time>2011-09-06T11:45:49Z</time>
      </trkpt>
      <trkpt lat="45.63853" lon="6.55026">
        <ele>2346</ele>
        <time>2011-09-06T11:45:58Z</time>
      </trkpt>
      <trkpt lat="45.63848" lon="6.55027">
        <ele>2346</ele>
        <time>2011-09-06T11:46:07Z</time>
      </trkpt>
      <trkpt lat="45.63842" lon="6.55031">
        <ele>2347</ele>
        <time>2011-09-06T11:55:38Z</time>
      </trkpt>
      <trkpt lat="45.63829" lon="6.55038">
        <ele>2348</ele>
        <time>2011-09-06T11:55:52Z</time>
      </trkpt>
      <trkpt lat="45.63828" lon="6.5504">
        <ele>2349</ele>
        <time>2011-09-06T11:55:55Z</time>
      </trkpt>
      <trkpt lat="45.63817" lon="6.55052">
        <ele>2349</ele>
        <time>2011-09-06T11:56:09Z</time>
      </trkpt>
      <trkpt lat="45.63811" lon="6.55062">
        <ele>2350</ele>
        <time>2011-09-06T11:56:20Z</time>
      </trkpt>
      <trkpt lat="45.63803" lon="6.55069">
        <ele>2352</ele>
        <time>2011-09-06T11:56:32Z</time>
      </trkpt>
      <trkpt lat="45.63793" lon="6.55076">
        <ele>2352</ele>
        <time>2011-09-06T11:56:44Z</time>
      </trkpt>
      <trkpt lat="45.63785" lon="6.55081">
        <ele>2352</ele>
        <time>2011-09-06T11:56:54Z</time>
      </trkpt>
      <trkpt lat="45.63777" lon="6.55088">
        <ele>2354</ele>
        <time>2011-09-06T11:57:05Z</time>
      </trkpt>
      <trkpt lat="45.6377" lon="6.55098">
        <ele>2354</ele>
        <time>2011-09-06T11:57:16Z</time>
      </trkpt>
      <trkpt lat="45.6376" lon="6.55106">
        <ele>2355</ele>
        <time>2011-09-06T11:57:27Z</time>
      </trkpt>
      <trkpt lat="45.6375" lon="6.55112">
        <ele>2356</ele>
        <time>2011-09-06T11:57:38Z</time>
      </trkpt>
      <trkpt lat="45.63742" lon="6.55112">
        <ele>2357</ele>
        <time>2011-09-06T11:57:47Z</time>
      </trkpt>
      <trkpt lat="45.63734" lon="6.55109">
        <ele>2358</ele>
        <time>2011-09-06T11:57:57Z</time>
      </trkpt>
      <trkpt lat="45.63731" lon="6.55107">
        <ele>2359</ele>
        <time>2011-09-06T11:58:01Z</time>
      </trkpt>
      <trkpt lat="45.63721" lon="6.551">
        <ele>2359</ele>
        <time>2011-09-06T11:58:12Z</time>
      </trkpt>
      <trkpt lat="45.63719" lon="6.55099">
        <ele>2359</ele>
        <time>2011-09-06T11:58:14Z</time>
      </trkpt>
      <trkpt lat="45.63713" lon="6.5509">
        <ele>2359</ele>
        <time>2011-09-06T11:58:23Z</time>
      </trkpt>
      <trkpt lat="45.63704" lon="6.5508">
        <ele>2360</ele>
        <time>2011-09-06T11:58:34Z</time>
      </trkpt>
      <trkpt lat="45.63702" lon="6.55078">
        <ele>2362</ele>
        <time>2011-09-06T11:58:37Z</time>
      </trkpt>
      <trkpt lat="45.63695" lon="6.55071">
        <ele>2363</ele>
        <time>2011-09-06T11:58:48Z</time>
      </trkpt>
      <trkpt lat="45.63688" lon="6.5507">
        <ele>2365</ele>
        <time>2011-09-06T11:58:57Z</time>
      </trkpt>
      <trkpt lat="45.63681" lon="6.55075">
        <ele>2367</ele>
        <time>2011-09-06T11:59:07Z</time>
      </trkpt>
      <trkpt lat="45.63675" lon="6.55079">
        <ele>2369</ele>
        <time>2011-09-06T11:59:17Z</time>
      </trkpt>
      <trkpt lat="45.6367" lon="6.55084">
        <ele>2371</ele>
        <time>2011-09-06T11:59:26Z</time>
      </trkpt>
      <trkpt lat="45.63665" lon="6.55084">
        <ele>2371</ele>
        <time>2011-09-06T11:59:36Z</time>
      </trkpt>
      <trkpt lat="45.63662" lon="6.55083">
        <ele>2373</ele>
        <time>2011-09-06T11:59:43Z</time>
      </trkpt>
      <trkpt lat="45.63656" lon="6.55082">
        <ele>2374</ele>
        <time>2011-09-06T11:59:53Z</time>
      </trkpt>
      <trkpt lat="45.6365" lon="6.5508">
        <ele>2376</ele>
        <time>2011-09-06T12:00:01Z</time>
      </trkpt>
      <trkpt lat="45.63643" lon="6.55076">
        <ele>2377</ele>
        <time>2011-09-06T12:00:11Z</time>
      </trkpt>
      <trkpt lat="45.63641" lon="6.55071">
        <ele>2377</ele>
        <time>2011-09-06T12:00:18Z</time>
      </trkpt>
      <trkpt lat="45.6364" lon="6.55067">
        <ele>2377</ele>
        <time>2011-09-06T12:00:25Z</time>
      </trkpt>
      <trkpt lat="45.63637" lon="6.55061">
        <ele>2379</ele>
        <time>2011-09-06T12:00:34Z</time>
      </trkpt>
      <trkpt lat="45.63632" lon="6.55056">
        <ele>2381</ele>
        <time>2011-09-06T12:00:45Z</time>
      </trkpt>
      <trkpt lat="45.63627" lon="6.55054">
        <ele>2382</ele>
        <time>2011-09-06T12:00:55Z</time>
      </trkpt>
      <trkpt lat="45.63625" lon="6.55052">
        <ele>2384</ele>
        <time>2011-09-06T12:01:03Z</time>
      </trkpt>
      <trkpt lat="45.6362" lon="6.55052">
        <ele>2385</ele>
        <time>2011-09-06T12:01:12Z</time>
      </trkpt>
      <trkpt lat="45.63615" lon="6.55055">
        <ele>2387</ele>
        <time>2011-09-06T12:01:21Z</time>
      </trkpt>
      <trkpt lat="45.63611" lon="6.55053">
        <ele>2389</ele>
        <time>2011-09-06T12:01:29Z</time>
      </trkpt>
      <trkpt lat="45.63607" lon="6.55052">
        <ele>2391</ele>
        <time>2011-09-06T12:01:39Z</time>
      </trkpt>
      <trkpt lat="45.63603" lon="6.55048">
        <ele>2392</ele>
        <time>2011-09-06T12:01:47Z</time>
      </trkpt>
      <trkpt lat="45.63598" lon="6.55048">
        <ele>2393</ele>
        <time>2011-09-06T12:01:56Z</time>
      </trkpt>
      <trkpt lat="45.63586" lon="6.55044">
        <ele>2391</ele>
        <time>2011-09-06T12:02:11Z</time>
      </trkpt>
      <trkpt lat="45.63578" lon="6.55044">
        <ele>2391</ele>
        <time>2011-09-06T12:02:20Z</time>
      </trkpt>
      <trkpt lat="45.63576" lon="6.55044">
        <ele>2391</ele>
        <time>2011-09-06T12:02:22Z</time>
      </trkpt>
      <trkpt lat="45.63567" lon="6.55039">
        <ele>2391</ele>
        <time>2011-09-06T12:02:33Z</time>
      </trkpt>
      <trkpt lat="45.63563" lon="6.55033">
        <ele>2391</ele>
        <time>2011-09-06T12:02:41Z</time>
      </trkpt>
      <trkpt lat="45.63557" lon="6.55028">
        <ele>2392</ele>
        <time>2011-09-06T12:02:50Z</time>
      </trkpt>
      <trkpt lat="45.63553" lon="6.55024">
        <ele>2393</ele>
        <time>2011-09-06T12:02:59Z</time>
      </trkpt>
      <trkpt lat="45.63549" lon="6.55019">
        <ele>2395</ele>
        <time>2011-09-06T12:03:07Z</time>
      </trkpt>
      <trkpt lat="45.63543" lon="6.55014">
        <ele>2396</ele>
        <time>2011-09-06T12:03:17Z</time>
      </trkpt>
      <trkpt lat="45.63536" lon="6.55014">
        <ele>2396</ele>
        <time>2011-09-06T12:03:26Z</time>
      </trkpt>
      <trkpt lat="45.63533" lon="6.5501">
        <ele>2398</ele>
        <time>2011-09-06T12:03:34Z</time>
      </trkpt>
      <trkpt lat="45.63531" lon="6.55006">
        <ele>2398</ele>
        <time>2011-09-06T12:03:41Z</time>
      </trkpt>
      <trkpt lat="45.63527" lon="6.55001">
        <ele>2400</ele>
        <time>2011-09-06T12:03:50Z</time>
      </trkpt>
      <trkpt lat="45.63521" lon="6.54996">
        <ele>2401</ele>
        <time>2011-09-06T12:04:00Z</time>
      </trkpt>
      <trkpt lat="45.63515" lon="6.54993">
        <ele>2402</ele>
        <time>2011-09-06T12:04:09Z</time>
      </trkpt>
      <trkpt lat="45.63506" lon="6.54989">
        <ele>2402</ele>
        <time>2011-09-06T12:04:20Z</time>
      </trkpt>
      <trkpt lat="45.63499" lon="6.54986">
        <ele>2403</ele>
        <time>2011-09-06T12:04:29Z</time>
      </trkpt>
      <trkpt lat="45.63498" lon="6.5498">
        <ele>2404</ele>
        <time>2011-09-06T12:04:38Z</time>
      </trkpt>
      <trkpt lat="45.63502" lon="6.54975">
        <ele>2405</ele>
        <time>2011-09-06T12:04:47Z</time>
      </trkpt>
      <trkpt lat="45.63499" lon="6.54973">
        <ele>2407</ele>
        <time>2011-09-06T12:04:55Z</time>
      </trkpt>
      <trkpt lat="45.63498" lon="6.54971">
        <ele>2409</ele>
        <time>2011-09-06T12:05:02Z</time>
      </trkpt>
      <trkpt lat="45.63494" lon="6.54967">
        <ele>2410</ele>
        <time>2011-09-06T12:05:11Z</time>
      </trkpt>
      <trkpt lat="45.6349" lon="6.54963">
        <ele>2411</ele>
        <time>2011-09-06T12:05:19Z</time>
      </trkpt>
      <trkpt lat="45.63484" lon="6.54961">
        <ele>2412</ele>
        <time>2011-09-06T12:05:28Z</time>
      </trkpt>
      <trkpt lat="45.63478" lon="6.54959">
        <ele>2414</ele>
        <time>2011-09-06T12:05:38Z</time>
      </trkpt>
      <trkpt lat="45.63473" lon="6.54954">
        <ele>2414</ele>
        <time>2011-09-06T12:05:47Z</time>
      </trkpt>
      <trkpt lat="45.63465" lon="6.54948">
        <ele>2415</ele>
        <time>2011-09-06T12:05:57Z</time>
      </trkpt>
      <trkpt lat="45.63457" lon="6.54942">
        <ele>2415</ele>
        <time>2011-09-06T12:06:07Z</time>
      </trkpt>
      <trkpt lat="45.63451" lon="6.54934">
        <ele>2416</ele>
        <time>2011-09-06T12:06:17Z</time>
      </trkpt>
      <trkpt lat="45.63445" lon="6.54928">
        <ele>2418</ele>
        <time>2011-09-06T12:06:27Z</time>
      </trkpt>
      <trkpt lat="45.63438" lon="6.54922">
        <ele>2418</ele>
        <time>2011-09-06T12:06:36Z</time>
      </trkpt>
      <trkpt lat="45.63432" lon="6.54919">
        <ele>2418</ele>
        <time>2011-09-06T12:06:44Z</time>
      </trkpt>
      <trkpt lat="45.63425" lon="6.54914">
        <ele>2419</ele>
        <time>2011-09-06T12:06:54Z</time>
      </trkpt>
      <trkpt lat="45.63422" lon="6.54912">
        <ele>2419</ele>
        <time>2011-09-06T12:06:58Z</time>
      </trkpt>
      <trkpt lat="45.63416" lon="6.54903">
        <ele>2419</ele>
        <time>2011-09-06T12:07:08Z</time>
      </trkpt>
      <trkpt lat="45.63412" lon="6.54895">
        <ele>2419</ele>
        <time>2011-09-06T12:07:17Z</time>
      </trkpt>
      <trkpt lat="45.63405" lon="6.54886">
        <ele>2420</ele>
        <time>2011-09-06T12:07:28Z</time>
      </trkpt>
      <trkpt lat="45.63399" lon="6.5488">
        <ele>2421</ele>
        <time>2011-09-06T12:07:38Z</time>
      </trkpt>
      <trkpt lat="45.63395" lon="6.54875">
        <ele>2421</ele>
        <time>2011-09-06T12:07:46Z</time>
      </trkpt>
      <trkpt lat="45.63391" lon="6.54867">
        <ele>2422</ele>
        <time>2011-09-06T12:07:56Z</time>
      </trkpt>
      <trkpt lat="45.63391" lon="6.54863">
        <ele>2424</ele>
        <time>2011-09-06T12:08:03Z</time>
      </trkpt>
      <trkpt lat="45.63388" lon="6.54856">
        <ele>2425</ele>
        <time>2011-09-06T12:08:13Z</time>
      </trkpt>
      <trkpt lat="45.63384" lon="6.54851">
        <ele>2426</ele>
        <time>2011-09-06T12:08:24Z</time>
      </trkpt>
      <trkpt lat="45.63377" lon="6.54851">
        <ele>2427</ele>
        <time>2011-09-06T12:08:33Z</time>
      </trkpt>
      <trkpt lat="45.63373" lon="6.54849">
        <ele>2429</ele>
        <time>2011-09-06T12:08:42Z</time>
      </trkpt>
      <trkpt lat="45.63368" lon="6.54844">
        <ele>2430</ele>
        <time>2011-09-06T12:08:52Z</time>
      </trkpt>
      <trkpt lat="45.63363" lon="6.5484">
        <ele>2432</ele>
        <time>2011-09-06T12:09:02Z</time>
      </trkpt>
      <trkpt lat="45.63359" lon="6.54835">
        <ele>2435</ele>
        <time>2011-09-06T12:09:11Z</time>
      </trkpt>
      <trkpt lat="45.63352" lon="6.54826">
        <ele>2436</ele>
        <time>2011-09-06T12:09:22Z</time>
      </trkpt>
      <trkpt lat="45.63346" lon="6.54819">
        <ele>2436</ele>
        <time>2011-09-06T12:09:31Z</time>
      </trkpt>
      <trkpt lat="45.6334" lon="6.54812">
        <ele>2437</ele>
        <time>2011-09-06T12:09:40Z</time>
      </trkpt>
      <trkpt lat="45.63333" lon="6.5481">
        <ele>2438</ele>
        <time>2011-09-06T12:09:50Z</time>
      </trkpt>
      <trkpt lat="45.63329" lon="6.54806">
        <ele>2439</ele>
        <time>2011-09-06T12:10:00Z</time>
      </trkpt>
      <trkpt lat="45.63324" lon="6.54801">
        <ele>2440</ele>
        <time>2011-09-06T12:10:09Z</time>
      </trkpt>
      <trkpt lat="45.63318" lon="6.54796">
        <ele>2441</ele>
        <time>2011-09-06T12:10:19Z</time>
      </trkpt>
      <trkpt lat="45.63312" lon="6.5479">
        <ele>2443</ele>
        <time>2011-09-06T12:10:29Z</time>
      </trkpt>
      <trkpt lat="45.63305" lon="6.54788">
        <ele>2444</ele>
        <time>2011-09-06T12:10:39Z</time>
      </trkpt>
      <trkpt lat="45.63299" lon="6.54787">
        <ele>2445</ele>
        <time>2011-09-06T12:10:50Z</time>
      </trkpt>
      <trkpt lat="45.63298" lon="6.54787">
        <ele>2446</ele>
        <time>2011-09-06T12:10:54Z</time>
      </trkpt>
      <trkpt lat="45.63295" lon="6.54783">
        <ele>2448</ele>
        <time>2011-09-06T12:11:03Z</time>
      </trkpt>
      <trkpt lat="45.6329" lon="6.54781">
        <ele>2450</ele>
        <time>2011-09-06T12:11:13Z</time>
      </trkpt>
      <trkpt lat="45.63285" lon="6.54782">
        <ele>2451</ele>
        <time>2011-09-06T12:11:22Z</time>
      </trkpt>
      <trkpt lat="45.63281" lon="6.54779">
        <ele>2452</ele>
        <time>2011-09-06T12:11:31Z</time>
      </trkpt>
      <trkpt lat="45.63278" lon="6.54776">
        <ele>2454</ele>
        <time>2011-09-06T12:11:40Z</time>
      </trkpt>
      <trkpt lat="45.63275" lon="6.54773">
        <ele>2456</ele>
        <time>2011-09-06T12:11:49Z</time>
      </trkpt>
      <trkpt lat="45.63273" lon="6.54768">
        <ele>2457</ele>
        <time>2011-09-06T12:11:58Z</time>
      </trkpt>
      <trkpt lat="45.63269" lon="6.54761">
        <ele>2458</ele>
        <time>2011-09-06T12:12:08Z</time>
      </trkpt>
      <trkpt lat="45.63264" lon="6.54757">
        <ele>2459</ele>
        <time>2011-09-06T12:12:18Z</time>
      </trkpt>
      <trkpt lat="45.6326" lon="6.54754">
        <ele>2461</ele>
        <time>2011-09-06T12:12:27Z</time>
      </trkpt>
      <trkpt lat="45.63258" lon="6.5475">
        <ele>2462</ele>
        <time>2011-09-06T12:12:36Z</time>
      </trkpt>
      <trkpt lat="45.63253" lon="6.54744">
        <ele>2464</ele>
        <time>2011-09-06T12:12:45Z</time>
      </trkpt>
      <trkpt lat="45.6325" lon="6.54741">
        <ele>2465</ele>
        <time>2011-09-06T12:12:54Z</time>
      </trkpt>
      <trkpt lat="45.63247" lon="6.54737">
        <ele>2466</ele>
        <time>2011-09-06T12:13:03Z</time>
      </trkpt>
      <trkpt lat="45.63241" lon="6.54735">
        <ele>2467</ele>
        <time>2011-09-06T12:13:13Z</time>
      </trkpt>
      <trkpt lat="45.63234" lon="6.54733">
        <ele>2468</ele>
        <time>2011-09-06T12:13:23Z</time>
      </trkpt>
      <trkpt lat="45.63228" lon="6.5473">
        <ele>2470</ele>
        <time>2011-09-06T12:13:33Z</time>
      </trkpt>
      <trkpt lat="45.63223" lon="6.54727">
        <ele>2469</ele>
        <time>2011-09-06T12:13:42Z</time>
      </trkpt>
      <trkpt lat="45.63218" lon="6.54723">
        <ele>2470</ele>
        <time>2011-09-06T12:13:50Z</time>
      </trkpt>
      <trkpt lat="45.6321" lon="6.54723">
        <ele>2471</ele>
        <time>2011-09-06T12:14:00Z</time>
      </trkpt>
      <trkpt lat="45.63203" lon="6.54722">
        <ele>2470</ele>
        <time>2011-09-06T12:14:09Z</time>
      </trkpt>
      <trkpt lat="45.63199" lon="6.54721">
        <ele>2470</ele>
        <time>2011-09-06T12:14:16Z</time>
      </trkpt>
      <trkpt lat="45.63194" lon="6.54716">
        <ele>2469</ele>
        <time>2011-09-06T12:14:25Z</time>
      </trkpt>
      <trkpt lat="45.63191" lon="6.54709">
        <ele>2471</ele>
        <time>2011-09-06T12:14:35Z</time>
      </trkpt>
      <trkpt lat="45.63188" lon="6.54703">
        <ele>2472</ele>
        <time>2011-09-06T12:14:44Z</time>
      </trkpt>
      <trkpt lat="45.63184" lon="6.54701">
        <ele>2473</ele>
        <time>2011-09-06T12:14:52Z</time>
      </trkpt>
      <trkpt lat="45.63183" lon="6.54696">
        <ele>2475</ele>
        <time>2011-09-06T12:15:02Z</time>
      </trkpt>
      <trkpt lat="45.6318" lon="6.54691">
        <ele>2477</ele>
        <time>2011-09-06T12:15:09Z</time>
      </trkpt>
      <trkpt lat="45.63175" lon="6.54689">
        <ele>2476</ele>
        <time>2011-09-06T12:15:17Z</time>
      </trkpt>
      <trkpt lat="45.63168" lon="6.54683">
        <ele>2476</ele>
        <time>2011-09-06T12:15:28Z</time>
      </trkpt>
      <trkpt lat="45.63163" lon="6.54682">
        <ele>2475</ele>
        <time>2011-09-06T12:15:35Z</time>
      </trkpt>
      <trkpt lat="45.63158" lon="6.54679">
        <ele>2476</ele>
        <time>2011-09-06T12:15:43Z</time>
      </trkpt>
      <trkpt lat="45.63155" lon="6.54678">
        <ele>2477</ele>
        <time>2011-09-06T12:15:50Z</time>
      </trkpt>
      <trkpt lat="45.63153" lon="6.54676">
        <ele>2478</ele>
        <time>2011-09-06T12:15:57Z</time>
      </trkpt>
      <trkpt lat="45.63154" lon="6.54673">
        <ele>2479</ele>
        <time>2011-09-06T12:16:05Z</time>
      </trkpt>
      <trkpt lat="45.63151" lon="6.54669">
        <ele>2480</ele>
        <time>2011-09-06T12:16:13Z</time>
      </trkpt>
      <trkpt lat="45.63148" lon="6.54667">
        <ele>2481</ele>
        <time>2011-09-06T12:16:21Z</time>
      </trkpt>
      <trkpt lat="45.63144" lon="6.54659">
        <ele>2483</ele>
        <time>2011-09-06T12:16:30Z</time>
      </trkpt>
      <trkpt lat="45.63137" lon="6.54656">
        <ele>2484</ele>
        <time>2011-09-06T12:16:41Z</time>
      </trkpt>
      <trkpt lat="45.63134" lon="6.54654">
        <ele>2485</ele>
        <time>2011-09-06T12:16:50Z</time>
      </trkpt>
      <trkpt lat="45.63132" lon="6.54651">
        <ele>2487</ele>
        <time>2011-09-06T12:16:58Z</time>
      </trkpt>
      <trkpt lat="45.63129" lon="6.54645">
        <ele>2489</ele>
        <time>2011-09-06T12:17:07Z</time>
      </trkpt>
      <trkpt lat="45.63126" lon="6.54639">
        <ele>2489</ele>
        <time>2011-09-06T12:17:15Z</time>
      </trkpt>
      <trkpt lat="45.63122" lon="6.54633">
        <ele>2491</ele>
        <time>2011-09-06T12:17:26Z</time>
      </trkpt>
      <trkpt lat="45.63116" lon="6.54626">
        <ele>2492</ele>
        <time>2011-09-06T12:17:36Z</time>
      </trkpt>
      <trkpt lat="45.63112" lon="6.54618">
        <ele>2493</ele>
        <time>2011-09-06T12:17:45Z</time>
      </trkpt>
      <trkpt lat="45.63107" lon="6.54611">
        <ele>2493</ele>
        <time>2011-09-06T12:17:55Z</time>
      </trkpt>
      <trkpt lat="45.631" lon="6.5461">
        <ele>2492</ele>
        <time>2011-09-06T12:18:04Z</time>
      </trkpt>
      <trkpt lat="45.63099" lon="6.54608">
        <ele>2491</ele>
        <time>2011-09-06T12:18:06Z</time>
      </trkpt>
      <trkpt lat="45.63093" lon="6.54601">
        <ele>2490</ele>
        <time>2011-09-06T12:18:15Z</time>
      </trkpt>
      <trkpt lat="45.63088" lon="6.54593">
        <ele>2490</ele>
        <time>2011-09-06T12:18:23Z</time>
      </trkpt>
      <trkpt lat="45.63085" lon="6.5458">
        <ele>2491</ele>
        <time>2011-09-06T12:18:34Z</time>
      </trkpt>
      <trkpt lat="45.63085" lon="6.54571">
        <ele>2491</ele>
        <time>2011-09-06T12:18:44Z</time>
      </trkpt>
      <trkpt lat="45.63084" lon="6.54562">
        <ele>2492</ele>
        <time>2011-09-06T12:26:19Z</time>
      </trkpt>
      <trkpt lat="45.63082" lon="6.54555">
        <ele>2494</ele>
        <time>2011-09-06T12:26:32Z</time>
      </trkpt>
      <trkpt lat="45.63078" lon="6.54552">
        <ele>2496</ele>
        <time>2011-09-06T12:26:42Z</time>
      </trkpt>
      <trkpt lat="45.63074" lon="6.54551">
        <ele>2497</ele>
        <time>2011-09-06T12:26:50Z</time>
      </trkpt>
      <trkpt lat="45.63072" lon="6.54546">
        <ele>2499</ele>
        <time>2011-09-06T12:27:00Z</time>
      </trkpt>
      <trkpt lat="45.63071" lon="6.54542">
        <ele>2501</ele>
        <time>2011-09-06T12:27:08Z</time>
      </trkpt>
      <trkpt lat="45.63069" lon="6.5454">
        <ele>2502</ele>
        <time>2011-09-06T12:27:17Z</time>
      </trkpt>
      <trkpt lat="45.63066" lon="6.54537">
        <ele>2504</ele>
        <time>2011-09-06T12:27:27Z</time>
      </trkpt>
      <trkpt lat="45.63064" lon="6.54532">
        <ele>2505</ele>
        <time>2011-09-06T12:27:37Z</time>
      </trkpt>
      <trkpt lat="45.63062" lon="6.5453">
        <ele>2506</ele>
        <time>2011-09-06T12:27:46Z</time>
      </trkpt>
      <trkpt lat="45.6306" lon="6.54528">
        <ele>2508</ele>
        <time>2011-09-06T12:27:56Z</time>
      </trkpt>
      <trkpt lat="45.63059" lon="6.54527">
        <ele>2510</ele>
        <time>2011-09-06T12:28:04Z</time>
      </trkpt>
      <trkpt lat="45.63056" lon="6.54525">
        <ele>2510</ele>
        <time>2011-09-06T12:28:14Z</time>
      </trkpt>
      <trkpt lat="45.63055" lon="6.54521">
        <ele>2511</ele>
        <time>2011-09-06T12:28:24Z</time>
      </trkpt>
      <trkpt lat="45.63053" lon="6.54517">
        <ele>2514</ele>
        <time>2011-09-06T12:28:33Z</time>
      </trkpt>
      <trkpt lat="45.63053" lon="6.54514">
        <ele>2515</ele>
        <time>2011-09-06T12:28:42Z</time>
      </trkpt>
      <trkpt lat="45.63056" lon="6.54512">
        <ele>2517</ele>
        <time>2011-09-06T12:28:51Z</time>
      </trkpt>
      <trkpt lat="45.63057" lon="6.54508">
        <ele>2519</ele>
        <time>2011-09-06T12:29:00Z</time>
      </trkpt>
      <trkpt lat="45.63057" lon="6.54504">
        <ele>2521</ele>
        <time>2011-09-06T12:29:09Z</time>
      </trkpt>
      <trkpt lat="45.63061" lon="6.54503">
        <ele>2523</ele>
        <time>2011-09-06T12:29:17Z</time>
      </trkpt>
      <trkpt lat="45.63064" lon="6.54501">
        <ele>2524</ele>
        <time>2011-09-06T12:29:26Z</time>
      </trkpt>
      <trkpt lat="45.6307" lon="6.54499">
        <ele>2525</ele>
        <time>2011-09-06T12:29:35Z</time>
      </trkpt>
      <trkpt lat="45.63074" lon="6.54492">
        <ele>2526</ele>
        <time>2011-09-06T12:29:44Z</time>
      </trkpt>
      <trkpt lat="45.63075" lon="6.54484">
        <ele>2527</ele>
        <time>2011-09-06T12:29:54Z</time>
      </trkpt>
      <trkpt lat="45.63074" lon="6.54479">
        <ele>2529</ele>
        <time>2011-09-06T12:30:03Z</time>
      </trkpt>
      <trkpt lat="45.63076" lon="6.54475">
        <ele>2530</ele>
        <time>2011-09-06T12:30:11Z</time>
      </trkpt>
      <trkpt lat="45.63076" lon="6.5447">
        <ele>2530</ele>
        <time>2011-09-06T12:30:19Z</time>
      </trkpt>
      <trkpt lat="45.6308" lon="6.54466">
        <ele>2532</ele>
        <time>2011-09-06T12:30:28Z</time>
      </trkpt>
      <trkpt lat="45.63081" lon="6.54462">
        <ele>2534</ele>
        <time>2011-09-06T12:30:35Z</time>
      </trkpt>
      <trkpt lat="45.63079" lon="6.54459">
        <ele>2535</ele>
        <time>2011-09-06T12:30:44Z</time>
      </trkpt>
      <trkpt lat="45.63073" lon="6.54458">
        <ele>2537</ele>
        <time>2011-09-06T12:30:54Z</time>
      </trkpt>
      <trkpt lat="45.63068" lon="6.54458">
        <ele>2538</ele>
        <time>2011-09-06T12:31:03Z</time>
      </trkpt>
      <trkpt lat="45.63069" lon="6.54453">
        <ele>2539</ele>
        <time>2011-09-06T12:31:11Z</time>
      </trkpt>
      <trkpt lat="45.63069" lon="6.54448">
        <ele>2540</ele>
        <time>2011-09-06T12:31:21Z</time>
      </trkpt>
      <trkpt lat="45.63068" lon="6.54443">
        <ele>2541</ele>
        <time>2011-09-06T12:31:31Z</time>
      </trkpt>
      <trkpt lat="45.63067" lon="6.54435">
        <ele>2543</ele>
        <time>2011-09-06T12:31:40Z</time>
      </trkpt>
      <trkpt lat="45.63071" lon="6.5443">
        <ele>2543</ele>
        <time>2011-09-06T12:31:49Z</time>
      </trkpt>
      <trkpt lat="45.63074" lon="6.54426">
        <ele>2544</ele>
        <time>2011-09-06T12:31:58Z</time>
      </trkpt>
      <trkpt lat="45.63073" lon="6.54417">
        <ele>2544</ele>
        <time>2011-09-06T12:32:08Z</time>
      </trkpt>
      <trkpt lat="45.63075" lon="6.54413">
        <ele>2546</ele>
        <time>2011-09-06T12:32:16Z</time>
      </trkpt>
      <trkpt lat="45.63078" lon="6.54412">
        <ele>2547</ele>
        <time>2011-09-06T12:32:25Z</time>
      </trkpt>
      <trkpt lat="45.63081" lon="6.54407">
        <ele>2549</ele>
        <time>2011-09-06T12:32:33Z</time>
      </trkpt>
      <trkpt lat="45.63082" lon="6.54403">
        <ele>2550</ele>
        <time>2011-09-06T12:32:43Z</time>
      </trkpt>
      <trkpt lat="45.6308" lon="6.54405">
        <ele>2550</ele>
        <time>2011-09-06T12:32:50Z</time>
      </trkpt>
      <trkpt lat="45.63079" lon="6.54402">
        <ele>2552</ele>
        <time>2011-09-06T12:32:59Z</time>
      </trkpt>
      <trkpt lat="45.63079" lon="6.54397">
        <ele>2553</ele>
        <time>2011-09-06T12:33:07Z</time>
      </trkpt>
      <trkpt lat="45.63081" lon="6.5439">
        <ele>2554</ele>
        <time>2011-09-06T12:33:15Z</time>
      </trkpt>
      <trkpt lat="45.63081" lon="6.54383">
        <ele>2557</ele>
        <time>2011-09-06T12:33:23Z</time>
      </trkpt>
      <trkpt lat="45.63076" lon="6.54378">
        <ele>2559</ele>
        <time>2011-09-06T12:33:32Z</time>
      </trkpt>
      <trkpt lat="45.63074" lon="6.5438">
        <ele>2560</ele>
        <time>2011-09-06T12:33:40Z</time>
      </trkpt>
      <trkpt lat="45.63072" lon="6.54381">
        <ele>2561</ele>
        <time>2011-09-06T12:33:46Z</time>
      </trkpt>
      <trkpt lat="45.63067" lon="6.54379">
        <ele>2562</ele>
        <time>2011-09-06T12:33:55Z</time>
      </trkpt>
      <trkpt lat="45.63063" lon="6.54377">
        <ele>2564</ele>
        <time>2011-09-06T12:34:05Z</time>
      </trkpt>
      <trkpt lat="45.63058" lon="6.54373">
        <ele>2565</ele>
        <time>2011-09-06T12:34:13Z</time>
      </trkpt>
      <trkpt lat="45.63053" lon="6.54369">
        <ele>2567</ele>
        <time>2011-09-06T12:34:22Z</time>
      </trkpt>
      <trkpt lat="45.63047" lon="6.54368">
        <ele>2568</ele>
        <time>2011-09-06T12:34:33Z</time>
      </trkpt>
      <trkpt lat="45.63045" lon="6.54364">
        <ele>2570</ele>
        <time>2011-09-06T12:34:42Z</time>
      </trkpt>
      <trkpt lat="45.63048" lon="6.54359">
        <ele>2572</ele>
        <time>2011-09-06T12:34:51Z</time>
      </trkpt>
      <trkpt lat="45.63052" lon="6.54353">
        <ele>2574</ele>
        <time>2011-09-06T12:35:01Z</time>
      </trkpt>
      <trkpt lat="45.6305" lon="6.54348">
        <ele>2575</ele>
        <time>2011-09-06T12:35:09Z</time>
      </trkpt>
      <trkpt lat="45.63049" lon="6.54344">
        <ele>2577</ele>
        <time>2011-09-06T12:35:18Z</time>
      </trkpt>
      <trkpt lat="45.63047" lon="6.54338">
        <ele>2579</ele>
        <time>2011-09-06T12:35:27Z</time>
      </trkpt>
      <trkpt lat="45.63049" lon="6.54331">
        <ele>2580</ele>
        <time>2011-09-06T12:35:35Z</time>
      </trkpt>
      <trkpt lat="45.63049" lon="6.54323">
        <ele>2581</ele>
        <time>2011-09-06T12:35:43Z</time>
      </trkpt>
      <trkpt lat="45.63047" lon="6.54314">
        <ele>2582</ele>
        <time>2011-09-06T12:35:52Z</time>
      </trkpt>
      <trkpt lat="45.63046" lon="6.54303">
        <ele>2583</ele>
        <time>2011-09-06T12:36:02Z</time>
      </trkpt>
      <trkpt lat="45.63051" lon="6.54289">
        <ele>2583</ele>
        <time>2011-09-06T12:36:13Z</time>
      </trkpt>
      <trkpt lat="45.63047" lon="6.54277">
        <ele>2584</ele>
        <time>2011-09-06T12:36:23Z</time>
      </trkpt>
      <trkpt lat="45.6305" lon="6.54271">
        <ele>2586</ele>
        <time>2011-09-06T12:36:30Z</time>
      </trkpt>
      <trkpt lat="45.63056" lon="6.54262">
        <ele>2587</ele>
        <time>2011-09-06T12:36:41Z</time>
      </trkpt>
      <trkpt lat="45.6306" lon="6.54255">
        <ele>2588</ele>
        <time>2011-09-06T12:36:51Z</time>
      </trkpt>
      <trkpt lat="45.63065" lon="6.54247">
        <ele>2589</ele>
        <time>2011-09-06T12:37:00Z</time>
      </trkpt>
      <trkpt lat="45.63073" lon="6.54244">
        <ele>2591</ele>
        <time>2011-09-06T12:37:11Z</time>
      </trkpt>
      <trkpt lat="45.63079" lon="6.54244">
        <ele>2592</ele>
        <time>2011-09-06T12:37:19Z</time>
      </trkpt>
      <trkpt lat="45.63085" lon="6.54249">
        <ele>2594</ele>
        <time>2011-09-06T12:37:28Z</time>
      </trkpt>
      <trkpt lat="45.63089" lon="6.54245">
        <ele>2595</ele>
        <time>2011-09-06T12:37:35Z</time>
      </trkpt>
      <trkpt lat="45.63093" lon="6.54235">
        <ele>2596</ele>
        <time>2011-09-06T12:37:45Z</time>
      </trkpt>
      <trkpt lat="45.63096" lon="6.54227">
        <ele>2599</ele>
        <time>2011-09-06T12:37:56Z</time>
      </trkpt>
      <trkpt lat="45.63097" lon="6.54222">
        <ele>2601</ele>
        <time>2011-09-06T12:38:05Z</time>
      </trkpt>
      <trkpt lat="45.63099" lon="6.54218">
        <ele>2602</ele>
        <time>2011-09-06T12:38:12Z</time>
      </trkpt>
      <trkpt lat="45.63099" lon="6.5421">
        <ele>2604</ele>
        <time>2011-09-06T12:38:22Z</time>
      </trkpt>
      <trkpt lat="45.63091" lon="6.54204">
        <ele>2603</ele>
        <time>2011-09-06T12:38:33Z</time>
      </trkpt>
      <trkpt lat="45.63093" lon="6.542">
        <ele>2605</ele>
        <time>2011-09-06T12:38:41Z</time>
      </trkpt>
      <trkpt lat="45.63092" lon="6.54194">
        <ele>2605</ele>
        <time>2011-09-06T12:38:49Z</time>
      </trkpt>
      <trkpt lat="45.63092" lon="6.54187">
        <ele>2607</ele>
        <time>2011-09-06T12:38:58Z</time>
      </trkpt>
      <trkpt lat="45.63095" lon="6.54185">
        <ele>2610</ele>
        <time>2011-09-06T12:39:06Z</time>
      </trkpt>
      <trkpt lat="45.63095" lon="6.54179">
        <ele>2611</ele>
        <time>2011-09-06T12:39:16Z</time>
      </trkpt>
      <trkpt lat="45.63094" lon="6.54175">
        <ele>2613</ele>
        <time>2011-09-06T12:39:25Z</time>
      </trkpt>
      <trkpt lat="45.63098" lon="6.54172">
        <ele>2614</ele>
        <time>2011-09-06T12:39:35Z</time>
      </trkpt>
      <trkpt lat="45.63101" lon="6.54167">
        <ele>2614</ele>
        <time>2011-09-06T12:39:44Z</time>
      </trkpt>
      <trkpt lat="45.63104" lon="6.54165">
        <ele>2617</ele>
        <time>2011-09-06T12:39:53Z</time>
      </trkpt>
      <trkpt lat="45.63103" lon="6.54158">
        <ele>2620</ele>
        <time>2011-09-06T12:40:03Z</time>
      </trkpt>
      <trkpt lat="45.63102" lon="6.54155">
        <ele>2621</ele>
        <time>2011-09-06T12:40:11Z</time>
      </trkpt>
      <trkpt lat="45.63103" lon="6.54152">
        <ele>2622</ele>
        <time>2011-09-06T12:40:18Z</time>
      </trkpt>
      <trkpt lat="45.63102" lon="6.54147">
        <ele>2624</ele>
        <time>2011-09-06T12:40:25Z</time>
      </trkpt>
      <trkpt lat="45.63102" lon="6.54139">
        <ele>2624</ele>
        <time>2011-09-06T12:40:33Z</time>
      </trkpt>
      <trkpt lat="45.63106" lon="6.54131">
        <ele>2626</ele>
        <time>2011-09-06T12:40:42Z</time>
      </trkpt>
      <trkpt lat="45.6311" lon="6.54121">
        <ele>2627</ele>
        <time>2011-09-06T12:40:51Z</time>
      </trkpt>
      <trkpt lat="45.6311" lon="6.5411">
        <ele>2629</ele>
        <time>2011-09-06T12:41:00Z</time>
      </trkpt>
      <trkpt lat="45.63108" lon="6.54098">
        <ele>2630</ele>
        <time>2011-09-06T12:41:11Z</time>
      </trkpt>
      <trkpt lat="45.63106" lon="6.54089">
        <ele>2632</ele>
        <time>2011-09-06T12:41:20Z</time>
      </trkpt>
      <trkpt lat="45.63108" lon="6.54083">
        <ele>2635</ele>
        <time>2011-09-06T12:41:28Z</time>
      </trkpt>
      <trkpt lat="45.63108" lon="6.54076">
        <ele>2636</ele>
        <time>2011-09-06T12:41:35Z</time>
      </trkpt>
      <trkpt lat="45.63108" lon="6.54067">
        <ele>2638</ele>
        <time>2011-09-06T12:41:44Z</time>
      </trkpt>
      <trkpt lat="45.63109" lon="6.54063">
        <ele>2638</ele>
        <time>2011-09-06T12:41:47Z</time>
      </trkpt>
      <trkpt lat="45.63111" lon="6.54048">
        <ele>2638</ele>
        <time>2011-09-06T12:41:58Z</time>
      </trkpt>
      <trkpt lat="45.6311" lon="6.54034">
        <ele>2639</ele>
        <time>2011-09-06T12:42:08Z</time>
      </trkpt>
      <trkpt lat="45.6311" lon="6.54023">
        <ele>2637</ele>
        <time>2011-09-06T12:42:18Z</time>
      </trkpt>
      <trkpt lat="45.63108" lon="6.54016">
        <ele>2638</ele>
        <time>2011-09-06T12:42:26Z</time>
      </trkpt>
      <trkpt lat="45.63107" lon="6.54007">
        <ele>2639</ele>
        <time>2011-09-06T12:42:34Z</time>
      </trkpt>
      <trkpt lat="45.63105" lon="6.54">
        <ele>2639</ele>
        <time>2011-09-06T12:42:41Z</time>
      </trkpt>
      <trkpt lat="45.63105" lon="6.5399">
        <ele>2640</ele>
        <time>2011-09-06T12:42:51Z</time>
      </trkpt>
      <trkpt lat="45.63102" lon="6.53987">
        <ele>2640</ele>
        <time>2011-09-06T12:42:58Z</time>
      </trkpt>
      <trkpt lat="45.63098" lon="6.53986">
        <ele>2641</ele>
        <time>2011-09-06T12:43:06Z</time>
      </trkpt>
      <trkpt lat="45.63097" lon="6.53976">
        <ele>2640</ele>
        <time>2011-09-06T12:43:14Z</time>
      </trkpt>
      <trkpt lat="45.63096" lon="6.53966">
        <ele>2638</ele>
        <time>2011-09-06T12:43:22Z</time>
      </trkpt>
      <trkpt lat="45.63099" lon="6.53951">
        <ele>2638</ele>
        <time>2011-09-06T12:43:33Z</time>
      </trkpt>
      <trkpt lat="45.63102" lon="6.53937">
        <ele>2637</ele>
        <time>2011-09-06T12:43:43Z</time>
      </trkpt>
      <trkpt lat="45.63104" lon="6.53924">
        <ele>2634</ele>
        <time>2011-09-06T12:43:53Z</time>
      </trkpt>
      <trkpt lat="45.63107" lon="6.53913">
        <ele>2635</ele>
        <time>2011-09-06T12:44:01Z</time>
      </trkpt>
      <trkpt lat="45.63108" lon="6.53911">
        <ele>2634</ele>
        <time>2011-09-06T12:44:03Z</time>
      </trkpt>
      <trkpt lat="45.6311" lon="6.53899">
        <ele>2638</ele>
        <time>2011-09-06T12:44:13Z</time>
      </trkpt>
      <trkpt lat="45.6311" lon="6.53897">
        <ele>2638</ele>
        <time>2011-09-06T12:44:15Z</time>
      </trkpt>
      <trkpt lat="45.63109" lon="6.53882">
        <ele>2639</ele>
        <time>2011-09-06T12:44:27Z</time>
      </trkpt>
      <trkpt lat="45.63109" lon="6.53876">
        <ele>2642</ele>
        <time>2011-09-06T12:44:37Z</time>
      </trkpt>
      <trkpt lat="45.63113" lon="6.53871">
        <ele>2644</ele>
        <time>2011-09-06T12:44:47Z</time>
      </trkpt>
      <trkpt lat="45.63114" lon="6.53864">
        <ele>2647</ele>
        <time>2011-09-06T12:44:55Z</time>
      </trkpt>
      <trkpt lat="45.63117" lon="6.53852">
        <ele>2649</ele>
        <time>2011-09-06T12:45:06Z</time>
      </trkpt>
      <trkpt lat="45.63123" lon="6.53843">
        <ele>2650</ele>
        <time>2011-09-06T12:45:17Z</time>
      </trkpt>
      <trkpt lat="45.63129" lon="6.53828">
        <ele>2653</ele>
        <time>2011-09-06T12:45:30Z</time>
      </trkpt>
      <trkpt lat="45.63132" lon="6.53819">
        <ele>2654</ele>
        <time>2011-09-06T12:45:40Z</time>
      </trkpt>
      <trkpt lat="45.63136" lon="6.53809">
        <ele>2655</ele>
        <time>2011-09-06T12:45:49Z</time>
      </trkpt>
      <trkpt lat="45.63138" lon="6.53801">
        <ele>2657</ele>
        <time>2011-09-06T12:45:57Z</time>
      </trkpt>
      <trkpt lat="45.63141" lon="6.53791">
        <ele>2659</ele>
        <time>2011-09-06T12:46:07Z</time>
      </trkpt>
      <trkpt lat="45.6314" lon="6.53778">
        <ele>2660</ele>
        <time>2011-09-06T12:46:17Z</time>
      </trkpt>
      <trkpt lat="45.63142" lon="6.53775">
        <ele>2661</ele>
        <time>2011-09-06T12:46:20Z</time>
      </trkpt>
      <trkpt lat="45.63151" lon="6.53777">
        <ele>2663</ele>
        <time>2011-09-06T12:46:31Z</time>
      </trkpt>
      <trkpt lat="45.63152" lon="6.53773">
        <ele>2664</ele>
        <time>2011-09-06T12:46:35Z</time>
      </trkpt>
      <trkpt lat="45.63152" lon="6.53771">
        <ele>2665</ele>
        <time>2011-09-06T12:46:36Z</time>
      </trkpt>
      <trkpt lat="45.6315" lon="6.53758">
        <ele>2668</ele>
        <time>2011-09-06T12:46:46Z</time>
      </trkpt>
      <trkpt lat="45.63154" lon="6.53752">
        <ele>2668</ele>
        <time>2011-09-06T12:46:54Z</time>
      </trkpt>
      <trkpt lat="45.63161" lon="6.53744">
        <ele>2671</ele>
        <time>2011-09-06T12:47:04Z</time>
      </trkpt>
      <trkpt lat="45.6316" lon="6.53736">
        <ele>2673</ele>
        <time>2011-09-06T12:47:12Z</time>
      </trkpt>
      <trkpt lat="45.63161" lon="6.53724">
        <ele>2674</ele>
        <time>2011-09-06T12:47:22Z</time>
      </trkpt>
      <trkpt lat="45.63163" lon="6.53721">
        <ele>2675</ele>
        <time>2011-09-06T12:47:25Z</time>
      </trkpt>
      <trkpt lat="45.63162" lon="6.53713">
        <ele>2675</ele>
        <time>2011-09-06T12:47:32Z</time>
      </trkpt>
      <trkpt lat="45.63167" lon="6.53711">
        <ele>2678</ele>
        <time>2011-09-06T12:47:38Z</time>
      </trkpt>
      <trkpt lat="45.63167" lon="6.53703">
        <ele>2678</ele>
        <time>2011-09-06T12:47:45Z</time>
      </trkpt>
      <trkpt lat="45.63163" lon="6.5369">
        <ele>2682</ele>
        <time>2011-09-06T12:47:55Z</time>
      </trkpt>
      <trkpt lat="45.63164" lon="6.53679">
        <ele>2684</ele>
        <time>2011-09-06T12:48:05Z</time>
      </trkpt>
      <trkpt lat="45.63158" lon="6.53674">
        <ele>2685</ele>
        <time>2011-09-06T12:48:14Z</time>
      </trkpt>
      <trkpt lat="45.63156" lon="6.53674">
        <ele>2686</ele>
        <time>2011-09-06T12:48:24Z</time>
      </trkpt>
      <trkpt lat="45.63156" lon="6.53673">
        <ele>2686.061035</ele>
      </trkpt>
      <trkpt lat="45.63157" lon="6.53673">
        <ele>2686.061035</ele>
      </trkpt>
      <trkpt lat="45.63159" lon="6.53676">
        <ele>2685.099609</ele>
      </trkpt>
      <trkpt lat="45.63162" lon="6.5368">
        <ele>2684.138184</ele>
      </trkpt>
      <trkpt lat="45.63161" lon="6.53685">
        <ele>2683.177246</ele>
      </trkpt>
      <trkpt lat="45.63166" lon="6.53686">
        <ele>2683.177246</ele>
      </trkpt>
      <trkpt lat="45.63165" lon="6.5369">
        <ele>2682.21582</ele>
      </trkpt>
      <trkpt lat="45.63168" lon="6.53699">
        <ele>2679.8125</ele>
      </trkpt>
      <trkpt lat="45.63168" lon="6.53709">
        <ele>2677.890137</ele>
      </trkpt>
      <trkpt lat="45.63164" lon="6.53711">
        <ele>2676.928711</ele>
      </trkpt>
      <trkpt lat="45.63164" lon="6.5372">
        <ele>2675.005371</ele>
      </trkpt>
      <trkpt lat="45.63161" lon="6.53729">
        <ele>2674.043945</ele>
      </trkpt>
      <trkpt lat="45.63162" lon="6.53737">
        <ele>2672.121582</ele>
      </trkpt>
      <trkpt lat="45.63161" lon="6.53745">
        <ele>2671.160156</ele>
      </trkpt>
      <trkpt lat="45.63158" lon="6.5375">
        <ele>2667.795898</ele>
      </trkpt>
      <trkpt lat="45.63151" lon="6.53755">
        <ele>2666.834473</ele>
      </trkpt>
      <trkpt lat="45.63151" lon="6.53766">
        <ele>2665.873047</ele>
      </trkpt>
      <trkpt lat="45.63152" lon="6.53775">
        <ele>2663.950684</ele>
      </trkpt>
      <trkpt lat="45.63147" lon="6.53774">
        <ele>2662.027832</ele>
      </trkpt>
      <trkpt lat="45.63141" lon="6.53777">
        <ele>2661.066406</ele>
      </trkpt>
      <trkpt lat="45.6314" lon="6.53781">
        <ele>2659.144043</ele>
      </trkpt>
      <trkpt lat="45.63138" lon="6.53795">
        <ele>2658.182617</ele>
      </trkpt>
      <trkpt lat="45.63135" lon="6.53805">
        <ele>2655.779297</ele>
      </trkpt>
      <trkpt lat="45.63133" lon="6.53811">
        <ele>2654.818359</ele>
      </trkpt>
      <trkpt lat="45.63133" lon="6.53813">
        <ele>2653.856934</ele>
      </trkpt>
      <trkpt lat="45.63134" lon="6.53825">
        <ele>2651.934082</ele>
      </trkpt>
      <trkpt lat="45.63134" lon="6.53831">
        <ele>2651.934082</ele>
      </trkpt>
      <trkpt lat="45.6313" lon="6.53848">
        <ele>2649.050293</ele>
      </trkpt>
      <trkpt lat="45.63125" lon="6.53862">
        <ele>2649.050293</ele>
      </trkpt>
      <trkpt lat="45.63119" lon="6.53872">
        <ele>2645.205078</ele>
      </trkpt>
      <trkpt lat="45.63115" lon="6.53879">
        <ele>2643.762695</ele>
      </trkpt>
      <trkpt lat="45.63115" lon="6.53892">
        <ele>2641.839844</ele>
      </trkpt>
      <trkpt lat="45.63113" lon="6.53892">
        <ele>2640.878906</ele>
      </trkpt>
      <trkpt lat="45.63111" lon="6.53894">
        <ele>2640.878906</ele>
      </trkpt>
      <trkpt lat="45.6311" lon="6.53895">
        <ele>2638.956055</ele>
      </trkpt>
      <trkpt lat="45.63112" lon="6.53908">
        <ele>2637.033691</ele>
      </trkpt>
      <trkpt lat="45.6311" lon="6.53912">
        <ele>2635.11084</ele>
      </trkpt>
      <trkpt lat="45.63108" lon="6.53915">
        <ele>2635.11084</ele>
      </trkpt>
      <trkpt lat="45.63104" lon="6.53929">
        <ele>2636.072266</ele>
      </trkpt>
      <trkpt lat="45.63102" lon="6.53942">
        <ele>2637.994629</ele>
      </trkpt>
      <trkpt lat="45.63098" lon="6.53955">
        <ele>2638.956055</ele>
      </trkpt>
      <trkpt lat="45.63096" lon="6.53968">
        <ele>2638.956055</ele>
      </trkpt>
      <trkpt lat="45.63095" lon="6.53978">
        <ele>2639.91748</ele>
      </trkpt>
      <trkpt lat="45.63097" lon="6.53987">
        <ele>2641.839844</ele>
      </trkpt>
      <trkpt lat="45.631" lon="6.53993">
        <ele>2641.839844</ele>
      </trkpt>
      <trkpt lat="45.63104" lon="6.54003">
        <ele>2638.956055</ele>
      </trkpt>
      <trkpt lat="45.63105" lon="6.54011">
        <ele>2638.956055</ele>
      </trkpt>
      <trkpt lat="45.63105" lon="6.54019">
        <ele>2638.956055</ele>
      </trkpt>
      <trkpt lat="45.63106" lon="6.54026">
        <ele>2638.956055</ele>
      </trkpt>
      <trkpt lat="45.63108" lon="6.54033">
        <ele>2638.956055</ele>
      </trkpt>
      <trkpt lat="45.63109" lon="6.54037">
        <ele>2638.956055</ele>
      </trkpt>
      <trkpt lat="45.6311" lon="6.54054">
        <ele>2638.956055</ele>
      </trkpt>
      <trkpt lat="45.63107" lon="6.54072">
        <ele>2638.956055</ele>
      </trkpt>
      <trkpt lat="45.63108" lon="6.5408">
        <ele>2637.033691</ele>
      </trkpt>
      <trkpt lat="45.63108" lon="6.54083">
        <ele>2635.11084</ele>
      </trkpt>
      <trkpt lat="45.63106" lon="6.54089">
        <ele>2634.149414</ele>
      </trkpt>
      <trkpt lat="45.63105" lon="6.54091">
        <ele>2634.149414</ele>
      </trkpt>
      <trkpt lat="45.63108" lon="6.54102">
        <ele>2630.785156</ele>
      </trkpt>
      <trkpt lat="45.6311" lon="6.54118">
        <ele>2629.82373</ele>
      </trkpt>
      <trkpt lat="45.63108" lon="6.54126">
        <ele>2628.862305</ele>
      </trkpt>
      <trkpt lat="45.63104" lon="6.54138">
        <ele>2627.900879</ele>
      </trkpt>
      <trkpt lat="45.63102" lon="6.54145">
        <ele>2626.939941</ele>
      </trkpt>
      <trkpt lat="45.63104" lon="6.54151">
        <ele>2625.978516</ele>
      </trkpt>
      <trkpt lat="45.63101" lon="6.54154">
        <ele>2624.056152</ele>
      </trkpt>
      <trkpt lat="45.631" lon="6.54156">
        <ele>2622.133301</ele>
      </trkpt>
      <trkpt lat="45.63098" lon="6.5416">
        <ele>2620.210449</ele>
      </trkpt>
      <trkpt lat="45.63096" lon="6.54165">
        <ele>2617.807617</ele>
      </trkpt>
      <trkpt lat="45.63096" lon="6.54167">
        <ele>2616.846191</ele>
      </trkpt>
      <trkpt lat="45.63096" lon="6.5417">
        <ele>2615.884766</ele>
      </trkpt>
      <trkpt lat="45.63098" lon="6.54173">
        <ele>2615.884766</ele>
      </trkpt>
      <trkpt lat="45.63098" lon="6.54178">
        <ele>2613.962402</ele>
      </trkpt>
      <trkpt lat="45.63095" lon="6.54186">
        <ele>2611.077637</ele>
      </trkpt>
      <trkpt lat="45.63092" lon="6.54191">
        <ele>2608.193848</ele>
      </trkpt>
      <trkpt lat="45.63091" lon="6.54195">
        <ele>2607.232422</ele>
      </trkpt>
      <trkpt lat="45.63089" lon="6.54199">
        <ele>2604.829102</ele>
      </trkpt>
      <trkpt lat="45.63089" lon="6.54205">
        <ele>2602.906738</ele>
      </trkpt>
      <trkpt lat="45.6308" lon="6.54206">
        <ele>2601.945313</ele>
      </trkpt>
      <trkpt lat="45.63078" lon="6.54213">
        <ele>2600.022949</ele>
      </trkpt>
      <trkpt lat="45.63075" lon="6.54226">
        <ele>2599.061523</ele>
      </trkpt>
      <trkpt lat="45.63072" lon="6.54232">
        <ele>2596.177734</ele>
      </trkpt>
      <trkpt lat="45.6307" lon="6.54233">
        <ele>2595.216309</ele>
      </trkpt>
      <trkpt lat="45.63069" lon="6.5424">
        <ele>2593.774414</ele>
      </trkpt>
      <trkpt lat="45.63066" lon="6.54247">
        <ele>2591.851807</ele>
      </trkpt>
      <trkpt lat="45.63063" lon="6.54251">
        <ele>2591.851807</ele>
      </trkpt>
      <trkpt lat="45.63058" lon="6.54259">
        <ele>2590.890381</ele>
      </trkpt>
      <trkpt lat="45.63055" lon="6.54264">
        <ele>2589.929199</ele>
      </trkpt>
      <trkpt lat="45.63052" lon="6.54267">
        <ele>2589.929199</ele>
      </trkpt>
      <trkpt lat="45.63049" lon="6.54277">
        <ele>2588.006592</ele>
      </trkpt>
      <trkpt lat="45.63042" lon="6.54285">
        <ele>2586.08374</ele>
      </trkpt>
      <trkpt lat="45.6304" lon="6.54286">
        <ele>2587.044922</ele>
      </trkpt>
      <trkpt lat="45.63039" lon="6.54288">
        <ele>2588.006592</ele>
      </trkpt>
      <trkpt lat="45.63036" lon="6.54291">
        <ele>2587.044922</ele>
      </trkpt>
      <trkpt lat="45.63029" lon="6.54294">
        <ele>2587.044922</ele>
      </trkpt>
      <trkpt lat="45.63021" lon="6.54297">
        <ele>2587.044922</ele>
      </trkpt>
      <trkpt lat="45.63015" lon="6.54305">
        <ele>2588.006592</ele>
      </trkpt>
      <trkpt lat="45.63007" lon="6.54312">
        <ele>2588.967773</ele>
      </trkpt>
      <trkpt lat="45.63003" lon="6.54315">
        <ele>2587.044922</ele>
      </trkpt>
      <trkpt lat="45.62996" lon="6.54328">
        <ele>2587.044922</ele>
      </trkpt>
      <trkpt lat="45.62987" lon="6.54338">
        <ele>2586.08374</ele>
      </trkpt>
      <trkpt lat="45.6298" lon="6.54339">
        <ele>2586.08374</ele>
      </trkpt>
      <trkpt lat="45.62973" lon="6.54346">
        <ele>2584.161133</ele>
      </trkpt>
      <trkpt lat="45.62971" lon="6.54355">
        <ele>2584.161133</ele>
      </trkpt>
      <trkpt lat="45.62971" lon="6.54357">
        <ele>2583.199707</ele>
      </trkpt>
      <trkpt lat="45.62969" lon="6.54362">
        <ele>2579.835205</ele>
      </trkpt>
      <trkpt lat="45.62964" lon="6.54364">
        <ele>2578.873779</ele>
      </trkpt>
      <trkpt lat="45.6296" lon="6.54364">
        <ele>2577.912598</ele>
      </trkpt>
      <trkpt lat="45.62958" lon="6.54372">
        <ele>2575.98999</ele>
      </trkpt>
      <trkpt lat="45.62957" lon="6.5438">
        <ele>2574.067383</ele>
      </trkpt>
      <trkpt lat="45.62956" lon="6.54385">
        <ele>2572.144775</ele>
      </trkpt>
      <trkpt lat="45.62954" lon="6.54386">
        <ele>2571.183105</ele>
      </trkpt>
      <trkpt lat="45.62951" lon="6.54387">
        <ele>2570.221924</ele>
      </trkpt>
      <trkpt lat="45.62949" lon="6.5439">
        <ele>2568.780029</ele>
      </trkpt>
      <trkpt lat="45.62944" lon="6.54394">
        <ele>2567.818604</ele>
      </trkpt>
      <trkpt lat="45.62942" lon="6.54396">
        <ele>2567.818604</ele>
      </trkpt>
      <trkpt lat="45.62932" lon="6.54407">
        <ele>2564.934814</ele>
      </trkpt>
      <trkpt lat="45.62928" lon="6.54414">
        <ele>2563.012207</ele>
      </trkpt>
      <trkpt lat="45.62925" lon="6.5442">
        <ele>2562.050781</ele>
      </trkpt>
      <trkpt lat="45.6292" lon="6.54427">
        <ele>2561.0896</ele>
      </trkpt>
      <trkpt lat="45.62918" lon="6.54432">
        <ele>2560.128174</ele>
      </trkpt>
      <trkpt lat="45.62916" lon="6.54434">
        <ele>2558.205566</ele>
      </trkpt>
      <trkpt lat="45.62913" lon="6.54435">
        <ele>2559.166992</ele>
      </trkpt>
      <trkpt lat="45.62914" lon="6.54438">
        <ele>2554.84082</ele>
      </trkpt>
      <trkpt lat="45.62913" lon="6.54442">
        <ele>2554.84082</ele>
      </trkpt>
      <trkpt lat="45.62909" lon="6.54442">
        <ele>2553.879639</ele>
      </trkpt>
      <trkpt lat="45.62906" lon="6.54445">
        <ele>2553.879639</ele>
      </trkpt>
      <trkpt lat="45.6291" lon="6.54447">
        <ele>2551.956787</ele>
      </trkpt>
      <trkpt lat="45.62912" lon="6.54451">
        <ele>2549.072998</ele>
      </trkpt>
      <trkpt lat="45.62909" lon="6.54456">
        <ele>2547.150391</ele>
      </trkpt>
      <trkpt lat="45.62899" lon="6.54463">
        <ele>2547.150391</ele>
      </trkpt>
      <trkpt lat="45.62895" lon="6.54464">
        <ele>2546.189209</ele>
      </trkpt>
      <trkpt lat="45.62891" lon="6.5447">
        <ele>2546.189209</ele>
      </trkpt>
      <trkpt lat="45.62886" lon="6.54478">
        <ele>2543.785889</ele>
      </trkpt>
      <trkpt lat="45.62875" lon="6.54477">
        <ele>2541.863281</ele>
      </trkpt>
      <trkpt lat="45.6287" lon="6.54476">
        <ele>2541.863281</ele>
      </trkpt>
      <trkpt lat="45.62858" lon="6.54475">
        <ele>2539.94043</ele>
      </trkpt>
      <trkpt lat="45.62851" lon="6.54468">
        <ele>2538.979004</ele>
      </trkpt>
      <trkpt lat="45.62849" lon="6.54467">
        <ele>2539.94043</ele>
      </trkpt>
      <trkpt lat="45.62838" lon="6.54466">
        <ele>2538.979004</ele>
      </trkpt>
      <trkpt lat="45.62827" lon="6.54465">
        <ele>2540.901855</ele>
      </trkpt>
      <trkpt lat="45.62821" lon="6.5447">
        <ele>2539.94043</ele>
      </trkpt>
      <trkpt lat="45.62818" lon="6.54471">
        <ele>2539.94043</ele>
      </trkpt>
      <trkpt lat="45.62814" lon="6.54472">
        <ele>2538.979004</ele>
      </trkpt>
      <trkpt lat="45.62811" lon="6.54469">
        <ele>2537.056396</ele>
      </trkpt>
      <trkpt lat="45.62812" lon="6.54465">
        <ele>2535.133789</ele>
      </trkpt>
      <trkpt lat="45.6281" lon="6.54465">
        <ele>2535.133789</ele>
      </trkpt>
      <trkpt lat="45.62807" lon="6.54462">
        <ele>2533.211182</ele>
      </trkpt>
      <trkpt lat="45.62803" lon="6.54457">
        <ele>2529.84668</ele>
      </trkpt>
      <trkpt lat="45.62801" lon="6.54457">
        <ele>2528.885254</ele>
      </trkpt>
      <trkpt lat="45.62799" lon="6.54453">
        <ele>2525.040039</ele>
      </trkpt>
      <trkpt lat="45.62801" lon="6.54448">
        <ele>2523.117432</ele>
      </trkpt>
      <trkpt lat="45.62798" lon="6.54447">
        <ele>2522.156006</ele>
      </trkpt>
      <trkpt lat="45.62794" lon="6.54443">
        <ele>2521.19458</ele>
      </trkpt>
      <trkpt lat="45.62797" lon="6.5444">
        <ele>2517.830078</ele>
      </trkpt>
      <trkpt lat="45.62796" lon="6.54435">
        <ele>2515.907471</ele>
      </trkpt>
      <trkpt lat="45.62794" lon="6.54432">
        <ele>2514.946289</ele>
      </trkpt>
      <trkpt lat="45.62789" lon="6.54431">
        <ele>2513.984863</ele>
      </trkpt>
      <trkpt lat="45.62784" lon="6.54427">
        <ele>2513.023682</ele>
      </trkpt>
      <trkpt lat="45.62783" lon="6.54424">
        <ele>2511.101074</ele>
      </trkpt>
      <trkpt lat="45.6278" lon="6.54423">
        <ele>2510.139648</ele>
      </trkpt>
      <trkpt lat="45.62776" lon="6.54419">
        <ele>2508.217041</ele>
      </trkpt>
      <trkpt lat="45.62774" lon="6.54416">
        <ele>2505.813477</ele>
      </trkpt>
      <trkpt lat="45.62772" lon="6.54412">
        <ele>2502.929688</ele>
      </trkpt>
      <trkpt lat="45.62768" lon="6.5441">
        <ele>2501.00708</ele>
      </trkpt>
      <trkpt lat="45.62766" lon="6.54409">
        <ele>2500.045898</ele>
      </trkpt>
      <trkpt lat="45.62767" lon="6.54405">
        <ele>2498.123047</ele>
      </trkpt>
      <trkpt lat="45.62765" lon="6.54402">
        <ele>2497.161865</ele>
      </trkpt>
      <trkpt lat="45.62766" lon="6.54397">
        <ele>2495.239258</ele>
      </trkpt>
      <trkpt lat="45.62762" lon="6.54398">
        <ele>2493.797363</ele>
      </trkpt>
      <trkpt lat="45.62759" lon="6.54396">
        <ele>2492.835938</ele>
      </trkpt>
      <trkpt lat="45.62756" lon="6.54394">
        <ele>2490.913086</ele>
      </trkpt>
      <trkpt lat="45.62752" lon="6.54389">
        <ele>2488.990479</ele>
      </trkpt>
      <trkpt lat="45.62746" lon="6.54384">
        <ele>2488.029297</ele>
      </trkpt>
      <trkpt lat="45.62742" lon="6.54381">
        <ele>2486.106689</ele>
      </trkpt>
      <trkpt lat="45.6274" lon="6.54383">
        <ele>2485.145264</ele>
      </trkpt>
      <trkpt lat="45.62739" lon="6.5438">
        <ele>2483.222656</ele>
      </trkpt>
      <trkpt lat="45.62737" lon="6.54377">
        <ele>2480.81958</ele>
      </trkpt>
      <trkpt lat="45.62738" lon="6.54375">
        <ele>2480.81958</ele>
      </trkpt>
      <trkpt lat="45.6274" lon="6.54374">
        <ele>2478.896729</ele>
      </trkpt>
      <trkpt lat="45.62742" lon="6.54371">
        <ele>2476.974365</ele>
      </trkpt>
      <trkpt lat="45.62743" lon="6.54369">
        <ele>2475.05127</ele>
      </trkpt>
      <trkpt lat="45.62745" lon="6.54365">
        <ele>2473.128906</ele>
      </trkpt>
      <trkpt lat="45.62747" lon="6.5436">
        <ele>2472.16748</ele>
      </trkpt>
      <trkpt lat="45.62744" lon="6.54358">
        <ele>2468.802979</ele>
      </trkpt>
      <trkpt lat="45.62739" lon="6.54356">
        <ele>2466.880371</ele>
      </trkpt>
      <trkpt lat="45.62733" lon="6.54353">
        <ele>2464.957764</ele>
      </trkpt>
      <trkpt lat="45.62729" lon="6.5435">
        <ele>2463.035156</ele>
      </trkpt>
      <trkpt lat="45.62727" lon="6.54348">
        <ele>2462.07373</ele>
      </trkpt>
      <trkpt lat="45.62723" lon="6.54347">
        <ele>2459.189697</ele>
      </trkpt>
      <trkpt lat="45.6272" lon="6.54345">
        <ele>2458.228271</ele>
      </trkpt>
      <trkpt lat="45.62718" lon="6.54343">
        <ele>2455.824951</ele>
      </trkpt>
      <trkpt lat="45.62714" lon="6.5434">
        <ele>2454.86377</ele>
      </trkpt>
      <trkpt lat="45.6271" lon="6.54335">
        <ele>2452.941162</ele>
      </trkpt>
      <trkpt lat="45.62709" lon="6.54331">
        <ele>2451.979736</ele>
      </trkpt>
      <trkpt lat="45.62707" lon="6.54324">
        <ele>2450.057373</ele>
      </trkpt>
      <trkpt lat="45.62702" lon="6.54325">
        <ele>2448.134521</ele>
      </trkpt>
      <trkpt lat="45.627" lon="6.54321">
        <ele>2447.17334</ele>
      </trkpt>
      <trkpt lat="45.627" lon="6.54314">
        <ele>2443.808594</ele>
      </trkpt>
      <trkpt lat="45.62698" lon="6.54309">
        <ele>2441.885986</ele>
      </trkpt>
      <trkpt lat="45.62697" lon="6.54307">
        <ele>2440.924561</ele>
      </trkpt>
      <trkpt lat="45.62695" lon="6.54305">
        <ele>2439.963379</ele>
      </trkpt>
      <trkpt lat="45.62694" lon="6.54298">
        <ele>2437.079346</ele>
      </trkpt>
      <trkpt lat="45.62695" lon="6.54292">
        <ele>2435.156738</ele>
      </trkpt>
      <trkpt lat="45.62696" lon="6.54287">
        <ele>2434.195557</ele>
      </trkpt>
      <trkpt lat="45.62695" lon="6.54285">
        <ele>2433.234131</ele>
      </trkpt>
      <trkpt lat="45.62692" lon="6.54283">
        <ele>2430.831055</ele>
      </trkpt>
      <trkpt lat="45.6269" lon="6.54279">
        <ele>2429.869629</ele>
      </trkpt>
      <trkpt lat="45.62691" lon="6.54276">
        <ele>2428.908203</ele>
      </trkpt>
      <trkpt lat="45.62696" lon="6.5427">
        <ele>2426.985596</ele>
      </trkpt>
      <trkpt lat="45.62694" lon="6.54268">
        <ele>2426.02417</ele>
      </trkpt>
      <trkpt lat="45.62691" lon="6.54264">
        <ele>2423.140381</ele>
      </trkpt>
      <trkpt lat="45.6269" lon="6.54261">
        <ele>2421.217529</ele>
      </trkpt>
      <trkpt lat="45.62688" lon="6.54244">
        <ele>2419.775635</ele>
      </trkpt>
      <trkpt lat="45.62696" lon="6.54242">
        <ele>2417.853027</ele>
      </trkpt>
      <trkpt lat="45.62698" lon="6.5424">
        <ele>2415.93042</ele>
      </trkpt>
      <trkpt lat="45.62699" lon="6.54237">
        <ele>2415.93042</ele>
      </trkpt>
      <trkpt lat="45.62699" lon="6.54235">
        <ele>2414.007813</ele>
      </trkpt>
      <trkpt lat="45.62698" lon="6.54234">
        <ele>2412.085205</ele>
      </trkpt>
      <trkpt lat="45.62697" lon="6.54229">
        <ele>2410.162354</ele>
      </trkpt>
      <trkpt lat="45.62695" lon="6.54224">
        <ele>2408.239746</ele>
      </trkpt>
      <trkpt lat="45.62697" lon="6.5422">
        <ele>2406.797852</ele>
      </trkpt>
      <trkpt lat="45.62699" lon="6.54214">
        <ele>2405.836426</ele>
      </trkpt>
      <trkpt lat="45.62697" lon="6.54208">
        <ele>2403.914063</ele>
      </trkpt>
      <trkpt lat="45.62696" lon="6.542">
        <ele>2402.952637</ele>
      </trkpt>
      <trkpt lat="45.62696" lon="6.54189">
        <ele>2400.068848</ele>
      </trkpt>
      <trkpt lat="45.62693" lon="6.54185">
        <ele>2399.107422</ele>
      </trkpt>
      <trkpt lat="45.6269" lon="6.54186">
        <ele>2398.145996</ele>
      </trkpt>
      <trkpt lat="45.62687" lon="6.54183">
        <ele>2396.223633</ele>
      </trkpt>
      <trkpt lat="45.62685" lon="6.54178">
        <ele>2393.820068</ele>
      </trkpt>
      <trkpt lat="45.62683" lon="6.54173">
        <ele>2390.936035</ele>
      </trkpt>
      <trkpt lat="45.62682" lon="6.5417">
        <ele>2389.974854</ele>
      </trkpt>
      <trkpt lat="45.62681" lon="6.54165">
        <ele>2388.052246</ele>
      </trkpt>
      <trkpt lat="45.62678" lon="6.54162">
        <ele>2386.129639</ele>
      </trkpt>
      <trkpt lat="45.62675" lon="6.5416">
        <ele>2384.207031</ele>
      </trkpt>
      <trkpt lat="45.62674" lon="6.54156">
        <ele>2381.803711</ele>
      </trkpt>
      <trkpt lat="45.62672" lon="6.54153">
        <ele>2380.842529</ele>
      </trkpt>
      <trkpt lat="45.62668" lon="6.54152">
        <ele>2377.958252</ele>
      </trkpt>
      <trkpt lat="45.62665" lon="6.54152">
        <ele>2376.99707</ele>
      </trkpt>
      <trkpt lat="45.62661" lon="6.54149">
        <ele>2376.035645</ele>
      </trkpt>
      <trkpt lat="45.62659" lon="6.54145">
        <ele>2373.151855</ele>
      </trkpt>
      <trkpt lat="45.62656" lon="6.54143">
        <ele>2371.229004</ele>
      </trkpt>
      <trkpt lat="45.62656" lon="6.54138">
        <ele>2368.825928</ele>
      </trkpt>
      <trkpt lat="45.62655" lon="6.54137">
        <ele>2367.864502</ele>
      </trkpt>
      <trkpt lat="45.62654" lon="6.54132">
        <ele>2364.980713</ele>
      </trkpt>
      <trkpt lat="45.62651" lon="6.54128">
        <ele>2363.057861</ele>
      </trkpt>
      <trkpt lat="45.62648" lon="6.54127">
        <ele>2362.096436</ele>
      </trkpt>
      <trkpt lat="45.62647" lon="6.54123">
        <ele>2360.173828</ele>
      </trkpt>
      <trkpt lat="45.62649" lon="6.54121">
        <ele>2359.212646</ele>
      </trkpt>
      <trkpt lat="45.62648" lon="6.54118">
        <ele>2357.770752</ele>
      </trkpt>
      <trkpt lat="45.62645" lon="6.54117">
        <ele>2355.8479</ele>
      </trkpt>
      <trkpt lat="45.6264" lon="6.54114">
        <ele>2353.925537</ele>
      </trkpt>
      <trkpt lat="45.62636" lon="6.54115">
        <ele>2352.002686</ele>
      </trkpt>
      <trkpt lat="45.62633" lon="6.54114">
        <ele>2351.041504</ele>
      </trkpt>
      <trkpt lat="45.6263" lon="6.54113">
        <ele>2350.080322</ele>
      </trkpt>
      <trkpt lat="45.6263" lon="6.5411">
        <ele>2349.118896</ele>
      </trkpt>
      <trkpt lat="45.62633" lon="6.54106">
        <ele>2348.157471</ele>
      </trkpt>
      <trkpt lat="45.62632" lon="6.54102">
        <ele>2346.234863</ele>
      </trkpt>
      <trkpt lat="45.6263" lon="6.54101">
        <ele>2344.792725</ele>
      </trkpt>
      <trkpt lat="45.62628" lon="6.541">
        <ele>2342.870117</ele>
      </trkpt>
      <trkpt lat="45.62627" lon="6.54095">
        <ele>2340.94751</ele>
      </trkpt>
      <trkpt lat="45.62625" lon="6.54098">
        <ele>2339.986328</ele>
      </trkpt>
      <trkpt lat="45.6262" lon="6.54099">
        <ele>2338.063721</ele>
      </trkpt>
      <trkpt lat="45.62615" lon="6.54096">
        <ele>2336.141113</ele>
      </trkpt>
      <trkpt lat="45.62613" lon="6.54091">
        <ele>2335.179688</ele>
      </trkpt>
      <trkpt lat="45.62611" lon="6.54089">
        <ele>2332.776367</ele>
      </trkpt>
      <trkpt lat="45.62606" lon="6.54082">
        <ele>2331.814941</ele>
      </trkpt>
      <trkpt lat="45.62602" lon="6.54078">
        <ele>2330.85376</ele>
      </trkpt>
      <trkpt lat="45.62595" lon="6.54074">
        <ele>2327.969727</ele>
      </trkpt>
      <trkpt lat="45.62592" lon="6.54068">
        <ele>2326.047119</ele>
      </trkpt>
      <trkpt lat="45.62587" lon="6.54066">
        <ele>2324.124512</ele>
      </trkpt>
      <trkpt lat="45.62584" lon="6.54063">
        <ele>2323.16333</ele>
      </trkpt>
      <trkpt lat="45.62577" lon="6.54061">
        <ele>2320.76001</ele>
      </trkpt>
      <trkpt lat="45.62576" lon="6.54059">
        <ele>2319.798584</ele>
      </trkpt>
      <trkpt lat="45.62573" lon="6.54053">
        <ele>2318.837402</ele>
      </trkpt>
      <trkpt lat="45.62575" lon="6.54042">
        <ele>2315.953125</ele>
      </trkpt>
      <trkpt lat="45.62574" lon="6.54037">
        <ele>2314.030518</ele>
      </trkpt>
      <trkpt lat="45.62574" lon="6.54027">
        <ele>2311.146729</ele>
      </trkpt>
      <trkpt lat="45.62571" lon="6.54021">
        <ele>2309.224121</ele>
      </trkpt>
      <trkpt lat="45.62566" lon="6.54021">
        <ele>2306.820801</ele>
      </trkpt>
      <trkpt lat="45.62562" lon="6.5402">
        <ele>2305.859375</ele>
      </trkpt>
      <trkpt lat="45.62561" lon="6.54014">
        <ele>2304.898193</ele>
      </trkpt>
      <trkpt lat="45.62561" lon="6.54012">
        <ele>2303.937012</ele>
      </trkpt>
      <trkpt lat="45.62561" lon="6.54008">
        <ele>2302.01416</ele>
      </trkpt>
      <trkpt lat="45.62559" lon="6.54008">
        <ele>2301.052979</ele>
      </trkpt>
      <trkpt lat="45.62556" lon="6.54005">
        <ele>2299.130127</ele>
      </trkpt>
      <trkpt lat="45.62554" lon="6.54004">
        <ele>2298.168701</ele>
      </trkpt>
      <trkpt lat="45.62553" lon="6.54">
        <ele>2295.765625</ele>
      </trkpt>
      <trkpt lat="45.62555" lon="6.53993">
        <ele>2293.843018</ele>
      </trkpt>
      <trkpt lat="45.62552" lon="6.5399">
        <ele>2290.958984</ele>
      </trkpt>
      <trkpt lat="45.62549" lon="6.53986">
        <ele>2289.997803</ele>
      </trkpt>
      <trkpt lat="45.62547" lon="6.53983">
        <ele>2288.075195</ele>
      </trkpt>
      <trkpt lat="45.62545" lon="6.53978">
        <ele>2286.152588</ele>
      </trkpt>
      <trkpt lat="45.6254" lon="6.53976">
        <ele>2285.191162</ele>
      </trkpt>
      <trkpt lat="45.62537" lon="6.53977">
        <ele>2282.787598</ele>
      </trkpt>
      <trkpt lat="45.62535" lon="6.53974">
        <ele>2281.826416</ele>
      </trkpt>
      <trkpt lat="45.62532" lon="6.53971">
        <ele>2277.981201</ele>
      </trkpt>
      <trkpt lat="45.62529" lon="6.5397">
        <ele>2277.02002</ele>
      </trkpt>
      <trkpt lat="45.62526" lon="6.53969">
        <ele>2274.135986</ele>
      </trkpt>
      <trkpt lat="45.62525" lon="6.53964">
        <ele>2273.174805</ele>
      </trkpt>
      <trkpt lat="45.62524" lon="6.53958">
        <ele>2272.213379</ele>
      </trkpt>
      <trkpt lat="45.62518" lon="6.53954">
        <ele>2269.810059</ele>
      </trkpt>
      <trkpt lat="45.62512" lon="6.53951">
        <ele>2267.887207</ele>
      </trkpt>
      <trkpt lat="45.62503" lon="6.53949">
        <ele>2265.003418</ele>
      </trkpt>
      <trkpt lat="45.62501" lon="6.5394">
        <ele>2264.041992</ele>
      </trkpt>
      <trkpt lat="45.62502" lon="6.53935">
        <ele>2262.119385</ele>
      </trkpt>
      <trkpt lat="45.62499" lon="6.53931">
        <ele>2261.158203</ele>
      </trkpt>
      <trkpt lat="45.62498" lon="6.53929">
        <ele>2260.196777</ele>
      </trkpt>
      <trkpt lat="45.62493" lon="6.53931">
        <ele>2259.235596</ele>
      </trkpt>
      <trkpt lat="45.62495" lon="6.53924">
        <ele>2257.793701</ele>
      </trkpt>
      <trkpt lat="45.62494" lon="6.53919">
        <ele>2256.832275</ele>
      </trkpt>
      <trkpt lat="45.62491" lon="6.5392">
        <ele>2256.832275</ele>
      </trkpt>
      <trkpt lat="45.62493" lon="6.53916">
        <ele>2254.909668</ele>
      </trkpt>
      <trkpt lat="45.62492" lon="6.53914">
        <ele>2253.948486</ele>
      </trkpt>
      <trkpt lat="45.62494" lon="6.53907">
        <ele>2252.025635</ele>
      </trkpt>
      <trkpt lat="45.62492" lon="6.53904">
        <ele>2250.103027</ele>
      </trkpt>
      <trkpt lat="45.62491" lon="6.53901">
        <ele>2248.180176</ele>
      </trkpt>
      <trkpt lat="45.62489" lon="6.53896">
        <ele>2245.7771</ele>
      </trkpt>
      <trkpt lat="45.62488" lon="6.53892">
        <ele>2244.815674</ele>
      </trkpt>
      <trkpt lat="45.62484" lon="6.53888">
        <ele>2241.931885</ele>
      </trkpt>
      <trkpt lat="45.6248" lon="6.53885">
        <ele>2240.970459</ele>
      </trkpt>
      <trkpt lat="45.62473" lon="6.53887">
        <ele>2240.009277</ele>
      </trkpt>
      <trkpt lat="45.62474" lon="6.53884">
        <ele>2239.047852</ele>
      </trkpt>
      <trkpt lat="45.6247" lon="6.53878">
        <ele>2236.164063</ele>
      </trkpt>
      <trkpt lat="45.62468" lon="6.53873">
        <ele>2233.760498</ele>
      </trkpt>
      <trkpt lat="45.62462" lon="6.53871">
        <ele>2232.799072</ele>
      </trkpt>
      <trkpt lat="45.6246" lon="6.53871">
        <ele>2232.799072</ele>
      </trkpt>
      <trkpt lat="45.62458" lon="6.53868">
        <ele>2231.837891</ele>
      </trkpt>
      <trkpt lat="45.62455" lon="6.53863">
        <ele>2230.876709</ele>
      </trkpt>
      <trkpt lat="45.62454" lon="6.53858">
        <ele>2229.915283</ele>
      </trkpt>
      <trkpt lat="45.62452" lon="6.53857">
        <ele>2227.992676</ele>
      </trkpt>
      <trkpt lat="45.62451" lon="6.53854">
        <ele>2227.031494</ele>
      </trkpt>
      <trkpt lat="45.62449" lon="6.53846">
        <ele>2225.108643</ele>
      </trkpt>
      <trkpt lat="45.62448" lon="6.53837">
        <ele>2224.147461</ele>
      </trkpt>
      <trkpt lat="45.62445" lon="6.53828">
        <ele>2222.224854</ele>
      </trkpt>
      <trkpt lat="45.62443" lon="6.53825">
        <ele>2218.860107</ele>
      </trkpt>
      <trkpt lat="45.6244" lon="6.53822">
        <ele>2215.976074</ele>
      </trkpt>
      <trkpt lat="45.62436" lon="6.53821">
        <ele>2214.053467</ele>
      </trkpt>
      <trkpt lat="45.62434" lon="6.53815">
        <ele>2212.130859</ele>
      </trkpt>
      <trkpt lat="45.62435" lon="6.53811">
        <ele>2211.169678</ele>
      </trkpt>
      <trkpt lat="45.62435" lon="6.53808">
        <ele>2208.766357</ele>
      </trkpt>
      <trkpt lat="45.62431" lon="6.53804">
        <ele>2205.882324</ele>
      </trkpt>
      <trkpt lat="45.62429" lon="6.53799">
        <ele>2203.959717</ele>
      </trkpt>
      <trkpt lat="45.62433" lon="6.53793">
        <ele>2202.998291</ele>
      </trkpt>
      <trkpt lat="45.62436" lon="6.5379">
        <ele>2201.075684</ele>
      </trkpt>
      <trkpt lat="45.62438" lon="6.53785">
        <ele>2199.153076</ele>
      </trkpt>
      <trkpt lat="45.62437" lon="6.53782">
        <ele>2197.230469</ele>
      </trkpt>
      <trkpt lat="45.62434" lon="6.53782">
        <ele>2195.788574</ele>
      </trkpt>
      <trkpt lat="45.62432" lon="6.53779">
        <ele>2193.865967</ele>
      </trkpt>
      <trkpt lat="45.6243" lon="6.53778">
        <ele>2191.943359</ele>
      </trkpt>
      <trkpt lat="45.62427" lon="6.53778">
        <ele>2189.059326</ele>
      </trkpt>
      <trkpt lat="45.62418" lon="6.53774">
        <ele>2188.098145</ele>
      </trkpt>
      <trkpt lat="45.62417" lon="6.53772">
        <ele>2186.175293</ele>
      </trkpt>
      <trkpt lat="45.62411" lon="6.53769">
        <ele>2183.771973</ele>
      </trkpt>
      <trkpt lat="45.62414" lon="6.53768">
        <ele>2181.849365</ele>
      </trkpt>
      <trkpt lat="45.62418" lon="6.53765">
        <ele>2180.888184</ele>
      </trkpt>
      <trkpt lat="45.62419" lon="6.5376">
        <ele>2178.965332</ele>
      </trkpt>
      <trkpt lat="45.62416" lon="6.53754">
        <ele>2176.081543</ele>
      </trkpt>
      <trkpt lat="45.62412" lon="6.53747">
        <ele>2174.158936</ele>
      </trkpt>
      <trkpt lat="45.62407" lon="6.53742">
        <ele>2173.197754</ele>
      </trkpt>
      <trkpt lat="45.62404" lon="6.53738">
        <ele>2169.832764</ele>
      </trkpt>
      <trkpt lat="45.62401" lon="6.53737">
        <ele>2167.910156</ele>
      </trkpt>
      <trkpt lat="45.62398" lon="6.53733">
        <ele>2166.948975</ele>
      </trkpt>
      <trkpt lat="45.62395" lon="6.53732">
        <ele>2165.026367</ele>
      </trkpt>
      <trkpt lat="45.62392" lon="6.53729">
        <ele>2164.064941</ele>
      </trkpt>
      <trkpt lat="45.6239" lon="6.53723">
        <ele>2161.181152</ele>
      </trkpt>
      <trkpt lat="45.62387" lon="6.53719">
        <ele>2158.777832</ele>
      </trkpt>
      <trkpt lat="45.62383" lon="6.53717">
        <ele>2156.855225</ele>
      </trkpt>
      <trkpt lat="45.62381" lon="6.53715">
        <ele>2154.932373</ele>
      </trkpt>
      <trkpt lat="45.62379" lon="6.53713">
        <ele>2153.009766</ele>
      </trkpt>
      <trkpt lat="45.62378" lon="6.53715">
        <ele>2152.04834</ele>
      </trkpt>
      <trkpt lat="45.62375" lon="6.53716">
        <ele>2151.087158</ele>
      </trkpt>
      <trkpt lat="45.62374" lon="6.53713">
        <ele>2149.164551</ele>
      </trkpt>
      <trkpt lat="45.62372" lon="6.53715">
        <ele>2146.76123</ele>
      </trkpt>
      <trkpt lat="45.6237" lon="6.53719">
        <ele>2145.800049</ele>
      </trkpt>
      <trkpt lat="45.62368" lon="6.53717">
        <ele>2144.838623</ele>
      </trkpt>
      <trkpt lat="45.62366" lon="6.53717">
        <ele>2142.916016</ele>
      </trkpt>
      <trkpt lat="45.62365" lon="6.53723">
        <ele>2141.954834</ele>
      </trkpt>
      <trkpt lat="45.62361" lon="6.53723">
        <ele>2140.032227</ele>
      </trkpt>
      <trkpt lat="45.62359" lon="6.53722">
        <ele>2139.070557</ele>
      </trkpt>
      <trkpt lat="45.62357" lon="6.53728">
        <ele>2138.109375</ele>
      </trkpt>
      <trkpt lat="45.62356" lon="6.53732">
        <ele>2136.186768</ele>
      </trkpt>
      <trkpt lat="45.62354" lon="6.53733">
        <ele>2136.186768</ele>
      </trkpt>
      <trkpt lat="45.62349" lon="6.5374">
        <ele>2135.225342</ele>
      </trkpt>
      <trkpt lat="45.62347" lon="6.5374">
        <ele>2136.186768</ele>
      </trkpt>
      <trkpt lat="45.62341" lon="6.53742">
        <ele>2133.783447</ele>
      </trkpt>
      <trkpt lat="45.62334" lon="6.53746">
        <ele>2131.86084</ele>
      </trkpt>
      <trkpt lat="45.62333" lon="6.53753">
        <ele>2131.86084</ele>
      </trkpt>
      <trkpt lat="45.62332" lon="6.53757">
        <ele>2129.938232</ele>
      </trkpt>
      <trkpt lat="45.62327" lon="6.53759">
        <ele>2128.015625</ele>
      </trkpt>
      <trkpt lat="45.62321" lon="6.53758">
        <ele>2126.093018</ele>
      </trkpt>
      <trkpt lat="45.62317" lon="6.53757">
        <ele>2125.131592</ele>
      </trkpt>
      <trkpt lat="45.62311" lon="6.53761">
        <ele>2121.766846</ele>
      </trkpt>
      <trkpt lat="45.6231" lon="6.53763">
        <ele>2121.766846</ele>
      </trkpt>
      <trkpt lat="45.62307" lon="6.5377">
        <ele>2119.844238</ele>
      </trkpt>
      <trkpt lat="45.62306" lon="6.53776">
        <ele>2117.921631</ele>
      </trkpt>
      <trkpt lat="45.62304" lon="6.53781">
        <ele>2115.999023</ele>
      </trkpt>
      <trkpt lat="45.623" lon="6.53783">
        <ele>2114.076416</ele>
      </trkpt>
      <trkpt lat="45.62296" lon="6.53784">
        <ele>2112.153809</ele>
      </trkpt>
      <trkpt lat="45.62292" lon="6.53787">
        <ele>2110.231201</ele>
      </trkpt>
      <trkpt lat="45.62288" lon="6.53788">
        <ele>2107.827881</ele>
      </trkpt>
      <trkpt lat="45.62279" lon="6.53787">
        <ele>2105.905029</ele>
      </trkpt>
      <trkpt lat="45.62276" lon="6.53789">
        <ele>2104.943848</ele>
      </trkpt>
      <trkpt lat="45.62274" lon="6.53793">
        <ele>2103.982666</ele>
      </trkpt>
      <trkpt lat="45.62267" lon="6.53796">
        <ele>2102.059814</ele>
      </trkpt>
      <trkpt lat="45.62265" lon="6.53796">
        <ele>2101.098633</ele>
      </trkpt>
      <trkpt lat="45.62263" lon="6.53794">
        <ele>2101.098633</ele>
      </trkpt>
      <trkpt lat="45.62261" lon="6.53793">
        <ele>2101.098633</ele>
      </trkpt>
      <trkpt lat="45.62251" lon="6.53793">
        <ele>2098.2146</ele>
      </trkpt>
      <trkpt lat="45.62241" lon="6.53789">
        <ele>2095.811523</ele>
      </trkpt>
      <trkpt lat="45.62237" lon="6.5379">
        <ele>2095.811523</ele>
      </trkpt>
      <trkpt lat="45.62232" lon="6.5379">
        <ele>2094.850098</ele>
      </trkpt>
      <trkpt lat="45.62229" lon="6.53795">
        <ele>2093.888916</ele>
      </trkpt>
      <trkpt lat="45.62227" lon="6.53798">
        <ele>2093.888916</ele>
      </trkpt>
      <trkpt lat="45.62224" lon="6.53808">
        <ele>2093.888916</ele>
      </trkpt>
      <trkpt lat="45.62223" lon="6.53818">
        <ele>2093.888916</ele>
      </trkpt>
      <trkpt lat="45.62223" lon="6.53821">
        <ele>2093.888916</ele>
      </trkpt>
      <trkpt lat="45.62222" lon="6.53825">
        <ele>2094.850098</ele>
      </trkpt>
      <trkpt lat="45.62218" lon="6.53828">
        <ele>2095.811523</ele>
      </trkpt>
      <trkpt lat="45.62209" lon="6.5383">
        <ele>2096.772705</ele>
      </trkpt>
      <trkpt lat="45.62206" lon="6.53837">
        <ele>2098.2146</ele>
      </trkpt>
      <trkpt lat="45.62202" lon="6.53838">
        <ele>2098.2146</ele>
      </trkpt>
      <trkpt lat="45.62199" lon="6.53843">
        <ele>2098.2146</ele>
      </trkpt>
      <trkpt lat="45.62197" lon="6.53847">
        <ele>2099.176025</ele>
      </trkpt>
      <trkpt lat="45.62187" lon="6.53848">
        <ele>2099.176025</ele>
      </trkpt>
      <trkpt lat="45.62189" lon="6.53852">
        <ele>2100.137451</ele>
      </trkpt>
      <trkpt lat="45.62188" lon="6.53855">
        <ele>2102.059814</ele>
      </trkpt>
      <trkpt lat="45.62187" lon="6.53861">
        <ele>2103.02124</ele>
      </trkpt>
      <trkpt lat="45.6218" lon="6.53862">
        <ele>2103.02124</ele>
      </trkpt>
      <trkpt lat="45.62175" lon="6.53863">
        <ele>2104.943848</ele>
      </trkpt>
      <trkpt lat="45.62172" lon="6.53868">
        <ele>2105.905029</ele>
      </trkpt>
      <trkpt lat="45.62173" lon="6.53876">
        <ele>2106.866455</ele>
      </trkpt>
      <trkpt lat="45.62168" lon="6.53879">
        <ele>2107.827881</ele>
      </trkpt>
      <trkpt lat="45.62163" lon="6.53885">
        <ele>2108.789307</ele>
      </trkpt>
      <trkpt lat="45.62167" lon="6.53895">
        <ele>2111.192627</ele>
      </trkpt>
      <trkpt lat="45.62165" lon="6.53903">
        <ele>2112.153809</ele>
      </trkpt>
      <trkpt lat="45.62165" lon="6.53911">
        <ele>2113.115234</ele>
      </trkpt>
      <trkpt lat="45.62167" lon="6.53922">
        <ele>2115.037842</ele>
      </trkpt>
      <trkpt lat="45.62165" lon="6.53926">
        <ele>2115.999023</ele>
      </trkpt>
      <trkpt lat="45.62162" lon="6.53934">
        <ele>2115.999023</ele>
      </trkpt>
      <trkpt lat="45.62161" lon="6.53945">
        <ele>2116.960449</ele>
      </trkpt>
      <trkpt lat="45.62159" lon="6.53957">
        <ele>2116.960449</ele>
      </trkpt>
      <trkpt lat="45.62159" lon="6.53962">
        <ele>2119.844238</ele>
      </trkpt>
      <trkpt lat="45.62158" lon="6.53969">
        <ele>2119.844238</ele>
      </trkpt>
      <trkpt lat="45.6216" lon="6.53973">
        <ele>2120.805664</ele>
      </trkpt>
      <trkpt lat="45.62158" lon="6.53977">
        <ele>2123.208984</ele>
      </trkpt>
      <trkpt lat="45.62157" lon="6.53982">
        <ele>2123.208984</ele>
      </trkpt>
      <trkpt lat="45.62152" lon="6.53985">
        <ele>2126.093018</ele>
      </trkpt>
      <trkpt lat="45.62152" lon="6.53989">
        <ele>2127.054443</ele>
      </trkpt>
      <trkpt lat="45.62154" lon="6.53992">
        <ele>2128.976807</ele>
      </trkpt>
      <trkpt lat="45.62159" lon="6.53999">
        <ele>2130.899658</ele>
      </trkpt>
      <trkpt lat="45.62162" lon="6.53998">
        <ele>2130.899658</ele>
      </trkpt>
      <trkpt lat="45.62167" lon="6.53997">
        <ele>2131.86084</ele>
      </trkpt>
      <trkpt lat="45.62168" lon="6.53998">
        <ele>2132.822021</ele>
      </trkpt>
      <trkpt lat="45.62168" lon="6.54005">
        <ele>2135.225342</ele>
      </trkpt>
      <trkpt lat="45.62167" lon="6.54016">
        <ele>2136.186768</ele>
      </trkpt>
      <trkpt lat="45.62169" lon="6.54028">
        <ele>2137.147949</ele>
      </trkpt>
      <trkpt lat="45.62168" lon="6.5404">
        <ele>2137.147949</ele>
      </trkpt>
      <trkpt lat="45.62169" lon="6.54049">
        <ele>2137.147949</ele>
      </trkpt>
      <trkpt lat="45.62171" lon="6.5406">
        <ele>2138.109375</ele>
      </trkpt>
      <trkpt lat="45.6217" lon="6.54069">
        <ele>2140.032227</ele>
      </trkpt>
      <trkpt lat="45.6217" lon="6.54075">
        <ele>2139.070557</ele>
      </trkpt>
      <trkpt lat="45.62173" lon="6.54082">
        <ele>2133.783447</ele>
      </trkpt>
      <trkpt lat="45.62173" lon="6.54094">
        <ele>2131.86084</ele>
      </trkpt>
      <trkpt lat="45.62176" lon="6.54109">
        <ele>2131.86084</ele>
      </trkpt>
      <trkpt lat="45.62177" lon="6.54125">
        <ele>2130.899658</ele>
      </trkpt>
      <trkpt lat="45.62182" lon="6.54138">
        <ele>2132.822021</ele>
      </trkpt>
      <trkpt lat="45.62182" lon="6.54149">
        <ele>2133.783447</ele>
      </trkpt>
      <trkpt lat="45.6218" lon="6.54154">
        <ele>2135.225342</ele>
      </trkpt>
      <trkpt lat="45.62179" lon="6.54168">
        <ele>2135.225342</ele>
      </trkpt>
      <trkpt lat="45.62175" lon="6.5418">
        <ele>2136.186768</ele>
      </trkpt>
      <trkpt lat="45.62176" lon="6.54189">
        <ele>2136.186768</ele>
      </trkpt>
      <trkpt lat="45.62171" lon="6.54208">
        <ele>2135.225342</ele>
      </trkpt>
      <trkpt lat="45.62172" lon="6.54214">
        <ele>2136.186768</ele>
      </trkpt>
      <trkpt lat="45.62173" lon="6.5422">
        <ele>2136.186768</ele>
      </trkpt>
      <trkpt lat="45.62176" lon="6.54226">
        <ele>2138.109375</ele>
      </trkpt>
      <trkpt lat="45.62177" lon="6.54229">
        <ele>2138.109375</ele>
      </trkpt>
      <trkpt lat="45.62178" lon="6.5423">
        <ele>2138.109375</ele>
      </trkpt>
      <trkpt lat="45.62175" lon="6.54241">
        <ele>2136.186768</ele>
      </trkpt>
      <trkpt lat="45.62172" lon="6.54246">
        <ele>2135.225342</ele>
      </trkpt>
      <trkpt lat="45.62171" lon="6.54248">
        <ele>2133.783447</ele>
      </trkpt>
      <trkpt lat="45.62166" lon="6.5426">
        <ele>2131.86084</ele>
      </trkpt>
      <trkpt lat="45.62164" lon="6.5427">
        <ele>2131.86084</ele>
      </trkpt>
      <trkpt lat="45.62164" lon="6.54273">
        <ele>2131.86084</ele>
      </trkpt>
      <trkpt lat="45.62167" lon="6.54287">
        <ele>2132.822021</ele>
      </trkpt>
      <trkpt lat="45.62168" lon="6.54289">
        <ele>2132.822021</ele>
      </trkpt>
      <trkpt lat="45.62171" lon="6.54295">
        <ele>2132.822021</ele>
      </trkpt>
      <trkpt lat="45.62169" lon="6.54307">
        <ele>2136.186768</ele>
      </trkpt>
      <trkpt lat="45.62166" lon="6.54318">
        <ele>2138.109375</ele>
      </trkpt>
      <trkpt lat="45.62163" lon="6.54323">
        <ele>2139.070557</ele>
      </trkpt>
      <trkpt lat="45.62161" lon="6.54326">
        <ele>2140.032227</ele>
      </trkpt>
      <trkpt lat="45.62162" lon="6.5434">
        <ele>2141.954834</ele>
      </trkpt>
      <trkpt lat="45.62162" lon="6.54344">
        <ele>2141.954834</ele>
      </trkpt>
      <trkpt lat="45.62159" lon="6.54355">
        <ele>2142.916016</ele>
      </trkpt>
      <trkpt lat="45.62159" lon="6.54355">
        <ele>2143</ele>
      </trkpt>
      <trkpt lat="45.62158" lon="6.54357">
        <ele>2144</ele>
      </trkpt>
      <trkpt lat="45.6215" lon="6.54367">
        <ele>2147</ele>
      </trkpt>
      <trkpt lat="45.62149" lon="6.54372">
        <ele>2149</ele>
      </trkpt>
      <trkpt lat="45.62144" lon="6.54387">
        <ele>2151</ele>
      </trkpt>
      <trkpt lat="45.62147" lon="6.54402">
        <ele>2152</ele>
      </trkpt>
      <trkpt lat="45.62153" lon="6.54411">
        <ele>2152</ele>
      </trkpt>
      <trkpt lat="45.62155" lon="6.54416">
        <ele>2152</ele>
      </trkpt>
      <trkpt lat="45.62155" lon="6.54423">
        <ele>2153</ele>
      </trkpt>
      <trkpt lat="45.6216" lon="6.54437">
        <ele>2156</ele>
      </trkpt>
      <trkpt lat="45.62164" lon="6.5444">
        <ele>2155</ele>
      </trkpt>
      <trkpt lat="45.62164" lon="6.54441">
        <ele>2154</ele>
      </trkpt>
      <trkpt lat="45.62163" lon="6.54444">
        <ele>2154</ele>
      </trkpt>
      <trkpt lat="45.62159" lon="6.54457">
        <ele>2153</ele>
      </trkpt>
      <trkpt lat="45.62156" lon="6.54459">
        <ele>2151</ele>
      </trkpt>
      <trkpt lat="45.62156" lon="6.54461">
        <ele>2151</ele>
      </trkpt>
      <trkpt lat="45.62154" lon="6.54466">
        <ele>2150</ele>
      </trkpt>
      <trkpt lat="45.62152" lon="6.54478">
        <ele>2149</ele>
      </trkpt>
      <trkpt lat="45.62153" lon="6.54484">
        <ele>2150</ele>
      </trkpt>
      <trkpt lat="45.62152" lon="6.54496">
        <ele>2147</ele>
      </trkpt>
      <trkpt lat="45.62151" lon="6.54505">
        <ele>2145</ele>
      </trkpt>
      <trkpt lat="45.62153" lon="6.5451">
        <ele>2146</ele>
      </trkpt>
      <trkpt lat="45.62156" lon="6.54515">
        <ele>2146</ele>
      </trkpt>
      <trkpt lat="45.62156" lon="6.54519">
        <ele>2147</ele>
      </trkpt>
      <trkpt lat="45.62158" lon="6.54521">
        <ele>2146</ele>
      </trkpt>
      <trkpt lat="45.62161" lon="6.54523">
        <ele>2146</ele>
      </trkpt>
      <trkpt lat="45.62163" lon="6.54533">
        <ele>2146</ele>
      </trkpt>
      <trkpt lat="45.62171" lon="6.54539">
        <ele>2149</ele>
      </trkpt>
      <trkpt lat="45.62173" lon="6.54546">
        <ele>2150</ele>
      </trkpt>
      <trkpt lat="45.62181" lon="6.54557">
        <ele>2151</ele>
      </trkpt>
      <trkpt lat="45.62185" lon="6.54561">
        <ele>2151</ele>
      </trkpt>
      <trkpt lat="45.62187" lon="6.54566">
        <ele>2152</ele>
      </trkpt>
      <trkpt lat="45.62195" lon="6.54575">
        <ele>2155</ele>
      </trkpt>
      <trkpt lat="45.62199" lon="6.54583">
        <ele>2156</ele>
      </trkpt>
      <trkpt lat="45.62201" lon="6.54593">
        <ele>2155</ele>
      </trkpt>
      <trkpt lat="45.622" lon="6.54602">
        <ele>2152</ele>
      </trkpt>
      <trkpt lat="45.62193" lon="6.5461">
        <ele>2152</ele>
      </trkpt>
      <trkpt lat="45.62189" lon="6.54619">
        <ele>2148</ele>
      </trkpt>
      <trkpt lat="45.62191" lon="6.54624">
        <ele>2146</ele>
      </trkpt>
      <trkpt lat="45.62195" lon="6.54629">
        <ele>2145</ele>
      </trkpt>
      <trkpt lat="45.62195" lon="6.54635">
        <ele>2144</ele>
      </trkpt>
      <trkpt lat="45.62196" lon="6.54637">
        <ele>2144</ele>
      </trkpt>
      <trkpt lat="45.62201" lon="6.54644">
        <ele>2142</ele>
      </trkpt>
      <trkpt lat="45.62204" lon="6.54651">
        <ele>2141</ele>
      </trkpt>
      <trkpt lat="45.62205" lon="6.54659">
        <ele>2142</ele>
      </trkpt>
      <trkpt lat="45.62204" lon="6.54665">
        <ele>2141</ele>
      </trkpt>
      <trkpt lat="45.62204" lon="6.54672">
        <ele>2138</ele>
      </trkpt>
      <trkpt lat="45.62207" lon="6.54673">
        <ele>2137</ele>
      </trkpt>
      <trkpt lat="45.62209" lon="6.54676">
        <ele>2135</ele>
      </trkpt>
      <trkpt lat="45.6221" lon="6.54678">
        <ele>2134</ele>
      </trkpt>
      <trkpt lat="45.62213" lon="6.54677">
        <ele>2133</ele>
      </trkpt>
      <trkpt lat="45.62213" lon="6.54684">
        <ele>2133</ele>
      </trkpt>
      <trkpt lat="45.62215" lon="6.54694">
        <ele>2131</ele>
      </trkpt>
      <trkpt lat="45.62216" lon="6.54696">
        <ele>2130</ele>
      </trkpt>
      <trkpt lat="45.62216" lon="6.54706">
        <ele>2128</ele>
      </trkpt>
      <trkpt lat="45.62215" lon="6.54713">
        <ele>2127</ele>
      </trkpt>
      <trkpt lat="45.62214" lon="6.54721">
        <ele>2126</ele>
      </trkpt>
      <trkpt lat="45.62215" lon="6.54731">
        <ele>2126</ele>
      </trkpt>
      <trkpt lat="45.62217" lon="6.54733">
        <ele>2126</ele>
      </trkpt>
      <trkpt lat="45.62219" lon="6.54738">
        <ele>2126</ele>
      </trkpt>
      <trkpt lat="45.62221" lon="6.5475">
        <ele>2126</ele>
      </trkpt>
      <trkpt lat="45.62222" lon="6.54765">
        <ele>2124</ele>
      </trkpt>
      <trkpt lat="45.62222" lon="6.5477">
        <ele>2123</ele>
      </trkpt>
      <trkpt lat="45.62226" lon="6.54785">
        <ele>2123</ele>
      </trkpt>
      <trkpt lat="45.62233" lon="6.54806">
        <ele>2122</ele>
      </trkpt>
      <trkpt lat="45.62244" lon="6.54826">
        <ele>2120</ele>
      </trkpt>
      <trkpt lat="45.62257" lon="6.54841">
        <ele>2119</ele>
      </trkpt>
      <trkpt lat="45.62264" lon="6.54852">
        <ele>2119</ele>
      </trkpt>
      <trkpt lat="45.62271" lon="6.54863">
        <ele>2120</ele>
      </trkpt>
      <trkpt lat="45.6227" lon="6.54867">
        <ele>2118</ele>
      </trkpt>
      <trkpt lat="45.62269" lon="6.5487">
        <ele>2117</ele>
      </trkpt>
      <trkpt lat="45.62268" lon="6.54878">
        <ele>2116</ele>
      </trkpt>
      <trkpt lat="45.62268" lon="6.54882">
        <ele>2116</ele>
      </trkpt>
      <trkpt lat="45.62272" lon="6.54896">
        <ele>2116</ele>
      </trkpt>
      <trkpt lat="45.62278" lon="6.54906">
        <ele>2116</ele>
      </trkpt>
      <trkpt lat="45.62281" lon="6.54909">
        <ele>2117</ele>
      </trkpt>
      <trkpt lat="45.62286" lon="6.54925">
        <ele>2118</ele>
      </trkpt>
      <trkpt lat="45.62287" lon="6.54932">
        <ele>2120</ele>
      </trkpt>
      <trkpt lat="45.62288" lon="6.54941">
        <ele>2121</ele>
      </trkpt>
      <trkpt lat="45.62288" lon="6.54947">
        <ele>2122</ele>
      </trkpt>
      <trkpt lat="45.62289" lon="6.5495">
        <ele>2123</ele>
      </trkpt>
      <trkpt lat="45.62292" lon="6.54961">
        <ele>2126</ele>
      </trkpt>
      <trkpt lat="45.62294" lon="6.54976">
        <ele>2128</ele>
      </trkpt>
      <trkpt lat="45.62296" lon="6.54998">
        <ele>2128</ele>
      </trkpt>
      <trkpt lat="45.62301" lon="6.55017">
        <ele>2129</ele>
      </trkpt>
      <trkpt lat="45.62304" lon="6.55035">
        <ele>2133</ele>
      </trkpt>
      <trkpt lat="45.62301" lon="6.55048">
        <ele>2132</ele>
      </trkpt>
      <trkpt lat="45.62302" lon="6.55058">
        <ele>2132</ele>
      </trkpt>
      <trkpt lat="45.62303" lon="6.55064">
        <ele>2132</ele>
      </trkpt>
      <trkpt lat="45.62307" lon="6.55068">
        <ele>2132</ele>
      </trkpt>
      <trkpt lat="45.62312" lon="6.55073">
        <ele>2133</ele>
      </trkpt>
      <trkpt lat="45.62318" lon="6.5508">
        <ele>2134</ele>
      </trkpt>
      <trkpt lat="45.6232" lon="6.5508">
        <ele>2134</ele>
      </trkpt>
      <trkpt lat="45.62324" lon="6.55081">
        <ele>2133</ele>
      </trkpt>
      <trkpt lat="45.62326" lon="6.55088">
        <ele>2132</ele>
      </trkpt>
      <trkpt lat="45.62324" lon="6.55094">
        <ele>2131</ele>
      </trkpt>
      <trkpt lat="45.62323" lon="6.55101">
        <ele>2128</ele>
      </trkpt>
      <trkpt lat="45.62331" lon="6.55112">
        <ele>2126</ele>
      </trkpt>
      <trkpt lat="45.62336" lon="6.55126">
        <ele>2126</ele>
      </trkpt>
      <trkpt lat="45.62339" lon="6.55131">
        <ele>2124</ele>
      </trkpt>
      <trkpt lat="45.62342" lon="6.55134">
        <ele>2125</ele>
      </trkpt>
      <trkpt lat="45.62346" lon="6.55143">
        <ele>2125</ele>
      </trkpt>
      <trkpt lat="45.62348" lon="6.55148">
        <ele>2125</ele>
      </trkpt>
      <trkpt lat="45.62346" lon="6.55157">
        <ele>2125</ele>
      </trkpt>
      <trkpt lat="45.62347" lon="6.55162">
        <ele>2128</ele>
      </trkpt>
      <trkpt lat="45.6235" lon="6.55166">
        <ele>2128</ele>
      </trkpt>
      <trkpt lat="45.62355" lon="6.55168">
        <ele>2129</ele>
      </trkpt>
      <trkpt lat="45.62362" lon="6.55167">
        <ele>2130</ele>
      </trkpt>
      <trkpt lat="45.62366" lon="6.55173">
        <ele>2128</ele>
      </trkpt>
      <trkpt lat="45.62368" lon="6.55176">
        <ele>2127</ele>
      </trkpt>
      <trkpt lat="45.62376" lon="6.55192">
        <ele>2127</ele>
      </trkpt>
      <trkpt lat="45.62384" lon="6.55201">
        <ele>2127</ele>
      </trkpt>
      <trkpt lat="45.62388" lon="6.55207">
        <ele>2125</ele>
      </trkpt>
      <trkpt lat="45.62388" lon="6.55209">
        <ele>2124</ele>
      </trkpt>
      <trkpt lat="45.62392" lon="6.5522">
        <ele>2121</ele>
      </trkpt>
      <trkpt lat="45.62393" lon="6.55223">
        <ele>2121</ele>
      </trkpt>
      <trkpt lat="45.62395" lon="6.55226">
        <ele>2121</ele>
      </trkpt>
      <trkpt lat="45.62395" lon="6.55231">
        <ele>2120</ele>
      </trkpt>
      <trkpt lat="45.62399" lon="6.5524">
        <ele>2120</ele>
      </trkpt>
      <trkpt lat="45.62399" lon="6.55243">
        <ele>2119</ele>
      </trkpt>
      <trkpt lat="45.624" lon="6.55247">
        <ele>2119</ele>
      </trkpt>
      <trkpt lat="45.62402" lon="6.55259">
        <ele>2118</ele>
      </trkpt>
      <trkpt lat="45.62404" lon="6.55265">
        <ele>2117</ele>
      </trkpt>
      <trkpt lat="45.62411" lon="6.55276">
        <ele>2116</ele>
      </trkpt>
      <trkpt lat="45.62414" lon="6.55297">
        <ele>2115</ele>
      </trkpt>
      <trkpt lat="45.62417" lon="6.55313">
        <ele>2117</ele>
      </trkpt>
      <trkpt lat="45.62423" lon="6.55329">
        <ele>2118</ele>
      </trkpt>
      <trkpt lat="45.62428" lon="6.55355">
        <ele>2118</ele>
      </trkpt>
      <trkpt lat="45.62432" lon="6.55376">
        <ele>2118</ele>
      </trkpt>
      <trkpt lat="45.62434" lon="6.55397">
        <ele>2119</ele>
      </trkpt>
      <trkpt lat="45.62434" lon="6.55413">
        <ele>2120</ele>
      </trkpt>
      <trkpt lat="45.62436" lon="6.55428">
        <ele>2120</ele>
      </trkpt>
      <trkpt lat="45.62437" lon="6.55432">
        <ele>2120</ele>
      </trkpt>
      <trkpt lat="45.62437" lon="6.55441">
        <ele>2117</ele>
      </trkpt>
      <trkpt lat="45.6244" lon="6.55442">
        <ele>2117</ele>
      </trkpt>
      <trkpt lat="45.62444" lon="6.55445">
        <ele>2116</ele>
      </trkpt>
      <trkpt lat="45.6245" lon="6.55453">
        <ele>2113</ele>
      </trkpt>
      <trkpt lat="45.62459" lon="6.55457">
        <ele>2110</ele>
      </trkpt>
      <trkpt lat="45.62464" lon="6.55462">
        <ele>2109</ele>
      </trkpt>
      <trkpt lat="45.62468" lon="6.55462">
        <ele>2108</ele>
      </trkpt>
      <trkpt lat="45.6247" lon="6.55465">
        <ele>2106</ele>
      </trkpt>
      <trkpt lat="45.62472" lon="6.5547">
        <ele>2106</ele>
      </trkpt>
      <trkpt lat="45.62474" lon="6.55476">
        <ele>2105</ele>
      </trkpt>
      <trkpt lat="45.62474" lon="6.55479">
        <ele>2104</ele>
      </trkpt>
      <trkpt lat="45.6248" lon="6.55481">
        <ele>2104</ele>
      </trkpt>
      <trkpt lat="45.62489" lon="6.55486">
        <ele>2102</ele>
      </trkpt>
      <trkpt lat="45.62494" lon="6.55493">
        <ele>2099</ele>
      </trkpt>
      <trkpt lat="45.62499" lon="6.55499">
        <ele>2097</ele>
      </trkpt>
      <trkpt lat="45.62506" lon="6.55508">
        <ele>2095</ele>
      </trkpt>
      <trkpt lat="45.6251" lon="6.55512">
        <ele>2094</ele>
      </trkpt>
      <trkpt lat="45.62517" lon="6.55522">
        <ele>2093</ele>
      </trkpt>
      <trkpt lat="45.62521" lon="6.55532">
        <ele>2090</ele>
      </trkpt>
      <trkpt lat="45.62526" lon="6.55538">
        <ele>2088</ele>
      </trkpt>
      <trkpt lat="45.62533" lon="6.55549">
        <ele>2085</ele>
      </trkpt>
      <trkpt lat="45.62537" lon="6.55551">
        <ele>2084</ele>
      </trkpt>
      <trkpt lat="45.6254" lon="6.55558">
        <ele>2082</ele>
      </trkpt>
      <trkpt lat="45.62541" lon="6.55562">
        <ele>2082</ele>
      </trkpt>
      <trkpt lat="45.62547" lon="6.55566">
        <ele>2081</ele>
      </trkpt>
      <trkpt lat="45.6255" lon="6.55567">
        <ele>2080</ele>
      </trkpt>
      <trkpt lat="45.6256" lon="6.55579">
        <ele>2078</ele>
      </trkpt>
      <trkpt lat="45.62568" lon="6.5559">
        <ele>2076</ele>
      </trkpt>
      <trkpt lat="45.62574" lon="6.55596">
        <ele>2073</ele>
      </trkpt>
      <trkpt lat="45.62579" lon="6.55599">
        <ele>2071</ele>
      </trkpt>
      <trkpt lat="45.6259" lon="6.5561">
        <ele>2069</ele>
      </trkpt>
      <trkpt lat="45.62599" lon="6.55623">
        <ele>2068</ele>
      </trkpt>
      <trkpt lat="45.62603" lon="6.55625">
        <ele>2066</ele>
      </trkpt>
      <trkpt lat="45.62609" lon="6.55631">
        <ele>2063</ele>
      </trkpt>
      <trkpt lat="45.62622" lon="6.55638">
        <ele>2061</ele>
      </trkpt>
      <trkpt lat="45.6263" lon="6.55643">
        <ele>2060</ele>
      </trkpt>
      <trkpt lat="45.62635" lon="6.55649">
        <ele>2058</ele>
      </trkpt>
      <trkpt lat="45.62636" lon="6.55651">
        <ele>2056</ele>
      </trkpt>
      <trkpt lat="45.62642" lon="6.55661">
        <ele>2052</ele>
      </trkpt>
      <trkpt lat="45.62648" lon="6.55669">
        <ele>2050</ele>
      </trkpt>
      <trkpt lat="45.62652" lon="6.55679">
        <ele>2048</ele>
      </trkpt>
      <trkpt lat="45.62656" lon="6.55685">
        <ele>2046</ele>
      </trkpt>
      <trkpt lat="45.62665" lon="6.55691">
        <ele>2044</ele>
      </trkpt>
      <trkpt lat="45.6267" lon="6.55695">
        <ele>2042</ele>
      </trkpt>
      <trkpt lat="45.62678" lon="6.55707">
        <ele>2039</ele>
      </trkpt>
      <trkpt lat="45.62679" lon="6.5571">
        <ele>2038</ele>
      </trkpt>
      <trkpt lat="45.62682" lon="6.55722">
        <ele>2035</ele>
      </trkpt>
      <trkpt lat="45.62683" lon="6.55724">
        <ele>2035</ele>
      </trkpt>
      <trkpt lat="45.62683" lon="6.55731">
        <ele>2033</ele>
      </trkpt>
      <trkpt lat="45.62688" lon="6.55752">
        <ele>2031</ele>
      </trkpt>
      <trkpt lat="45.62696" lon="6.55767">
        <ele>2027</ele>
      </trkpt>
      <trkpt lat="45.62703" lon="6.55774">
        <ele>2026</ele>
      </trkpt>
      <trkpt lat="45.6271" lon="6.55786">
        <ele>2024</ele>
      </trkpt>
      <trkpt lat="45.62711" lon="6.5579">
        <ele>2022</ele>
      </trkpt>
      <trkpt lat="45.62714" lon="6.558">
        <ele>2020</ele>
      </trkpt>
      <trkpt lat="45.62717" lon="6.55803">
        <ele>2018</ele>
      </trkpt>
      <trkpt lat="45.62725" lon="6.55805">
        <ele>2016</ele>
      </trkpt>
      <trkpt lat="45.62725" lon="6.55812">
        <ele>2014</ele>
      </trkpt>
      <trkpt lat="45.62733" lon="6.5582">
        <ele>2012</ele>
      </trkpt>
      <trkpt lat="45.62738" lon="6.55832">
        <ele>2009</ele>
      </trkpt>
      <trkpt lat="45.62744" lon="6.55851">
        <ele>2007</ele>
      </trkpt>
      <trkpt lat="45.62751" lon="6.55869">
        <ele>2005</ele>
      </trkpt>
      <trkpt lat="45.62759" lon="6.55881">
        <ele>2001</ele>
      </trkpt>
      <trkpt lat="45.62769" lon="6.55897">
        <ele>1999</ele>
      </trkpt>
      <trkpt lat="45.62776" lon="6.55896">
        <ele>1998</ele>
      </trkpt>
      <trkpt lat="45.6278" lon="6.55901">
        <ele>1996</ele>
      </trkpt>
      <trkpt lat="45.62784" lon="6.55917">
        <ele>1994</ele>
      </trkpt>
      <trkpt lat="45.62783" lon="6.55932">
        <ele>1992</ele>
      </trkpt>
      <trkpt lat="45.62783" lon="6.55935">
        <ele>1991</ele>
      </trkpt>
      <trkpt lat="45.62786" lon="6.55947">
        <ele>1988</ele>
      </trkpt>
      <trkpt lat="45.6279" lon="6.55949">
        <ele>1986</ele>
      </trkpt>
      <trkpt lat="45.62796" lon="6.55946">
        <ele>1984</ele>
      </trkpt>
      <trkpt lat="45.628" lon="6.55952">
        <ele>1983</ele>
      </trkpt>
      <trkpt lat="45.62805" lon="6.55952">
        <ele>1982</ele>
      </trkpt>
      <trkpt lat="45.62814" lon="6.55955">
        <ele>1978</ele>
      </trkpt>
      <trkpt lat="45.62824" lon="6.55958">
        <ele>1974</ele>
      </trkpt>
      <trkpt lat="45.62829" lon="6.55963">
        <ele>1973</ele>
      </trkpt>
      <trkpt lat="45.62837" lon="6.55969">
        <ele>1969</ele>
      </trkpt>
      <trkpt lat="45.62846" lon="6.55975">
        <ele>1966</ele>
      </trkpt>
      <trkpt lat="45.62855" lon="6.55976">
        <ele>1963</ele>
      </trkpt>
      <trkpt lat="45.62868" lon="6.55978">
        <ele>1961</ele>
      </trkpt>
      <trkpt lat="45.62879" lon="6.55985">
        <ele>1959</ele>
      </trkpt>
      <trkpt lat="45.62881" lon="6.55989">
        <ele>1958</ele>
      </trkpt>
      <trkpt lat="45.62883" lon="6.55996">
        <ele>1956</ele>
      </trkpt>
      <trkpt lat="45.62892" lon="6.55998">
        <ele>1954</ele>
      </trkpt>
      <trkpt lat="45.62895" lon="6.56003">
        <ele>1954</ele>
      </trkpt>
      <trkpt lat="45.629" lon="6.56007">
        <ele>1952</ele>
      </trkpt>
      <trkpt lat="45.62905" lon="6.56005">
        <ele>1951</ele>
      </trkpt>
      <trkpt lat="45.62915" lon="6.56015">
        <ele>1949</ele>
      </trkpt>
      <trkpt lat="45.62922" lon="6.56027">
        <ele>1947</ele>
      </trkpt>
      <trkpt lat="45.62927" lon="6.56041">
        <ele>1945</ele>
      </trkpt>
      <trkpt lat="45.62928" lon="6.56044">
        <ele>1943</ele>
      </trkpt>
      <trkpt lat="45.62939" lon="6.56053">
        <ele>1940</ele>
      </trkpt>
      <trkpt lat="45.62945" lon="6.56061">
        <ele>1938</ele>
      </trkpt>
      <trkpt lat="45.62948" lon="6.56069">
        <ele>1937</ele>
      </trkpt>
      <trkpt lat="45.6295" lon="6.56071">
        <ele>1936</ele>
      </trkpt>
      <trkpt lat="45.62954" lon="6.56073">
        <ele>1935</ele>
      </trkpt>
      <trkpt lat="45.62959" lon="6.5608">
        <ele>1934</ele>
      </trkpt>
      <trkpt lat="45.62962" lon="6.5609">
        <ele>1932</ele>
      </trkpt>
      <trkpt lat="45.62967" lon="6.56096">
        <ele>1931</ele>
      </trkpt>
      <trkpt lat="45.62972" lon="6.56108">
        <ele>1928</ele>
      </trkpt>
      <trkpt lat="45.62978" lon="6.56117">
        <ele>1925</ele>
      </trkpt>
      <trkpt lat="45.62981" lon="6.56132">
        <ele>1922</ele>
      </trkpt>
      <trkpt lat="45.62982" lon="6.56143">
        <ele>1920</ele>
      </trkpt>
      <trkpt lat="45.62988" lon="6.56146">
        <ele>1918</ele>
      </trkpt>
      <trkpt lat="45.62992" lon="6.56156">
        <ele>1915</ele>
      </trkpt>
      <trkpt lat="45.62993" lon="6.56158">
        <ele>1914</ele>
      </trkpt>
      <trkpt lat="45.62995" lon="6.56161">
        <ele>1913</ele>
      </trkpt>
      <trkpt lat="45.62997" lon="6.56167">
        <ele>1912</ele>
      </trkpt>
      <trkpt lat="45.63002" lon="6.56171">
        <ele>1910</ele>
      </trkpt>
      <trkpt lat="45.63003" lon="6.56177">
        <ele>1909</ele>
      </trkpt>
      <trkpt lat="45.63008" lon="6.56189">
        <ele>1905</ele>
      </trkpt>
      <trkpt lat="45.63014" lon="6.56195">
        <ele>1904</ele>
      </trkpt>
      <trkpt lat="45.63016" lon="6.56203">
        <ele>1902</ele>
      </trkpt>
      <trkpt lat="45.63016" lon="6.56208">
        <ele>1902</ele>
      </trkpt>
      <trkpt lat="45.63017" lon="6.56214">
        <ele>1899</ele>
      </trkpt>
      <trkpt lat="45.63018" lon="6.56216">
        <ele>1899</ele>
      </trkpt>
      <trkpt lat="45.63022" lon="6.56225">
        <ele>1897</ele>
      </trkpt>
      <trkpt lat="45.63023" lon="6.5623">
        <ele>1896</ele>
      </trkpt>
      <trkpt lat="45.63029" lon="6.56237">
        <ele>1895</ele>
      </trkpt>
      <trkpt lat="45.63029" lon="6.56243">
        <ele>1892</ele>
      </trkpt>
      <trkpt lat="45.63032" lon="6.56241">
        <ele>1891</ele>
      </trkpt>
      <trkpt lat="45.63035" lon="6.56246">
        <ele>1889</ele>
      </trkpt>
      <trkpt lat="45.63035" lon="6.56251">
        <ele>1887</ele>
      </trkpt>
      <trkpt lat="45.63042" lon="6.56254">
        <ele>1884</ele>
      </trkpt>
      <trkpt lat="45.63046" lon="6.56256">
        <ele>1884</ele>
      </trkpt>
      <trkpt lat="45.63049" lon="6.56259">
        <ele>1883</ele>
      </trkpt>
      <trkpt lat="45.63051" lon="6.5626">
        <ele>1881</ele>
      </trkpt>
      <trkpt lat="45.63056" lon="6.56263">
        <ele>1880</ele>
      </trkpt>
      <trkpt lat="45.63057" lon="6.56271">
        <ele>1877</ele>
      </trkpt>
      <trkpt lat="45.63066" lon="6.56265">
        <ele>1875</ele>
      </trkpt>
      <trkpt lat="45.63073" lon="6.56265">
        <ele>1873</ele>
      </trkpt>
      <trkpt lat="45.63075" lon="6.56276">
        <ele>1872</ele>
      </trkpt>
      <trkpt lat="45.6308" lon="6.56283">
        <ele>1869</ele>
      </trkpt>
      <trkpt lat="45.63082" lon="6.56284">
        <ele>1867</ele>
      </trkpt>
      <trkpt lat="45.63085" lon="6.56286">
        <ele>1865</ele>
      </trkpt>
      <trkpt lat="45.63087" lon="6.56286">
        <ele>1864</ele>
      </trkpt>
      <trkpt lat="45.63089" lon="6.56277">
        <ele>1863</ele>
      </trkpt>
      <trkpt lat="45.63091" lon="6.56275">
        <ele>1862</ele>
      </trkpt>
      <trkpt lat="45.63093" lon="6.56269">
        <ele>1860</ele>
      </trkpt>
      <trkpt lat="45.63096" lon="6.5627">
        <ele>1860</ele>
      </trkpt>
      <trkpt lat="45.63096" lon="6.56275">
        <ele>1860</ele>
      </trkpt>
      <trkpt lat="45.63102" lon="6.56286">
        <ele>1856</ele>
      </trkpt>
      <trkpt lat="45.63105" lon="6.56295">
        <ele>1854</ele>
      </trkpt>
      <trkpt lat="45.6311" lon="6.56288">
        <ele>1853</ele>
      </trkpt>
      <trkpt lat="45.63111" lon="6.56287">
        <ele>1853</ele>
      </trkpt>
      <trkpt lat="45.63113" lon="6.56291">
        <ele>1851</ele>
      </trkpt>
      <trkpt lat="45.63116" lon="6.56296">
        <ele>1849</ele>
      </trkpt>
      <trkpt lat="45.63121" lon="6.56303">
        <ele>1848</ele>
      </trkpt>
      <trkpt lat="45.63124" lon="6.56304">
        <ele>1847</ele>
      </trkpt>
      <trkpt lat="45.63126" lon="6.56309">
        <ele>1845</ele>
      </trkpt>
      <trkpt lat="45.63129" lon="6.56313">
        <ele>1843</ele>
      </trkpt>
      <trkpt lat="45.63132" lon="6.56317">
        <ele>1842</ele>
      </trkpt>
      <trkpt lat="45.63134" lon="6.56329">
        <ele>1841</ele>
      </trkpt>
      <trkpt lat="45.63136" lon="6.56332">
        <ele>1840</ele>
      </trkpt>
      <trkpt lat="45.6314" lon="6.56335">
        <ele>1839</ele>
      </trkpt>
      <trkpt lat="45.63141" lon="6.56342">
        <ele>1838</ele>
      </trkpt>
      <trkpt lat="45.63146" lon="6.56358">
        <ele>1835</ele>
      </trkpt>
      <trkpt lat="45.63152" lon="6.56374">
        <ele>1834</ele>
      </trkpt>
      <trkpt lat="45.63154" lon="6.56389">
        <ele>1832</ele>
      </trkpt>
      <trkpt lat="45.63155" lon="6.56395">
        <ele>1833</ele>
      </trkpt>
      <trkpt lat="45.63157" lon="6.56397">
        <ele>1832</ele>
      </trkpt>
      <trkpt lat="45.6316" lon="6.56412">
        <ele>1830</ele>
      </trkpt>
      <trkpt lat="45.63165" lon="6.56424">
        <ele>1826</ele>
      </trkpt>
      <trkpt lat="45.63169" lon="6.56435">
        <ele>1823</ele>
      </trkpt>
      <trkpt lat="45.63179" lon="6.56445">
        <ele>1820</ele>
      </trkpt>
      <trkpt lat="45.6319" lon="6.56455">
        <ele>1818</ele>
      </trkpt>
      <trkpt lat="45.63199" lon="6.56459">
        <ele>1816</ele>
      </trkpt>
      <trkpt lat="45.63204" lon="6.56468">
        <ele>1814</ele>
      </trkpt>
      <trkpt lat="45.63208" lon="6.56468">
        <ele>1811</ele>
      </trkpt>
      <trkpt lat="45.63211" lon="6.56466">
        <ele>1811</ele>
      </trkpt>
      <trkpt lat="45.63214" lon="6.56468">
        <ele>1810</ele>
      </trkpt>
      <trkpt lat="45.63217" lon="6.56484">
        <ele>1807</ele>
      </trkpt>
      <trkpt lat="45.63216" lon="6.56485">
        <ele>1808</ele>
      </trkpt>
      <trkpt lat="45.63215" lon="6.5649">
        <ele>1807</ele>
      </trkpt>
      <trkpt lat="45.63216" lon="6.56494">
        <ele>1806</ele>
      </trkpt>
      <trkpt lat="45.63226" lon="6.56501">
        <ele>1804</ele>
      </trkpt>
      <trkpt lat="45.63228" lon="6.56502">
        <ele>1803</ele>
      </trkpt>
      <trkpt lat="45.63233" lon="6.5651">
        <ele>1800</ele>
      </trkpt>
      <trkpt lat="45.63235" lon="6.56515">
        <ele>1799</ele>
      </trkpt>
      <trkpt lat="45.6324" lon="6.56524">
        <ele>1797</ele>
      </trkpt>
      <trkpt lat="45.63245" lon="6.56531">
        <ele>1794</ele>
      </trkpt>
      <trkpt lat="45.63245" lon="6.56533">
        <ele>1795</ele>
      </trkpt>
      <trkpt lat="45.63248" lon="6.56537">
        <ele>1794</ele>
      </trkpt>
      <trkpt lat="45.63255" lon="6.56528">
        <ele>1793</ele>
      </trkpt>
      <trkpt lat="45.63259" lon="6.56534">
        <ele>1791</ele>
      </trkpt>
      <trkpt lat="45.63262" lon="6.56532">
        <ele>1790</ele>
      </trkpt>
      <trkpt lat="45.63267" lon="6.56529">
        <ele>1788</ele>
      </trkpt>
      <trkpt lat="45.63271" lon="6.56542">
        <ele>1786</ele>
      </trkpt>
      <trkpt lat="45.63278" lon="6.56541">
        <ele>1785</ele>
      </trkpt>
      <trkpt lat="45.63283" lon="6.56545">
        <ele>1783</ele>
      </trkpt>
      <trkpt lat="45.63286" lon="6.56553">
        <ele>1781</ele>
      </trkpt>
      <trkpt lat="45.6329" lon="6.56559">
        <ele>1779</ele>
      </trkpt>
      <trkpt lat="45.63296" lon="6.56557">
        <ele>1778</ele>
      </trkpt>
      <trkpt lat="45.63298" lon="6.56566">
        <ele>1777</ele>
      </trkpt>
      <trkpt lat="45.63296" lon="6.56568">
        <ele>1775</ele>
      </trkpt>
      <trkpt lat="45.633" lon="6.56578">
        <ele>1774</ele>
      </trkpt>
      <trkpt lat="45.63305" lon="6.56573">
        <ele>1772</ele>
      </trkpt>
      <trkpt lat="45.63309" lon="6.5656">
        <ele>1771</ele>
      </trkpt>
      <trkpt lat="45.63312" lon="6.5655">
        <ele>1768</ele>
      </trkpt>
      <trkpt lat="45.63313" lon="6.56542">
        <ele>1767</ele>
      </trkpt>
      <trkpt lat="45.63316" lon="6.56546">
        <ele>1765</ele>
      </trkpt>
      <trkpt lat="45.63325" lon="6.56549">
        <ele>1764</ele>
      </trkpt>
      <trkpt lat="45.63329" lon="6.56548">
        <ele>1763</ele>
      </trkpt>
      <trkpt lat="45.63336" lon="6.56545">
        <ele>1762</ele>
      </trkpt>
      <trkpt lat="45.63338" lon="6.56544">
        <ele>1762</ele>
      </trkpt>
      <trkpt lat="45.63339" lon="6.56548">
        <ele>1762</ele>
      </trkpt>
      <trkpt lat="45.63341" lon="6.56553">
        <ele>1761</ele>
      </trkpt>
      <trkpt lat="45.63346" lon="6.56558">
        <ele>1760</ele>
      </trkpt>
      <trkpt lat="45.6335" lon="6.56561">
        <ele>1759</ele>
      </trkpt>
      <trkpt lat="45.63352" lon="6.56563">
        <ele>1758</ele>
      </trkpt>
      <trkpt lat="45.63359" lon="6.56564">
        <ele>1756</ele>
      </trkpt>
      <trkpt lat="45.63367" lon="6.56568">
        <ele>1755</ele>
      </trkpt>
      <trkpt lat="45.63371" lon="6.56573">
        <ele>1754</ele>
      </trkpt>
      <trkpt lat="45.63378" lon="6.56574">
        <ele>1753</ele>
      </trkpt>
      <trkpt lat="45.63381" lon="6.56579">
        <ele>1751</ele>
      </trkpt>
      <trkpt lat="45.63382" lon="6.5659">
        <ele>1749</ele>
      </trkpt>
      <trkpt lat="45.63387" lon="6.56593">
        <ele>1748</ele>
      </trkpt>
      <trkpt lat="45.63395" lon="6.56592">
        <ele>1748</ele>
      </trkpt>
      <trkpt lat="45.634" lon="6.56594">
        <ele>1747</ele>
      </trkpt>
      <trkpt lat="45.63402" lon="6.56598">
        <ele>1747</ele>
      </trkpt>
      <trkpt lat="45.63405" lon="6.56602">
        <ele>1745</ele>
      </trkpt>
      <trkpt lat="45.6341" lon="6.56605">
        <ele>1744</ele>
      </trkpt>
      <trkpt lat="45.63411" lon="6.56611">
        <ele>1744</ele>
      </trkpt>
      <trkpt lat="45.6341" lon="6.56616">
        <ele>1743</ele>
      </trkpt>
      <trkpt lat="45.63407" lon="6.56621">
        <ele>1741</ele>
      </trkpt>
      <trkpt lat="45.63408" lon="6.56627">
        <ele>1738</ele>
      </trkpt>
      <trkpt lat="45.63404" lon="6.56629">
        <ele>1737</ele>
      </trkpt>
      <trkpt lat="45.63404" lon="6.56635">
        <ele>1735</ele>
      </trkpt>
      <trkpt lat="45.63408" lon="6.5664">
        <ele>1733</ele>
      </trkpt>
      <trkpt lat="45.63411" lon="6.56644">
        <ele>1732</ele>
      </trkpt>
      <trkpt lat="45.63415" lon="6.5665">
        <ele>1731</ele>
      </trkpt>
      <trkpt lat="45.63418" lon="6.56658">
        <ele>1729</ele>
      </trkpt>
      <trkpt lat="45.63414" lon="6.56659">
        <ele>1729</ele>
      </trkpt>
      <trkpt lat="45.63407" lon="6.56663">
        <ele>1728</ele>
      </trkpt>
      <trkpt lat="45.63404" lon="6.56665">
        <ele>1727</ele>
      </trkpt>
      <trkpt lat="45.63401" lon="6.56667">
        <ele>1727</ele>
      </trkpt>
      <trkpt lat="45.63398" lon="6.56673">
        <ele>1728</ele>
      </trkpt>
      <trkpt lat="45.63401" lon="6.56679">
        <ele>1727</ele>
      </trkpt>
      <trkpt lat="45.63404" lon="6.56684">
        <ele>1727</ele>
      </trkpt>
      <trkpt lat="45.63407" lon="6.56685">
        <ele>1728</ele>
      </trkpt>
      <trkpt lat="45.63414" lon="6.56687">
        <ele>1729</ele>
      </trkpt>
      <trkpt lat="45.63419" lon="6.56691">
        <ele>1728</ele>
      </trkpt>
      <trkpt lat="45.63421" lon="6.56693">
        <ele>1728</ele>
      </trkpt>
      <trkpt lat="45.6343" lon="6.56708">
        <ele>1727</ele>
      </trkpt>
      <trkpt lat="45.63435" lon="6.56721">
        <ele>1726</ele>
      </trkpt>
      <trkpt lat="45.63442" lon="6.56736">
        <ele>1724</ele>
      </trkpt>
      <trkpt lat="45.63444" lon="6.56749">
        <ele>1723</ele>
      </trkpt>
      <trkpt lat="45.63452" lon="6.56756">
        <ele>1722</ele>
      </trkpt>
      <trkpt lat="45.63454" lon="6.56758">
        <ele>1722</ele>
      </trkpt>
      <trkpt lat="45.63458" lon="6.56761">
        <ele>1721</ele>
      </trkpt>
      <trkpt lat="45.63468" lon="6.56768">
        <ele>1721</ele>
      </trkpt>
      <trkpt lat="45.63478" lon="6.56785">
        <ele>1720</ele>
      </trkpt>
      <trkpt lat="45.6348" lon="6.56801">
        <ele>1721</ele>
      </trkpt>
      <trkpt lat="45.63483" lon="6.56815">
        <ele>1718</ele>
      </trkpt>
      <trkpt lat="45.63485" lon="6.56831">
        <ele>1718</ele>
      </trkpt>
      <trkpt lat="45.6349" lon="6.56839">
        <ele>1718</ele>
      </trkpt>
      <trkpt lat="45.63496" lon="6.56843">
        <ele>1718</ele>
      </trkpt>
      <trkpt lat="45.63506" lon="6.56844">
        <ele>1718</ele>
      </trkpt>
      <trkpt lat="45.63514" lon="6.56852">
        <ele>1715</ele>
      </trkpt>
      <trkpt lat="45.6352" lon="6.56862">
        <ele>1714</ele>
      </trkpt>
      <trkpt lat="45.63524" lon="6.56869">
        <ele>1712</ele>
      </trkpt>
      <trkpt lat="45.63527" lon="6.56883">
        <ele>1710</ele>
      </trkpt>
      <trkpt lat="45.63531" lon="6.56891">
        <ele>1709</ele>
      </trkpt>
      <trkpt lat="45.6354" lon="6.56903">
        <ele>1707</ele>
      </trkpt>
      <trkpt lat="45.63547" lon="6.56907">
        <ele>1706</ele>
      </trkpt>
      <trkpt lat="45.63552" lon="6.56912">
        <ele>1704</ele>
      </trkpt>
      <trkpt lat="45.63557" lon="6.56916">
        <ele>1701</ele>
      </trkpt>
      <trkpt lat="45.6356" lon="6.56914">
        <ele>1701</ele>
      </trkpt>
      <trkpt lat="45.6357" lon="6.56912">
        <ele>1701</ele>
      </trkpt>
      <trkpt lat="45.63582" lon="6.56912">
        <ele>1701</ele>
      </trkpt>
      <trkpt lat="45.63586" lon="6.56921">
        <ele>1700</ele>
      </trkpt>
      <trkpt lat="45.63589" lon="6.56927">
        <ele>1698</ele>
      </trkpt>
      <trkpt lat="45.63594" lon="6.56932">
        <ele>1696</ele>
      </trkpt>
      <trkpt lat="45.63596" lon="6.56942">
        <ele>1694</ele>
      </trkpt>
      <trkpt lat="45.63599" lon="6.56947">
        <ele>1693</ele>
      </trkpt>
      <trkpt lat="45.63602" lon="6.5695">
        <ele>1693</ele>
      </trkpt>
      <trkpt lat="45.63615" lon="6.56957">
        <ele>1693</ele>
      </trkpt>
      <trkpt lat="45.63626" lon="6.56975">
        <ele>1692</ele>
      </trkpt>
      <trkpt lat="45.63632" lon="6.5699">
        <ele>1692</ele>
      </trkpt>
      <trkpt lat="45.63636" lon="6.57001">
        <ele>1690</ele>
      </trkpt>
      <trkpt lat="45.63637" lon="6.5701">
        <ele>1687</ele>
      </trkpt>
      <trkpt lat="45.63637" lon="6.57017">
        <ele>1686</ele>
      </trkpt>
      <trkpt lat="45.63637" lon="6.57023">
        <ele>1685</ele>
      </trkpt>
      <trkpt lat="45.63635" lon="6.57028">
        <ele>1686</ele>
      </trkpt>
      <trkpt lat="45.6363" lon="6.57031">
        <ele>1686</ele>
      </trkpt>
      <trkpt lat="45.63626" lon="6.57037">
        <ele>1686</ele>
      </trkpt>
      <trkpt lat="45.63636" lon="6.57037">
        <ele>1683</ele>
      </trkpt>
      <trkpt lat="45.63643" lon="6.57039">
        <ele>1683</ele>
      </trkpt>
      <trkpt lat="45.63646" lon="6.57044">
        <ele>1685</ele>
      </trkpt>
      <trkpt lat="45.63656" lon="6.57056">
        <ele>1683</ele>
      </trkpt>
      <trkpt lat="45.63665" lon="6.5706">
        <ele>1681</ele>
      </trkpt>
      <trkpt lat="45.63671" lon="6.57062">
        <ele>1678</ele>
      </trkpt>
      <trkpt lat="45.63675" lon="6.57069">
        <ele>1676</ele>
      </trkpt>
      <trkpt lat="45.63679" lon="6.57068">
        <ele>1676</ele>
      </trkpt>
      <trkpt lat="45.6369" lon="6.57059">
        <ele>1674</ele>
      </trkpt>
      <trkpt lat="45.63694" lon="6.57053">
        <ele>1672</ele>
      </trkpt>
      <trkpt lat="45.63699" lon="6.57057">
        <ele>1670</ele>
      </trkpt>
      <trkpt lat="45.63705" lon="6.57056">
        <ele>1668</ele>
      </trkpt>
      <trkpt lat="45.63707" lon="6.57068">
        <ele>1665</ele>
      </trkpt>
      <trkpt lat="45.63713" lon="6.57073">
        <ele>1663</ele>
      </trkpt>
      <trkpt lat="45.63718" lon="6.57077">
        <ele>1662</ele>
      </trkpt>
      <trkpt lat="45.63723" lon="6.57081">
        <ele>1661</ele>
      </trkpt>
      <trkpt lat="45.63729" lon="6.57078">
        <ele>1658</ele>
      </trkpt>
      <trkpt lat="45.63733" lon="6.57075">
        <ele>1657</ele>
      </trkpt>
      <trkpt lat="45.63734" lon="6.57078">
        <ele>1656</ele>
      </trkpt>
      <trkpt lat="45.63735" lon="6.57082">
        <ele>1654</ele>
      </trkpt>
      <trkpt lat="45.63739" lon="6.57084">
        <ele>1655</ele>
      </trkpt>
      <trkpt lat="45.63742" lon="6.57077">
        <ele>1653</ele>
      </trkpt>
      <trkpt lat="45.63745" lon="6.57083">
        <ele>1651</ele>
      </trkpt>
      <trkpt lat="45.63748" lon="6.5709">
        <ele>1649</ele>
      </trkpt>
      <trkpt lat="45.63753" lon="6.57088">
        <ele>1648</ele>
      </trkpt>
      <trkpt lat="45.63753" lon="6.57085">
        <ele>1647</ele>
      </trkpt>
      <trkpt lat="45.63756" lon="6.57079">
        <ele>1646</ele>
      </trkpt>
      <trkpt lat="45.63759" lon="6.57081">
        <ele>1645</ele>
      </trkpt>
      <trkpt lat="45.63761" lon="6.57086">
        <ele>1644</ele>
      </trkpt>
      <trkpt lat="45.63766" lon="6.57099">
        <ele>1643</ele>
      </trkpt>
      <trkpt lat="45.63768" lon="6.57101">
        <ele>1642</ele>
      </trkpt>
      <trkpt lat="45.6377" lon="6.57109">
        <ele>1639</ele>
      </trkpt>
      <trkpt lat="45.63775" lon="6.5711">
        <ele>1638</ele>
      </trkpt>
      <trkpt lat="45.63777" lon="6.57112">
        <ele>1637</ele>
      </trkpt>
      <trkpt lat="45.63778" lon="6.5711">
        <ele>1637</ele>
      </trkpt>
      <trkpt lat="45.63775" lon="6.57096">
        <ele>1635</ele>
      </trkpt>
      <trkpt lat="45.63776" lon="6.57094">
        <ele>1636</ele>
      </trkpt>
      <trkpt lat="45.6378" lon="6.57094">
        <ele>1636</ele>
      </trkpt>
      <trkpt lat="45.63782" lon="6.57099">
        <ele>1635</ele>
      </trkpt>
      <trkpt lat="45.63787" lon="6.57108">
        <ele>1634</ele>
      </trkpt>
      <trkpt lat="45.63789" lon="6.57116">
        <ele>1633</ele>
      </trkpt>
      <trkpt lat="45.63794" lon="6.57121">
        <ele>1634</ele>
      </trkpt>
      <trkpt lat="45.63795" lon="6.5713">
        <ele>1634</ele>
      </trkpt>
      <trkpt lat="45.63799" lon="6.57149">
        <ele>1632</ele>
      </trkpt>
      <trkpt lat="45.63801" lon="6.57152">
        <ele>1632</ele>
      </trkpt>
      <trkpt lat="45.63806" lon="6.57149">
        <ele>1632</ele>
      </trkpt>
      <trkpt lat="45.63809" lon="6.57151">
        <ele>1632</ele>
      </trkpt>
      <trkpt lat="45.63812" lon="6.57153">
        <ele>1632</ele>
      </trkpt>
      <trkpt lat="45.63816" lon="6.57156">
        <ele>1632</ele>
      </trkpt>
      <trkpt lat="45.63823" lon="6.5716">
        <ele>1631</ele>
      </trkpt>
      <trkpt lat="45.63828" lon="6.57161">
        <ele>1631</ele>
      </trkpt>
      <trkpt lat="45.63831" lon="6.57177">
        <ele>1631</ele>
      </trkpt>
      <trkpt lat="45.63832" lon="6.57183">
        <ele>1630</ele>
      </trkpt>
      <trkpt lat="45.63839" lon="6.57191">
        <ele>1629</ele>
      </trkpt>
      <trkpt lat="45.63845" lon="6.57196">
        <ele>1628</ele>
      </trkpt>
      <trkpt lat="45.63852" lon="6.57202">
        <ele>1626</ele>
      </trkpt>
      <trkpt lat="45.63858" lon="6.57207">
        <ele>1625</ele>
      </trkpt>
      <trkpt lat="45.63864" lon="6.57214">
        <ele>1626</ele>
      </trkpt>
      <trkpt lat="45.63872" lon="6.57221">
        <ele>1626</ele>
      </trkpt>
      <trkpt lat="45.63881" lon="6.57233">
        <ele>1625</ele>
      </trkpt>
      <trkpt lat="45.63889" lon="6.57245">
        <ele>1623</ele>
      </trkpt>
      <trkpt lat="45.63891" lon="6.57253">
        <ele>1622</ele>
      </trkpt>
      <trkpt lat="45.63893" lon="6.5726">
        <ele>1621</ele>
      </trkpt>
      <trkpt lat="45.63896" lon="6.57265">
        <ele>1619</ele>
      </trkpt>
      <trkpt lat="45.63903" lon="6.57276">
        <ele>1616</ele>
      </trkpt>
      <trkpt lat="45.63911" lon="6.57289">
        <ele>1613</ele>
      </trkpt>
      <trkpt lat="45.63919" lon="6.57301">
        <ele>1611</ele>
      </trkpt>
      <trkpt lat="45.63924" lon="6.57314">
        <ele>1609</ele>
      </trkpt>
      <trkpt lat="45.63929" lon="6.57323">
        <ele>1607</ele>
      </trkpt>
      <trkpt lat="45.63932" lon="6.57332">
        <ele>1605</ele>
      </trkpt>
      <trkpt lat="45.63939" lon="6.57344">
        <ele>1602</ele>
      </trkpt>
      <trkpt lat="45.63942" lon="6.57341">
        <ele>1601</ele>
      </trkpt>
      <trkpt lat="45.63944" lon="6.57341">
        <ele>1600</ele>
      </trkpt>
      <trkpt lat="45.63948" lon="6.57344">
        <ele>1600</ele>
      </trkpt>
      <trkpt lat="45.63953" lon="6.57349">
        <ele>1600</ele>
      </trkpt>
      <trkpt lat="45.63961" lon="6.57348">
        <ele>1598</ele>
      </trkpt>
      <trkpt lat="45.6397" lon="6.57353">
        <ele>1598</ele>
      </trkpt>
      <trkpt lat="45.63982" lon="6.57361">
        <ele>1597</ele>
      </trkpt>
      <trkpt lat="45.63982" lon="6.57361">
        <ele>1596.887207</ele>
      </trkpt>
      <trkpt lat="45.63992" lon="6.5737">
        <ele>1596.887207</ele>
      </trkpt>
      <trkpt lat="45.64003" lon="6.57379">
        <ele>1596.887207</ele>
      </trkpt>
      <trkpt lat="45.64002" lon="6.57384">
        <ele>1595.925781</ele>
      </trkpt>
      <trkpt lat="45.64006" lon="6.57402">
        <ele>1593.041748</ele>
      </trkpt>
      <trkpt lat="45.64008" lon="6.5742">
        <ele>1590.157959</ele>
      </trkpt>
      <trkpt lat="45.64014" lon="6.57434">
        <ele>1589.196533</ele>
      </trkpt>
      <trkpt lat="45.64016" lon="6.57435">
        <ele>1588.235352</ele>
      </trkpt>
      <trkpt lat="45.64032" lon="6.57436">
        <ele>1585.832031</ele>
      </trkpt>
      <trkpt lat="45.64046" lon="6.57445">
        <ele>1584.87085</ele>
      </trkpt>
      <trkpt lat="45.64054" lon="6.57455">
        <ele>1582.947998</ele>
      </trkpt>
      <trkpt lat="45.64062" lon="6.57465">
        <ele>1581.986816</ele>
      </trkpt>
      <trkpt lat="45.64067" lon="6.57471">
        <ele>1581.025635</ele>
      </trkpt>
      <trkpt lat="45.64075" lon="6.57486">
        <ele>1579.102539</ele>
      </trkpt>
      <trkpt lat="45.64087" lon="6.57499">
        <ele>1577.180176</ele>
      </trkpt>
      <trkpt lat="45.6409" lon="6.57502">
        <ele>1576.21875</ele>
      </trkpt>
      <trkpt lat="45.64096" lon="6.57518">
        <ele>1573.81543</ele>
      </trkpt>
      <trkpt lat="45.641" lon="6.57538">
        <ele>1569.970215</ele>
      </trkpt>
      <trkpt lat="45.64107" lon="6.57552">
        <ele>1568.047607</ele>
      </trkpt>
      <trkpt lat="45.64113" lon="6.57562">
        <ele>1566.125</ele>
      </trkpt>
      <trkpt lat="45.64115" lon="6.57566">
        <ele>1565.163818</ele>
      </trkpt>
      <trkpt lat="45.64121" lon="6.57569">
        <ele>1565.163818</ele>
      </trkpt>
      <trkpt lat="45.6412" lon="6.57573">
        <ele>1565.163818</ele>
      </trkpt>
      <trkpt lat="45.64124" lon="6.5758">
        <ele>1564.202393</ele>
      </trkpt>
      <trkpt lat="45.64134" lon="6.57588">
        <ele>1562.760254</ele>
      </trkpt>
      <trkpt lat="45.64134" lon="6.57592">
        <ele>1561.799072</ele>
      </trkpt>
      <trkpt lat="45.64147" lon="6.57605">
        <ele>1565.163818</ele>
      </trkpt>
      <trkpt lat="45.64163" lon="6.57592">
        <ele>1565.163818</ele>
      </trkpt>
      <trkpt lat="45.64174" lon="6.57585">
        <ele>1566.125</ele>
      </trkpt>
      <trkpt lat="45.64188" lon="6.57588">
        <ele>1566.125</ele>
      </trkpt>
      <trkpt lat="45.64203" lon="6.57595">
        <ele>1565.163818</ele>
      </trkpt>
      <trkpt lat="45.64216" lon="6.57607">
        <ele>1564.202393</ele>
      </trkpt>
      <trkpt lat="45.64223" lon="6.57613">
        <ele>1565.163818</ele>
      </trkpt>
      <trkpt lat="45.64232" lon="6.57624">
        <ele>1564.202393</ele>
      </trkpt>
      <trkpt lat="45.64241" lon="6.57635">
        <ele>1564.202393</ele>
      </trkpt>
      <trkpt lat="45.64251" lon="6.5764">
        <ele>1564.202393</ele>
      </trkpt>
      <trkpt lat="45.64257" lon="6.57645">
        <ele>1564.202393</ele>
      </trkpt>
      <trkpt lat="45.6427" lon="6.57654">
        <ele>1564.202393</ele>
      </trkpt>
      <trkpt lat="45.64278" lon="6.57659">
        <ele>1562.760254</ele>
      </trkpt>
      <trkpt lat="45.64285" lon="6.57658">
        <ele>1562.760254</ele>
      </trkpt>
      <trkpt lat="45.64298" lon="6.57661">
        <ele>1565.163818</ele>
      </trkpt>
      <trkpt lat="45.64299" lon="6.57662">
        <ele>1565.163818</ele>
      </trkpt>
      <trkpt lat="45.64305" lon="6.57664">
        <ele>1565.163818</ele>
      </trkpt>
      <trkpt lat="45.64311" lon="6.57668">
        <ele>1565.163818</ele>
      </trkpt>
      <trkpt lat="45.64318" lon="6.57672">
        <ele>1565.163818</ele>
      </trkpt>
      <trkpt lat="45.64329" lon="6.57671">
        <ele>1565.163818</ele>
      </trkpt>
      <trkpt lat="45.64338" lon="6.57677">
        <ele>1565.163818</ele>
      </trkpt>
      <trkpt lat="45.64347" lon="6.5768">
        <ele>1565.163818</ele>
      </trkpt>
      <trkpt lat="45.64357" lon="6.57684">
        <ele>1566.125</ele>
      </trkpt>
      <trkpt lat="45.64363" lon="6.57686">
        <ele>1565.163818</ele>
      </trkpt>
      <trkpt lat="45.64371" lon="6.5769">
        <ele>1565.163818</ele>
      </trkpt>
      <trkpt lat="45.64381" lon="6.57699">
        <ele>1565.163818</ele>
      </trkpt>
      <trkpt lat="45.6439" lon="6.57699">
        <ele>1564.202393</ele>
      </trkpt>
      <trkpt lat="45.64399" lon="6.57699">
        <ele>1564.202393</ele>
      </trkpt>
      <trkpt lat="45.64408" lon="6.577">
        <ele>1562.760254</ele>
      </trkpt>
      <trkpt lat="45.64419" lon="6.57702">
        <ele>1561.799072</ele>
      </trkpt>
      <trkpt lat="45.64427" lon="6.57699">
        <ele>1562.760254</ele>
      </trkpt>
      <trkpt lat="45.64437" lon="6.57699">
        <ele>1561.799072</ele>
      </trkpt>
      <trkpt lat="45.64444" lon="6.57699">
        <ele>1562.760254</ele>
      </trkpt>
      <trkpt lat="45.64452" lon="6.57702">
        <ele>1560.837646</ele>
      </trkpt>
      <trkpt lat="45.6446" lon="6.57705">
        <ele>1560.837646</ele>
      </trkpt>
      <trkpt lat="45.64464" lon="6.5771">
        <ele>1560.837646</ele>
      </trkpt>
      <trkpt lat="45.64482" lon="6.57707">
        <ele>1560.837646</ele>
      </trkpt>
      <trkpt lat="45.64492" lon="6.57714">
        <ele>1560.837646</ele>
      </trkpt>
      <trkpt lat="45.64506" lon="6.57714">
        <ele>1559.876221</ele>
      </trkpt>
      <trkpt lat="45.64509" lon="6.57717">
        <ele>1559.876221</ele>
      </trkpt>
      <trkpt lat="45.64513" lon="6.5772">
        <ele>1559.876221</ele>
      </trkpt>
      <trkpt lat="45.64524" lon="6.57732">
        <ele>1559.876221</ele>
      </trkpt>
      <trkpt lat="45.64526" lon="6.57734">
        <ele>1559.876221</ele>
      </trkpt>
      <trkpt lat="45.64539" lon="6.57725">
        <ele>1559.876221</ele>
      </trkpt>
      <trkpt lat="45.64554" lon="6.57724">
        <ele>1559.876221</ele>
      </trkpt>
      <trkpt lat="45.64557" lon="6.57724">
        <ele>1559.876221</ele>
      </trkpt>
      <trkpt lat="45.64566" lon="6.57728">
        <ele>1559.876221</ele>
      </trkpt>
      <trkpt lat="45.64571" lon="6.57729">
        <ele>1559.876221</ele>
      </trkpt>
      <trkpt lat="45.64581" lon="6.5772">
        <ele>1558.915039</ele>
      </trkpt>
      <trkpt lat="45.64588" lon="6.57718">
        <ele>1558.915039</ele>
      </trkpt>
      <trkpt lat="45.64594" lon="6.57722">
        <ele>1558.915039</ele>
      </trkpt>
      <trkpt lat="45.64606" lon="6.57721">
        <ele>1559.876221</ele>
      </trkpt>
      <trkpt lat="45.64619" lon="6.57724">
        <ele>1560.837646</ele>
      </trkpt>
      <trkpt lat="45.6462" lon="6.57724">
        <ele>1559.876221</ele>
      </trkpt>
      <trkpt lat="45.64634" lon="6.57729">
        <ele>1560.837646</ele>
      </trkpt>
      <trkpt lat="45.64646" lon="6.5773">
        <ele>1560.837646</ele>
      </trkpt>
      <trkpt lat="45.64657" lon="6.57733">
        <ele>1560.837646</ele>
      </trkpt>
      <trkpt lat="45.64668" lon="6.57737">
        <ele>1560.837646</ele>
      </trkpt>
      <trkpt lat="45.64681" lon="6.57739">
        <ele>1560.837646</ele>
      </trkpt>
      <trkpt lat="45.6469" lon="6.57736">
        <ele>1560.837646</ele>
      </trkpt>
      <trkpt lat="45.64705" lon="6.57739">
        <ele>1560.837646</ele>
      </trkpt>
      <trkpt lat="45.64712" lon="6.5774">
        <ele>1560.837646</ele>
      </trkpt>
      <trkpt lat="45.64724" lon="6.5774">
        <ele>1561.799072</ele>
      </trkpt>
      <trkpt lat="45.64733" lon="6.57737">
        <ele>1561.799072</ele>
      </trkpt>
      <trkpt lat="45.64743" lon="6.57739">
        <ele>1562.760254</ele>
      </trkpt>
      <trkpt lat="45.64756" lon="6.57739">
        <ele>1562.760254</ele>
      </trkpt>
      <trkpt lat="45.64765" lon="6.57742">
        <ele>1562.760254</ele>
      </trkpt>
      <trkpt lat="45.64773" lon="6.57749">
        <ele>1564.202393</ele>
      </trkpt>
      <trkpt lat="45.64784" lon="6.5775">
        <ele>1564.202393</ele>
      </trkpt>
      <trkpt lat="45.64794" lon="6.5775">
        <ele>1562.760254</ele>
      </trkpt>
      <trkpt lat="45.64802" lon="6.57746">
        <ele>1562.760254</ele>
      </trkpt>
      <trkpt lat="45.6481" lon="6.57754">
        <ele>1561.799072</ele>
      </trkpt>
      <trkpt lat="45.64819" lon="6.57752">
        <ele>1562.760254</ele>
      </trkpt>
      <trkpt lat="45.64829" lon="6.57758">
        <ele>1561.799072</ele>
      </trkpt>
      <trkpt lat="45.64843" lon="6.5776">
        <ele>1561.799072</ele>
      </trkpt>
      <trkpt lat="45.64855" lon="6.57765">
        <ele>1560.837646</ele>
      </trkpt>
      <trkpt lat="45.64867" lon="6.5777">
        <ele>1560.837646</ele>
      </trkpt>
      <trkpt lat="45.64878" lon="6.57772">
        <ele>1560.837646</ele>
      </trkpt>
      <trkpt lat="45.64892" lon="6.57774">
        <ele>1560.837646</ele>
      </trkpt>
      <trkpt lat="45.64904" lon="6.5778">
        <ele>1559.876221</ele>
      </trkpt>
      <trkpt lat="45.64914" lon="6.57783">
        <ele>1558.915039</ele>
      </trkpt>
      <trkpt lat="45.64926" lon="6.57783">
        <ele>1557.953857</ele>
      </trkpt>
      <trkpt lat="45.64931" lon="6.57787">
        <ele>1558.915039</ele>
      </trkpt>
      <trkpt lat="45.6494" lon="6.57783">
        <ele>1558.915039</ele>
      </trkpt>
      <trkpt lat="45.64942" lon="6.57785">
        <ele>1558.915039</ele>
      </trkpt>
      <trkpt lat="45.64949" lon="6.57782">
        <ele>1558.915039</ele>
      </trkpt>
      <trkpt lat="45.64961" lon="6.57782">
        <ele>1558.915039</ele>
      </trkpt>
      <trkpt lat="45.64972" lon="6.57789">
        <ele>1558.915039</ele>
      </trkpt>
      <trkpt lat="45.64984" lon="6.57786">
        <ele>1558.915039</ele>
      </trkpt>
      <trkpt lat="45.64997" lon="6.57782">
        <ele>1558.915039</ele>
      </trkpt>
      <trkpt lat="45.65006" lon="6.57787">
        <ele>1558.915039</ele>
      </trkpt>
      <trkpt lat="45.65018" lon="6.57784">
        <ele>1558.915039</ele>
      </trkpt>
      <trkpt lat="45.65033" lon="6.57778">
        <ele>1557.953857</ele>
      </trkpt>
      <trkpt lat="45.65042" lon="6.57784">
        <ele>1557.953857</ele>
      </trkpt>
      <trkpt lat="45.65052" lon="6.57786">
        <ele>1557.953857</ele>
      </trkpt>
      <trkpt lat="45.65054" lon="6.57799">
        <ele>1557.953857</ele>
      </trkpt>
      <trkpt lat="45.65042" lon="6.57819">
        <ele>1557.953857</ele>
      </trkpt>
      <trkpt lat="45.65031" lon="6.57839">
        <ele>1557.953857</ele>
      </trkpt>
      <trkpt lat="45.65022" lon="6.57863">
        <ele>1557.953857</ele>
      </trkpt>
      <trkpt lat="45.65016" lon="6.57888">
        <ele>1557.953857</ele>
      </trkpt>
      <trkpt lat="45.65013" lon="6.57918">
        <ele>1558.915039</ele>
      </trkpt>
      <trkpt lat="45.65016" lon="6.57954">
        <ele>1556.992432</ele>
      </trkpt>
      <trkpt lat="45.65023" lon="6.57982">
        <ele>1557.953857</ele>
      </trkpt>
      <trkpt lat="45.65034" lon="6.58008">
        <ele>1557.953857</ele>
      </trkpt>
      <trkpt lat="45.65044" lon="6.58026">
        <ele>1557.953857</ele>
      </trkpt>
      <trkpt lat="45.65054" lon="6.58038">
        <ele>1558.915039</ele>
      </trkpt>
      <trkpt lat="45.65064" lon="6.58049">
        <ele>1557.953857</ele>
      </trkpt>
      <trkpt lat="45.65063" lon="6.58067">
        <ele>1558.915039</ele>
      </trkpt>
      <trkpt lat="45.65063" lon="6.58069">
        <ele>1558.915039</ele>
      </trkpt>
      <trkpt lat="45.65063" lon="6.58089">
        <ele>1560.837646</ele>
      </trkpt>
      <trkpt lat="45.65071" lon="6.58109">
        <ele>1562.760254</ele>
      </trkpt>
      <trkpt lat="45.65076" lon="6.58126">
        <ele>1564.202393</ele>
      </trkpt>
      <trkpt lat="45.65079" lon="6.58136">
        <ele>1565.163818</ele>
      </trkpt>
      <trkpt lat="45.65085" lon="6.58155">
        <ele>1567.086426</ele>
      </trkpt>
      <trkpt lat="45.65092" lon="6.58178">
        <ele>1568.047607</ele>
      </trkpt>
      <trkpt lat="45.65095" lon="6.58192">
        <ele>1569.009033</ele>
      </trkpt>
      <trkpt lat="45.65099" lon="6.58217">
        <ele>1569.009033</ele>
      </trkpt>
      <trkpt lat="45.65105" lon="6.58242">
        <ele>1569.970215</ele>
      </trkpt>
      <trkpt lat="45.65114" lon="6.58249">
        <ele>1572.854248</ele>
      </trkpt>
      <trkpt lat="45.65118" lon="6.5824">
        <ele>1572.854248</ele>
      </trkpt>
      <trkpt lat="45.65119" lon="6.58218">
        <ele>1573.81543</ele>
      </trkpt>
      <trkpt lat="45.65119" lon="6.58195">
        <ele>1573.81543</ele>
      </trkpt>
      <trkpt lat="45.65115" lon="6.58165">
        <ele>1574.776855</ele>
      </trkpt>
      <trkpt lat="45.6511" lon="6.58146">
        <ele>1576.21875</ele>
      </trkpt>
      <trkpt lat="45.6511" lon="6.58127">
        <ele>1577.180176</ele>
      </trkpt>
      <trkpt lat="45.65111" lon="6.58113">
        <ele>1577.180176</ele>
      </trkpt>
      <trkpt lat="45.65113" lon="6.5811">
        <ele>1577.180176</ele>
      </trkpt>
    </trkseg>
  </trk>
</gpx>